Time,TemperatureF,DewpointF,PressureIn,WindDirection,WindDirectionDegrees,WindSpeedMPH,WindSpeedGustMPH,Humidity,HourlyPrecipIn,Conditions,Clouds,dailyrainin,SoftwareType,DateUTC
2013-01-13 00:00:00,71.4,69.6,29.67,South,178,11.0,11.0,94,0.00,,---,0.00,VWS V14.01,2013-01-13 06:00:00,
2013-01-13 00:01:00,71.4,69.6,29.67,South,179,7.0,11.0,94,0.00,,---,0.00,VWS V14.01,2013-01-13 06:01:00,
2013-01-13 00:02:00,71.3,69.5,29.67,SSW,195,7.0,12.0,94,0.00,,---,0.00,VWS V14.01,2013-01-13 06:02:00,
2013-01-13 00:03:00,71.3,69.5,29.67,South,190,13.0,16.0,94,0.00,,---,0.00,VWS V14.01,2013-01-13 06:03:00,
2013-01-13 00:04:00,71.4,69.6,29.68,SSW,202,7.0,15.0,94,0.00,,---,0.00,VWS V14.01,2013-01-13 06:04:00,
2013-01-13 00:05:00,71.4,69.6,29.68,SSE,167,12.0,13.0,94,0.00,,---,0.00,VWS V14.01,2013-01-13 06:05:00,
2013-01-13 00:06:00,71.3,69.5,29.68,South,178,4.0,12.0,94,0.00,,---,0.00,VWS V14.01,2013-01-13 06:06:00,
2013-01-13 00:07:00,71.4,69.6,29.68,South,182,11.0,12.0,94,0.00,,---,0.00,VWS V14.01,2013-01-13 06:07:00,
2013-01-13 00:08:00,71.3,69.5,29.68,South,181,19.0,19.0,94,0.00,,---,0.00,VWS V14.01,2013-01-13 06:08:00,
2013-01-13 00:09:00,71.4,69.6,29.68,South,188,10.0,19.0,94,0.00,,---,0.00,VWS V14.01,2013-01-13 06:09:00,
2013-01-13 00:10:00,71.3,69.5,29.68,South,173,10.0,16.0,94,0.00,,---,0.00,VWS V14.01,2013-01-13 06:10:00,
2013-01-13 00:11:00,71.4,69.6,29.68,South,182,12.0,12.0,94,0.00,,---,0.00,VWS V14.01,2013-01-13 06:11:00,
2013-01-13 00:12:00,71.4,69.6,29.68,South,180,11.0,15.0,94,0.00,,---,0.00,VWS V14.01,2013-01-13 06:12:00,
2013-01-13 00:13:00,71.4,69.6,29.68,South,187,12.0,13.0,94,0.00,,---,0.00,VWS V14.01,2013-01-13 06:13:00,
2013-01-13 00:14:00,71.4,69.6,29.68,South,185,15.0,15.0,94,0.00,,---,0.00,VWS V14.01,2013-01-13 06:14:00,
2013-01-13 00:15:00,71.3,69.5,29.68,South,191,10.0,15.0,94,0.00,,---,0.00,VWS V14.01,2013-01-13 06:15:00,
2013-01-13 00:16:00,71.3,69.5,29.68,SSW,195,10.0,10.0,94,0.00,,---,0.00,VWS V14.01,2013-01-13 06:16:00,
2013-01-13 00:17:00,71.3,69.5,29.68,South,178,5.0,9.0,94,0.00,,---,0.00,VWS V14.01,2013-01-13 06:17:00,
2013-01-13 00:18:00,71.3,69.5,29.68,SSW,195,12.0,12.0,94,0.00,,---,0.00,VWS V14.01,2013-01-13 06:18:00,
2013-01-13 00:19:00,71.4,69.6,29.68,SSW,207,8.0,12.0,94,0.00,,---,0.00,VWS V14.01,2013-01-13 06:19:00,
2013-01-13 00:20:00,71.4,69.6,29.68,SSW,207,6.0,10.0,94,0.00,,---,0.00,VWS V14.01,2013-01-13 06:20:00,
2013-01-13 00:21:00,71.3,69.5,29.68,SSE,165,8.0,11.0,94,0.00,,---,0.00,VWS V14.01,2013-01-13 06:21:00,
2013-01-13 00:22:00,71.3,69.5,29.68,South,178,11.0,13.0,94,0.00,,---,0.00,VWS V14.01,2013-01-13 06:22:00,
2013-01-13 00:23:00,71.3,69.5,29.68,SSE,168,6.0,11.0,94,0.00,,---,0.00,VWS V14.01,2013-01-13 06:23:00,
2013-01-13 00:24:00,71.3,69.5,29.68,South,169,7.0,10.0,94,0.00,,---,0.00,VWS V14.01,2013-01-13 06:24:00,
2013-01-13 00:25:00,71.3,69.5,29.68,South,181,7.0,10.0,94,0.00,,---,0.00,VWS V14.01,2013-01-13 06:25:00,
2013-01-13 00:26:00,71.3,69.5,29.68,SSE,164,5.0,7.0,94,0.00,,---,0.00,VWS V14.01,2013-01-13 06:26:00,
2013-01-13 00:27:00,71.3,69.5,29.68,South,178,7.0,10.0,94,0.00,,---,0.00,VWS V14.01,2013-01-13 06:27:00,
2013-01-13 00:28:00,71.3,69.5,29.68,South,172,3.0,9.0,94,0.00,,---,0.00,VWS V14.01,2013-01-13 06:28:00,
2013-01-13 00:29:00,71.3,69.5,29.68,SSE,167,5.0,5.0,94,0.00,,---,0.00,VWS V14.01,2013-01-13 06:29:00,
2013-01-13 00:30:00,71.3,69.5,29.68,SSE,149,10.0,11.0,94,0.00,,---,0.00,VWS V14.01,2013-01-13 06:30:00,
2013-01-13 00:31:00,71.3,69.5,29.68,SSE,152,9.0,10.0,94,0.00,,---,0.00,VWS V14.01,2013-01-13 06:31:00,
2013-01-13 00:32:00,71.3,69.5,29.68,South,169,9.0,12.0,94,0.00,,---,0.00,VWS V14.01,2013-01-13 06:32:00,
2013-01-13 00:33:00,71.3,69.5,29.68,South,179,5.0,10.0,94,0.00,,---,0.00,VWS V14.01,2013-01-13 06:33:00,
2013-01-13 00:34:00,71.3,69.5,29.68,South,175,11.0,12.0,94,0.00,,---,0.00,VWS V14.01,2013-01-13 06:34:00,
2013-01-13 00:35:00,71.3,69.5,29.68,South,180,7.0,11.0,94,0.00,,---,0.00,VWS V14.01,2013-01-13 06:35:00,
2013-01-13 00:36:00,71.3,69.5,29.68,South,180,7.0,7.0,94,0.00,,---,0.00,VWS V14.01,2013-01-13 06:36:00,
2013-01-13 00:37:00,71.3,69.5,29.68,SSE,168,5.0,12.0,94,0.00,,---,0.00,VWS V14.01,2013-01-13 06:37:00,
2013-01-13 00:38:00,71.4,69.6,29.68,South,171,8.0,9.0,94,0.00,,---,0.00,VWS V14.01,2013-01-13 06:38:00,
2013-01-13 00:39:00,71.3,69.5,29.68,South,169,6.0,10.0,94,0.00,,---,0.00,VWS V14.01,2013-01-13 06:39:00,
2013-01-13 00:40:00,71.3,69.5,29.68,SE,146,7.0,10.0,94,0.00,,---,0.00,VWS V14.01,2013-01-13 06:40:00,
2013-01-13 00:41:00,71.3,69.5,29.68,SSE,151,9.0,9.0,94,0.00,,---,0.00,VWS V14.01,2013-01-13 06:41:00,
2013-01-13 00:42:00,71.3,69.5,29.68,SSE,163,9.0,10.0,94,0.00,,---,0.00,VWS V14.01,2013-01-13 06:42:00,
2013-01-13 00:43:00,71.3,69.5,29.68,South,182,6.0,10.0,94,0.00,,---,0.00,VWS V14.01,2013-01-13 06:43:00,
2013-01-13 00:44:00,71.3,69.5,29.68,South,169,6.0,7.0,94,0.00,,---,0.00,VWS V14.01,2013-01-13 06:44:00,
2013-01-13 00:45:00,71.3,69.5,29.68,SSE,164,7.0,9.0,94,0.00,,---,0.00,VWS V14.01,2013-01-13 06:45:00,
2013-01-13 00:46:00,71.3,69.5,29.68,SSE,159,10.0,10.0,94,0.00,,---,0.00,VWS V14.01,2013-01-13 06:46:00,
2013-01-13 00:47:00,71.2,69.4,29.68,SSE,161,5.0,8.0,94,0.00,,---,0.00,VWS V14.01,2013-01-13 06:47:00,
2013-01-13 00:48:00,71.2,69.4,29.68,SSE,162,5.0,9.0,94,0.00,,---,0.00,VWS V14.01,2013-01-13 06:48:00,
2013-01-13 00:49:00,71.2,69.4,29.68,SSE,163,8.0,11.0,94,0.00,,---,0.00,VWS V14.01,2013-01-13 06:49:00,
2013-01-13 00:50:00,71.2,69.4,29.68,South,172,6.0,7.0,94,0.00,,---,0.00,VWS V14.01,2013-01-13 06:50:00,
2013-01-13 00:51:00,71.1,69.3,29.68,SSE,168,7.0,9.0,94,0.00,,---,0.00,VWS V14.01,2013-01-13 06:51:00,
2013-01-13 00:52:00,71.1,69.3,29.68,SSE,168,5.0,7.0,94,0.00,,---,0.00,VWS V14.01,2013-01-13 06:52:00,
2013-01-13 00:53:00,71.1,69.3,29.68,SSE,167,7.0,8.0,94,0.00,,---,0.00,VWS V14.01,2013-01-13 06:53:00,
2013-01-13 00:55:00,71.1,69.3,29.68,SSE,157,6.0,6.0,94,0.00,,---,0.00,VWS V14.01,2013-01-13 06:55:00,
2013-01-13 00:56:00,71.1,69.3,29.68,SSE,161,3.0,7.0,94,0.00,,---,0.00,VWS V14.01,2013-01-13 06:56:00,
2013-01-13 00:57:00,71.0,69.2,29.69,SSE,159,5.0,6.0,94,0.00,,---,0.00,VWS V14.01,2013-01-13 06:57:00,
2013-01-13 00:58:00,71.0,69.2,29.69,SSE,160,4.0,5.0,94,0.00,,---,0.00,VWS V14.01,2013-01-13 06:58:00,
2013-01-13 01:00:00,71.0,69.2,29.69,SSE,161,3.0,3.0,94,0.00,,---,0.00,VWS V14.01,2013-01-13 07:00:00,
2013-01-13 01:02:00,70.9,69.1,29.69,SSE,161,2.0,4.0,94,0.00,,---,0.00,VWS V14.01,2013-01-13 07:02:00,
2013-01-13 01:03:00,70.9,69.1,29.69,SSE,161,3.0,4.0,94,0.00,,---,0.00,VWS V14.01,2013-01-13 07:03:00,
2013-01-13 01:05:00,70.9,69.1,29.69,SSE,161,3.0,3.0,94,0.00,,---,0.00,VWS V14.01,2013-01-13 07:05:00,
2013-01-13 01:07:00,70.8,69.0,29.69,SSE,162,3.0,4.0,94,0.00,,---,0.00,VWS V14.01,2013-01-13 07:07:00,
2013-01-13 01:08:00,70.9,69.1,29.69,SSE,161,3.0,4.0,94,0.00,,---,0.00,VWS V14.01,2013-01-13 07:08:00,
2013-01-13 01:09:00,70.8,69.0,29.69,SSE,161,3.0,4.0,94,0.00,,---,0.00,VWS V14.01,2013-01-13 07:09:00,
2013-01-13 01:10:00,70.8,69.0,29.69,SSE,161,3.0,4.0,94,0.00,,---,0.00,VWS V14.01,2013-01-13 07:10:00,
2013-01-13 01:11:00,70.8,69.0,29.69,SSE,159,3.0,6.0,94,0.00,,---,0.00,VWS V14.01,2013-01-13 07:11:00,
2013-01-13 01:12:00,70.8,69.0,29.69,SSE,159,4.0,4.0,94,0.00,,---,0.00,VWS V14.01,2013-01-13 07:12:00,
2013-01-13 01:13:00,70.8,69.0,29.69,SE,141,5.0,5.0,94,0.00,,---,0.00,VWS V14.01,2013-01-13 07:13:00,
2013-01-13 01:14:00,70.8,69.0,29.69,SE,141,1.0,5.0,94,0.00,,---,0.00,VWS V14.01,2013-01-13 07:14:00,
2013-01-13 01:15:00,70.8,69.0,29.69,SE,141,3.0,3.0,94,0.00,,---,0.00,VWS V14.01,2013-01-13 07:15:00,
2013-01-13 01:16:00,70.7,68.9,29.69,SE,141,3.0,5.0,94,0.00,,---,0.00,VWS V14.01,2013-01-13 07:16:00,
2013-01-13 01:17:00,70.7,68.9,29.69,SE,141,5.0,7.0,94,0.00,,---,0.00,VWS V14.01,2013-01-13 07:17:00,
2013-01-13 01:18:00,70.7,68.9,29.69,SE,141,2.0,5.0,94,0.00,,---,0.00,VWS V14.01,2013-01-13 07:18:00,
2013-01-13 01:19:00,70.7,68.9,29.69,SSE,163,2.0,6.0,94,0.00,,---,0.00,VWS V14.01,2013-01-13 07:19:00,
2013-01-13 01:20:00,70.7,68.9,29.69,SSE,163,2.0,4.0,94,0.00,,---,0.00,VWS V14.01,2013-01-13 07:20:00,
2013-01-13 01:21:00,70.7,68.9,29.69,SSE,163,0.0,4.0,94,0.00,,---,0.00,VWS V14.01,2013-01-13 07:21:00,
2013-01-13 01:22:00,70.7,68.9,29.69,SSE,163,2.0,3.0,94,0.00,,---,0.00,VWS V14.01,2013-01-13 07:22:00,
2013-01-13 01:23:00,70.7,68.9,29.69,SSE,161,3.0,4.0,94,0.00,,---,0.00,VWS V14.01,2013-01-13 07:23:00,
2013-01-13 01:24:00,70.7,68.9,29.69,SSE,161,1.0,4.0,94,0.00,,---,0.00,VWS V14.01,2013-01-13 07:24:00,
2013-01-13 01:25:00,70.7,68.9,29.69,SSE,161,3.0,5.0,94,0.00,,---,0.00,VWS V14.01,2013-01-13 07:25:00,
2013-01-13 01:26:00,70.7,68.9,29.69,SSE,160,1.0,5.0,94,0.00,,---,0.00,VWS V14.01,2013-01-13 07:26:00,
2013-01-13 01:27:00,70.7,68.9,29.69,SSE,161,4.0,5.0,94,0.00,,---,0.00,VWS V14.01,2013-01-13 07:27:00,
2013-01-13 01:28:00,70.6,68.8,29.69,SSE,160,2.0,4.0,94,0.00,,---,0.00,VWS V14.01,2013-01-13 07:28:00,
2013-01-13 01:29:00,70.7,68.9,29.69,SSE,160,3.0,4.0,94,0.00,,---,0.00,VWS V14.01,2013-01-13 07:29:00,
2013-01-13 01:30:00,70.7,68.9,29.69,SSE,160,0.0,3.0,94,0.00,,---,0.00,VWS V14.01,2013-01-13 07:30:00,
2013-01-13 01:31:00,70.7,68.9,29.69,SSE,160,1.0,3.0,94,0.00,,---,0.00,VWS V14.01,2013-01-13 07:31:00,
2013-01-13 01:32:00,70.7,68.9,29.69,SSE,160,2.0,3.0,94,0.00,,---,0.00,VWS V14.01,2013-01-13 07:32:00,
2013-01-13 01:33:00,70.6,68.8,29.69,SSE,160,3.0,4.0,94,0.00,,---,0.00,VWS V14.01,2013-01-13 07:33:00,
2013-01-13 01:34:00,70.7,68.9,29.69,SSE,160,0.0,4.0,94,0.00,,---,0.00,VWS V14.01,2013-01-13 07:34:00,
2013-01-13 01:35:00,70.7,68.9,29.69,SSE,158,3.0,3.0,94,0.00,,---,0.00,VWS V14.01,2013-01-13 07:35:00,
2013-01-13 01:36:00,70.7,68.9,29.69,SSE,158,0.0,3.0,94,0.00,,---,0.00,VWS V14.01,2013-01-13 07:36:00,
2013-01-13 01:37:00,70.7,68.9,29.69,SSE,158,1.0,2.0,94,0.00,,---,0.00,VWS V14.01,2013-01-13 07:37:00,
2013-01-13 01:38:00,70.7,68.9,29.69,SSE,157,0.0,2.0,94,0.00,,---,0.00,VWS V14.01,2013-01-13 07:38:00,
2013-01-13 01:39:00,70.7,68.9,29.69,SSE,157,1.0,3.0,94,0.00,,---,0.00,VWS V14.01,2013-01-13 07:39:00,
2013-01-13 01:40:00,70.7,68.9,29.69,SSE,158,2.0,2.0,94,0.00,,---,0.00,VWS V14.01,2013-01-13 07:40:00,
2013-01-13 01:41:00,70.7,68.9,29.69,SSE,158,1.0,3.0,94,0.00,,---,0.00,VWS V14.01,2013-01-13 07:41:00,
2013-01-13 01:43:00,70.7,68.9,29.69,SSE,158,2.0,4.0,94,0.00,,---,0.00,VWS V14.01,2013-01-13 07:43:00,
2013-01-13 01:44:00,70.7,68.9,29.69,SSE,158,1.0,3.0,94,0.00,,---,0.00,VWS V14.01,2013-01-13 07:44:00,
2013-01-13 01:45:00,70.7,68.9,29.69,SSE,157,0.0,3.0,94,0.00,,---,0.00,VWS V14.01,2013-01-13 07:45:00,
2013-01-13 01:46:00,70.7,68.9,29.69,SSE,158,2.0,2.0,94,0.00,,---,0.00,VWS V14.01,2013-01-13 07:46:00,
2013-01-13 01:47:00,70.7,68.9,29.69,SSE,158,2.0,2.0,94,0.00,,---,0.00,VWS V14.01,2013-01-13 07:47:00,
2013-01-13 01:48:00,70.7,68.9,29.69,SSE,158,2.0,3.0,94,0.00,,---,0.00,VWS V14.01,2013-01-13 07:48:00,
2013-01-13 01:49:00,70.7,68.9,29.69,SSE,157,1.0,3.0,94,0.00,,---,0.00,VWS V14.01,2013-01-13 07:49:00,
2013-01-13 01:50:00,70.8,69.0,29.69,SSE,158,1.0,2.0,94,0.00,,---,0.00,VWS V14.01,2013-01-13 07:50:00,
2013-01-13 01:51:00,70.8,69.0,29.69,SSE,158,0.0,1.0,94,0.00,,---,0.00,VWS V14.01,2013-01-13 07:51:00,
2013-01-13 01:52:00,70.8,69.0,29.69,SSE,158,2.0,2.0,94,0.00,,---,0.00,VWS V14.01,2013-01-13 07:52:00,
2013-01-13 01:53:00,70.8,69.0,29.69,SSE,158,2.0,3.0,94,0.00,,---,0.00,VWS V14.01,2013-01-13 07:53:00,
2013-01-13 01:54:00,70.8,69.0,29.69,SSE,158,2.0,3.0,94,0.00,,---,0.00,VWS V14.01,2013-01-13 07:54:00,
2013-01-13 01:55:00,70.8,69.0,29.70,SSE,158,0.0,2.0,94,0.00,,---,0.00,VWS V14.01,2013-01-13 07:55:00,
2013-01-13 01:56:00,70.8,69.0,29.70,SSE,158,0.0,2.0,94,0.00,,---,0.00,VWS V14.01,2013-01-13 07:56:00,
2013-01-13 01:57:00,70.8,69.0,29.69,SSE,158,0.0,1.0,94,0.00,,---,0.00,VWS V14.01,2013-01-13 07:57:00,
2013-01-13 01:58:00,70.8,69.0,29.69,SSE,158,0.0,3.0,94,0.00,,---,0.00,VWS V14.01,2013-01-13 07:58:00,
2013-01-13 01:59:00,70.8,69.0,29.69,SSE,157,1.0,2.0,94,0.00,,---,0.00,VWS V14.01,2013-01-13 07:59:00,
2013-01-13 02:00:00,70.8,69.0,29.69,SSE,148,2.0,2.0,94,0.00,,---,0.00,VWS V14.01,2013-01-13 08:00:00,
2013-01-13 02:01:00,70.8,69.0,29.69,SSE,148,0.0,3.0,94,0.00,,---,0.00,VWS V14.01,2013-01-13 08:01:00,
2013-01-13 02:02:00,70.8,69.0,29.69,SSE,148,0.0,0.0,94,0.00,,---,0.00,VWS V14.01,2013-01-13 08:02:00,
2013-01-13 02:03:00,70.8,69.0,29.69,SSE,148,0.0,0.0,94,0.00,,---,0.00,VWS V14.01,2013-01-13 08:03:00,
2013-01-13 02:04:00,70.8,69.0,29.70,SSE,148,1.0,1.0,94,0.00,,---,0.00,VWS V14.01,2013-01-13 08:04:00,
2013-01-13 02:05:00,70.8,69.0,29.70,SSE,148,0.0,1.0,94,0.00,,---,0.00,VWS V14.01,2013-01-13 08:05:00,
2013-01-13 02:06:00,70.8,69.0,29.70,SSE,148,0.0,1.0,94,0.00,,---,0.00,VWS V14.01,2013-01-13 08:06:00,
2013-01-13 02:07:00,70.8,69.0,29.69,SSE,148,0.0,1.0,94,0.00,,---,0.00,VWS V14.01,2013-01-13 08:07:00,
2013-01-13 02:08:00,70.8,69.0,29.70,SSE,148,0.0,0.0,94,0.00,,---,0.00,VWS V14.01,2013-01-13 08:08:00,
2013-01-13 02:09:00,70.8,69.0,29.70,SSE,148,0.0,0.0,94,0.00,,---,0.00,VWS V14.01,2013-01-13 08:09:00,
2013-01-13 02:10:00,70.9,69.1,29.70,SSE,148,0.0,0.0,94,0.00,,---,0.00,VWS V14.01,2013-01-13 08:10:00,
2013-01-13 02:11:00,70.9,69.1,29.70,SSE,148,0.0,0.0,94,0.00,,---,0.00,VWS V14.01,2013-01-13 08:11:00,
2013-01-13 02:12:00,70.9,69.1,29.70,SSE,148,0.0,0.0,94,0.00,,---,0.00,VWS V14.01,2013-01-13 08:12:00,
2013-01-13 02:13:00,70.9,69.1,29.70,SSE,148,1.0,1.0,94,0.00,,---,0.00,VWS V14.01,2013-01-13 08:13:00,
2013-01-13 02:14:00,70.9,69.1,29.70,SSE,148,0.0,1.0,94,0.00,,---,0.00,VWS V14.01,2013-01-13 08:14:00,
2013-01-13 02:15:00,70.9,69.1,29.70,SSE,148,0.0,0.0,94,0.00,,---,0.00,VWS V14.01,2013-01-13 08:15:00,
2013-01-13 02:16:00,70.9,69.1,29.70,SSE,148,0.0,0.0,94,0.00,,---,0.00,VWS V14.01,2013-01-13 08:16:00,
2013-01-13 02:17:00,70.9,69.1,29.70,SSE,148,0.0,0.0,94,0.00,,---,0.00,VWS V14.01,2013-01-13 08:17:00,
2013-01-13 02:18:00,70.8,69.0,29.71,SSE,148,0.0,0.0,94,0.00,,---,0.00,VWS V14.01,2013-01-13 08:18:00,
2013-01-13 02:19:00,70.9,69.1,29.71,SSE,148,0.0,0.0,94,0.00,,---,0.00,VWS V14.01,2013-01-13 08:19:00,
2013-01-13 02:20:00,70.9,69.1,29.71,SSE,148,0.0,0.0,94,0.00,,---,0.00,VWS V14.01,2013-01-13 08:20:00,
2013-01-13 02:21:00,70.9,69.1,29.71,SSE,148,0.0,0.0,94,0.00,,---,0.00,VWS V14.01,2013-01-13 08:21:00,
2013-01-13 02:22:00,70.9,69.1,29.71,SSE,148,0.0,0.0,94,0.00,,---,0.00,VWS V14.01,2013-01-13 08:22:00,
2013-01-13 02:23:00,70.9,69.1,29.71,SSE,148,0.0,0.0,94,0.00,,---,0.00,VWS V14.01,2013-01-13 08:23:00,
2013-01-13 02:24:00,70.8,69.0,29.71,SSE,148,0.0,0.0,94,0.00,,---,0.00,VWS V14.01,2013-01-13 08:24:00,
2013-01-13 02:25:00,70.8,69.0,29.71,SSE,148,0.0,0.0,94,0.00,,---,0.00,VWS V14.01,2013-01-13 08:25:00,
2013-01-13 02:26:00,70.8,69.0,29.71,SSE,148,0.0,0.0,94,0.00,,---,0.00,VWS V14.01,2013-01-13 08:26:00,
2013-01-13 02:27:00,70.8,69.0,29.71,SSE,148,0.0,0.0,94,0.00,,---,0.00,VWS V14.01,2013-01-13 08:27:00,
2013-01-13 02:28:00,70.8,69.0,29.72,SSE,148,0.0,0.0,94,0.00,,---,0.00,VWS V14.01,2013-01-13 08:28:00,
2013-01-13 02:29:00,70.8,69.0,29.72,SSE,148,0.0,0.0,94,0.00,,---,0.00,VWS V14.01,2013-01-13 08:29:00,
2013-01-13 02:30:00,70.8,69.0,29.72,SSE,148,0.0,1.0,94,0.00,,---,0.00,VWS V14.01,2013-01-13 08:30:00,
2013-01-13 02:31:00,70.8,69.0,29.72,SSE,148,0.0,0.0,94,0.00,,---,0.00,VWS V14.01,2013-01-13 08:31:00,
2013-01-13 02:33:00,70.8,69.0,29.72,SSE,148,0.0,0.0,94,0.00,,---,0.00,VWS V14.01,2013-01-13 08:33:00,
2013-01-13 02:34:00,70.8,69.0,29.72,SSE,148,0.0,0.0,94,0.00,,---,0.00,VWS V14.01,2013-01-13 08:34:00,
2013-01-13 02:35:00,70.8,69.0,29.72,SSE,148,0.0,0.0,94,0.00,,---,0.00,VWS V14.01,2013-01-13 08:35:00,
2013-01-13 02:36:00,70.8,69.0,29.72,SSE,148,0.0,0.0,94,0.00,,---,0.00,VWS V14.01,2013-01-13 08:36:00,
2013-01-13 02:37:00,70.8,69.0,29.72,SSE,148,0.0,0.0,94,0.00,,---,0.00,VWS V14.01,2013-01-13 08:37:00,
2013-01-13 02:38:00,70.8,69.0,29.72,SSE,148,0.0,0.0,94,0.00,,---,0.00,VWS V14.01,2013-01-13 08:38:00,
2013-01-13 02:39:00,70.8,69.0,29.72,SSE,148,0.0,0.0,94,0.00,,---,0.00,VWS V14.01,2013-01-13 08:39:00,
2013-01-13 02:40:00,70.8,69.0,29.72,SSE,148,0.0,0.0,94,0.00,,---,0.00,VWS V14.01,2013-01-13 08:40:00,
2013-01-13 02:41:00,70.7,68.9,29.72,SSE,148,0.0,0.0,94,0.00,,---,0.00,VWS V14.01,2013-01-13 08:41:00,
2013-01-13 02:42:00,70.8,69.0,29.72,SSE,148,0.0,0.0,94,0.00,,---,0.00,VWS V14.01,2013-01-13 08:42:00,
2013-01-13 02:43:00,70.7,68.9,29.72,SSE,148,0.0,0.0,94,0.00,,---,0.00,VWS V14.01,2013-01-13 08:43:00,
2013-01-13 02:44:00,70.7,68.9,29.72,SSE,148,0.0,0.0,94,0.00,,---,0.00,VWS V14.01,2013-01-13 08:44:00,
2013-01-13 02:45:00,70.7,68.9,29.72,SSE,148,0.0,0.0,94,0.00,,---,0.00,VWS V14.01,2013-01-13 08:45:00,
2013-01-13 02:46:00,70.7,68.9,29.72,SSE,148,0.0,0.0,94,0.00,,---,0.00,VWS V14.01,2013-01-13 08:46:00,
2013-01-13 02:47:00,70.7,68.9,29.71,SSE,148,0.0,0.0,94,0.00,,---,0.00,VWS V14.01,2013-01-13 08:47:00,
2013-01-13 02:48:00,70.7,68.9,29.72,SSE,148,0.0,0.0,94,0.00,,---,0.00,VWS V14.01,2013-01-13 08:48:00,
2013-01-13 02:49:00,70.7,68.9,29.72,SSE,148,0.0,0.0,94,0.00,,---,0.00,VWS V14.01,2013-01-13 08:49:00,
2013-01-13 02:50:00,70.7,68.9,29.72,SSE,148,0.0,0.0,94,0.00,,---,0.00,VWS V14.01,2013-01-13 08:50:00,
2013-01-13 02:51:00,70.7,68.9,29.71,SSE,148,0.0,0.0,94,0.00,,---,0.00,VWS V14.01,2013-01-13 08:51:00,
2013-01-13 02:52:00,70.7,68.9,29.72,SSE,148,0.0,0.0,94,0.00,,---,0.00,VWS V14.01,2013-01-13 08:52:00,
2013-01-13 02:53:00,70.6,68.8,29.71,SSE,148,2.0,2.0,94,0.00,,---,0.00,VWS V14.01,2013-01-13 08:53:00,
2013-01-13 02:54:00,70.6,68.8,29.72,SSE,148,0.0,2.0,94,0.00,,---,0.00,VWS V14.01,2013-01-13 08:54:00,
2013-01-13 02:55:00,70.6,68.8,29.72,SSE,148,0.0,0.0,94,0.00,,---,0.00,VWS V14.01,2013-01-13 08:55:00,
2013-01-13 02:56:00,70.6,68.8,29.72,SSE,147,0.0,1.0,94,0.00,,---,0.00,VWS V14.01,2013-01-13 08:56:00,
2013-01-13 02:57:00,70.6,68.8,29.72,SSE,147,0.0,0.0,94,0.00,,---,0.00,VWS V14.01,2013-01-13 08:57:00,
2013-01-13 02:58:00,70.5,68.7,29.72,SSE,147,0.0,1.0,94,0.00,,---,0.00,VWS V14.01,2013-01-13 08:58:00,
2013-01-13 02:59:00,70.5,68.7,29.72,SSE,147,0.0,0.0,94,0.00,,---,0.00,VWS V14.01,2013-01-13 08:59:00,
2013-01-13 03:00:00,70.5,68.7,29.72,SSE,147,0.0,1.0,94,0.00,,---,0.00,VWS V14.01,2013-01-13 09:00:00,
2013-01-13 03:01:00,70.5,68.7,29.72,SE,146,0.0,0.0,94,0.00,,---,0.00,VWS V14.01,2013-01-13 09:01:00,
2013-01-13 03:02:00,70.5,68.7,29.72,SSE,147,0.0,0.0,94,0.00,,---,0.00,VWS V14.01,2013-01-13 09:02:00,
2013-01-13 03:03:00,70.4,68.6,29.72,SSE,147,0.0,1.0,94,0.00,,---,0.00,VWS V14.01,2013-01-13 09:03:00,
2013-01-13 03:04:00,70.4,68.6,29.72,SSE,147,0.0,0.0,94,0.00,,---,0.00,VWS V14.01,2013-01-13 09:04:00,
2013-01-13 03:05:00,70.4,68.6,29.72,SSE,147,0.0,0.0,94,0.00,,---,0.00,VWS V14.01,2013-01-13 09:05:00,
2013-01-13 03:06:00,70.3,68.5,29.72,SSE,147,0.0,0.0,94,0.00,,---,0.00,VWS V14.01,2013-01-13 09:06:00,
2013-01-13 03:07:00,70.3,68.5,29.72,SE,146,0.0,0.0,94,0.00,,---,0.00,VWS V14.01,2013-01-13 09:07:00,
2013-01-13 03:08:00,70.3,68.5,29.72,SSE,147,0.0,1.0,94,0.00,,---,0.00,VWS V14.01,2013-01-13 09:08:00,
2013-01-13 03:09:00,70.3,68.5,29.72,SE,146,0.0,0.0,94,0.00,,---,0.00,VWS V14.01,2013-01-13 09:09:00,
2013-01-13 03:10:00,70.3,68.5,29.72,SSE,147,0.0,0.0,94,0.00,,---,0.00,VWS V14.01,2013-01-13 09:10:00,
2013-01-13 03:11:00,70.3,68.5,29.72,SSE,147,0.0,0.0,94,0.00,,---,0.00,VWS V14.01,2013-01-13 09:11:00,
2013-01-13 03:12:00,70.2,68.4,29.72,SSE,147,0.0,0.0,94,0.00,,---,0.00,VWS V14.01,2013-01-13 09:12:00,
2013-01-13 03:13:00,70.2,68.4,29.72,SE,146,0.0,1.0,94,0.00,,---,0.00,VWS V14.01,2013-01-13 09:13:00,
2013-01-13 03:14:00,70.2,68.4,29.72,SSE,147,0.0,0.0,94,0.00,,---,0.00,VWS V14.01,2013-01-13 09:14:00,
2013-01-13 03:15:00,70.2,68.4,29.72,SE,146,0.0,0.0,94,0.00,,---,0.00,VWS V14.01,2013-01-13 09:15:00,
2013-01-13 03:16:00,70.2,68.4,29.72,SSE,147,0.0,0.0,94,0.00,,---,0.00,VWS V14.01,2013-01-13 09:16:00,
2013-01-13 03:17:00,70.1,68.3,29.72,SE,146,0.0,0.0,94,0.00,,---,0.00,VWS V14.01,2013-01-13 09:17:00,
2013-01-13 03:18:00,70.1,68.3,29.72,SSE,147,0.0,0.0,94,0.00,,---,0.00,VWS V14.01,2013-01-13 09:18:00,
2013-01-13 03:19:00,70.1,68.3,29.72,SE,146,0.0,0.0,94,0.00,,---,0.00,VWS V14.01,2013-01-13 09:19:00,
2013-01-13 03:20:00,70.1,68.3,29.72,SSE,147,0.0,0.0,94,0.00,,---,0.00,VWS V14.01,2013-01-13 09:20:00,
2013-01-13 03:21:00,70.1,68.3,29.72,SSE,147,0.0,0.0,94,0.00,,---,0.00,VWS V14.01,2013-01-13 09:21:00,
2013-01-13 03:22:00,70.1,68.3,29.72,SE,146,0.0,0.0,94,0.00,,---,0.00,VWS V14.01,2013-01-13 09:22:00,
2013-01-13 03:23:00,70.1,68.3,29.72,SE,146,0.0,0.0,94,0.00,,---,0.00,VWS V14.01,2013-01-13 09:23:00,
2013-01-13 03:24:00,70.1,68.3,29.72,SE,146,0.0,0.0,94,0.00,,---,0.00,VWS V14.01,2013-01-13 09:24:00,
2013-01-13 03:25:00,70.1,68.3,29.72,SE,146,0.0,0.0,94,0.00,,---,0.00,VWS V14.01,2013-01-13 09:25:00,
2013-01-13 03:26:00,70.1,68.3,29.72,SSE,147,0.0,0.0,94,0.00,,---,0.00,VWS V14.01,2013-01-13 09:26:00,
2013-01-13 03:27:00,70.1,68.3,29.72,SSE,147,0.0,1.0,94,0.00,,---,0.00,VWS V14.01,2013-01-13 09:27:00,
2013-01-13 03:28:00,70.1,68.3,29.72,SE,146,0.0,0.0,94,0.00,,---,0.00,VWS V14.01,2013-01-13 09:28:00,
2013-01-13 03:29:00,70.1,68.3,29.72,SE,146,0.0,1.0,94,0.00,,---,0.00,VWS V14.01,2013-01-13 09:29:00,
2013-01-13 03:30:00,70.1,68.3,29.72,SSE,147,1.0,2.0,94,0.00,,---,0.00,VWS V14.01,2013-01-13 09:30:00,
2013-01-13 03:31:00,70.1,68.3,29.72,SSE,147,0.0,1.0,94,0.00,,---,0.00,VWS V14.01,2013-01-13 09:31:00,
2013-01-13 03:32:00,70.1,68.3,29.72,SSE,147,0.0,0.0,94,0.00,,---,0.00,VWS V14.01,2013-01-13 09:32:00,
2013-01-13 03:33:00,70.1,68.3,29.72,WNW,291,16.0,18.0,94,0.00,,---,0.00,VWS V14.01,2013-01-13 09:33:00,
2013-01-13 03:34:00,69.2,67.1,29.73,NNW,334,21.0,28.0,93,0.00,,---,0.00,VWS V14.01,2013-01-13 09:34:00,
2013-01-13 03:35:00,68.4,65.4,29.73,NW,309,11.0,25.0,90,0.00,,---,0.00,VWS V14.01,2013-01-13 09:35:00,
2013-01-13 03:36:00,66.8,63.1,29.73,NNW,332,21.0,24.0,88,0.00,,---,0.00,VWS V14.01,2013-01-13 09:36:00,
2013-01-13 03:37:00,65.3,61.7,29.74,NNW,334,20.0,21.0,88,0.00,,---,0.00,VWS V14.01,2013-01-13 09:37:00,
2013-01-13 03:38:00,64.3,60.7,29.74,NNW,334,7.0,24.0,88,0.00,,---,0.00,VWS V14.01,2013-01-13 09:38:00,
2013-01-13 03:39:00,63.5,59.9,29.74,NNE,27,6.0,11.0,88,0.00,,---,0.00,VWS V14.01,2013-01-13 09:39:00,
2013-01-13 03:40:00,63.1,59.8,29.74,NNE,14,13.0,19.0,89,0.00,,---,0.00,VWS V14.01,2013-01-13 09:40:00,
2013-01-13 03:41:00,62.3,59.0,29.74,North,349,14.0,21.0,89,0.00,,---,0.00,VWS V14.01,2013-01-13 09:41:00,
2013-01-13 03:42:00,61.7,58.4,29.74,NNE,19,20.0,20.0,89,0.00,,---,0.00,VWS V14.01,2013-01-13 09:42:00,
2013-01-13 03:43:00,61.3,58.0,29.74,NW,311,12.0,20.0,89,0.00,,---,0.00,VWS V14.01,2013-01-13 09:43:00,
2013-01-13 03:44:00,60.7,57.4,29.74,North,355,17.0,24.0,89,0.00,,---,0.00,VWS V14.01,2013-01-13 09:44:00,
2013-01-13 03:45:00,60.4,57.5,29.74,NNW,334,16.0,19.0,90,0.00,,---,0.00,VWS V14.01,2013-01-13 09:45:00,
2013-01-13 03:46:00,59.8,56.9,29.75,NNW,333,18.0,22.0,90,0.00,,---,0.00,VWS V14.01,2013-01-13 09:46:00,
2013-01-13 03:47:00,59.4,56.5,29.75,NNE,12,13.0,20.0,90,0.00,,---,0.00,VWS V14.01,2013-01-13 09:47:00,
2013-01-13 03:48:00,59.0,56.1,29.75,NW,323,14.0,21.0,90,0.00,,---,0.00,VWS V14.01,2013-01-13 09:48:00,
2013-01-13 03:49:00,58.7,55.8,29.75,NNW,329,22.0,27.0,90,0.00,,---,0.00,VWS V14.01,2013-01-13 09:49:00,
2013-01-13 03:50:00,58.5,55.6,29.75,North,11,15.0,22.0,90,0.00,,---,0.00,VWS V14.01,2013-01-13 09:50:00,
2013-01-13 03:51:00,58.2,55.3,29.75,North,355,16.0,16.0,90,0.00,,---,0.00,VWS V14.01,2013-01-13 09:51:00,
2013-01-13 03:52:00,57.9,55.3,29.75,NNW,339,20.0,20.0,91,0.00,,---,0.00,VWS V14.01,2013-01-13 09:52:00,
2013-01-13 03:53:00,57.7,55.1,29.75,NNW,329,12.0,24.0,91,0.00,,---,0.00,VWS V14.01,2013-01-13 09:53:00,
2013-01-13 03:54:00,57.4,54.8,29.75,NNW,344,19.0,22.0,91,0.00,,---,0.00,VWS V14.01,2013-01-13 09:54:00,
2013-01-13 03:55:00,57.2,54.6,29.75,North,10,18.0,24.0,91,0.00,,---,0.00,VWS V14.01,2013-01-13 09:55:00,
2013-01-13 03:56:00,56.9,54.3,29.75,North,355,14.0,22.0,91,0.00,,---,0.00,VWS V14.01,2013-01-13 09:56:00,
2013-01-13 03:57:00,56.6,54.0,29.75,North,10,7.0,18.0,91,0.00,,---,0.00,VWS V14.01,2013-01-13 09:57:00,
2013-01-13 03:58:00,56.4,53.8,29.75,North,355,17.0,19.0,91,0.00,,---,0.00,VWS V14.01,2013-01-13 09:58:00,
2013-01-13 03:59:00,56.2,53.6,29.76,NNW,344,18.0,20.0,91,0.00,,---,0.00,VWS V14.01,2013-01-13 09:59:00,
2013-01-13 04:00:00,56.1,53.5,29.76,North,5,14.0,18.0,91,0.00,,---,0.00,VWS V14.01,2013-01-13 10:00:00,
2013-01-13 04:01:00,55.9,53.3,29.75,NNE,18,16.0,25.0,91,0.00,,---,0.00,VWS V14.01,2013-01-13 10:01:00,
2013-01-13 04:02:00,55.8,53.2,29.76,NNW,345,10.0,18.0,91,0.00,,---,0.00,VWS V14.01,2013-01-13 10:02:00,
2013-01-13 04:03:00,55.6,53.3,29.76,North,5,7.0,10.0,92,0.00,,---,0.00,VWS V14.01,2013-01-13 10:03:00,
2013-01-13 04:04:00,55.5,53.2,29.76,NNW,327,15.0,19.0,92,0.00,,---,0.00,VWS V14.01,2013-01-13 10:04:00,
2013-01-13 04:05:00,55.5,53.2,29.76,North,10,6.0,17.0,92,0.00,,---,0.00,VWS V14.01,2013-01-13 10:05:00,
2013-01-13 04:06:00,55.4,53.1,29.76,North,9,11.0,18.0,92,0.00,,---,0.00,VWS V14.01,2013-01-13 10:06:00,
2013-01-13 04:07:00,55.3,53.0,29.76,NNW,337,11.0,19.0,92,0.00,,---,0.00,VWS V14.01,2013-01-13 10:07:00,
2013-01-13 04:08:00,55.2,52.9,29.76,NNE,31,11.0,16.0,92,0.00,,---,0.00,VWS V14.01,2013-01-13 10:08:00,
2013-01-13 04:09:00,55.1,52.8,29.76,NNW,340,12.0,13.0,92,0.00,,---,0.00,VWS V14.01,2013-01-13 10:09:00,
2013-01-13 04:10:00,55.1,52.8,29.77,NW,324,16.0,16.0,92,0.00,,---,0.00,VWS V14.01,2013-01-13 10:10:00,
2013-01-13 04:11:00,55.0,52.7,29.77,NNW,337,11.0,17.0,92,0.00,,---,0.00,VWS V14.01,2013-01-13 10:11:00,
2013-01-13 04:12:00,54.9,52.6,29.77,North,360,12.0,16.0,92,0.00,,---,0.00,VWS V14.01,2013-01-13 10:12:00,
2013-01-13 04:13:00,54.9,52.6,29.77,NNW,344,13.0,16.0,92,0.00,,---,0.00,VWS V14.01,2013-01-13 10:13:00,
2013-01-13 04:14:00,54.8,52.5,29.77,NNW,329,7.0,16.0,92,0.00,,---,0.00,VWS V14.01,2013-01-13 10:14:00,
2013-01-13 04:15:00,54.8,52.5,29.77,NNW,329,11.0,13.0,92,0.00,,---,0.00,VWS V14.01,2013-01-13 10:15:00,
2013-01-13 04:16:00,54.7,52.4,29.77,NNW,334,10.0,14.0,92,0.00,,---,0.00,VWS V14.01,2013-01-13 10:16:00,
2013-01-13 04:17:00,54.6,52.3,29.77,NE,34,17.0,17.0,92,0.00,,---,0.00,VWS V14.01,2013-01-13 10:17:00,
2013-01-13 04:18:00,54.6,52.3,29.77,NNE,22,7.0,17.0,92,0.00,,---,0.00,VWS V14.01,2013-01-13 10:18:00,
2013-01-13 04:19:00,54.5,52.2,29.76,NNW,336,9.0,19.0,92,0.00,,---,0.00,VWS V14.01,2013-01-13 10:19:00,
2013-01-13 04:20:00,54.4,52.1,29.76,NNW,344,14.0,15.0,92,0.00,,---,0.00,VWS V14.01,2013-01-13 10:20:00,
2013-01-13 04:21:00,54.3,52.0,29.76,North,360,13.0,16.0,92,0.00,,---,0.00,VWS V14.01,2013-01-13 10:21:00,
2013-01-13 04:22:00,54.2,51.9,29.77,North,360,9.0,15.0,92,0.00,,---,0.00,VWS V14.01,2013-01-13 10:22:00,
2013-01-13 04:23:00,54.2,51.9,29.77,North,360,12.0,16.0,92,0.00,,---,0.00,VWS V14.01,2013-01-13 10:23:00,
2013-01-13 04:24:00,54.1,51.8,29.77,NE,36,13.0,21.0,92,0.00,,---,0.00,VWS V14.01,2013-01-13 10:24:00,
2013-01-13 04:25:00,54.1,51.8,29.77,NNW,348,10.0,14.0,92,0.00,,---,0.00,VWS V14.01,2013-01-13 10:25:00,
2013-01-13 04:26:00,54.0,51.7,29.77,NNW,333,15.0,15.0,92,0.00,,---,0.00,VWS V14.01,2013-01-13 10:26:00,
2013-01-13 04:27:00,54.0,51.7,29.78,NNW,348,12.0,17.0,92,0.00,,---,0.00,VWS V14.01,2013-01-13 10:27:00,
2013-01-13 04:28:00,53.9,51.9,29.78,NNW,344,5.0,12.0,93,0.00,,---,0.00,VWS V14.01,2013-01-13 10:28:00,
2013-01-13 04:29:00,53.9,51.9,29.78,NNW,342,11.0,12.0,93,0.00,,---,0.00,VWS V14.01,2013-01-13 10:29:00,
2013-01-13 04:30:00,53.9,51.9,29.78,NNW,345,14.0,16.0,93,0.00,,---,0.00,VWS V14.01,2013-01-13 10:30:00,
2013-01-13 04:31:00,53.7,51.7,29.78,NNW,331,13.0,20.0,93,0.00,,---,0.00,VWS V14.01,2013-01-13 10:31:00,
2013-01-13 04:32:00,53.6,51.3,29.78,NNW,340,13.0,18.0,92,0.00,,---,0.00,VWS V14.01,2013-01-13 10:32:00,
2013-01-13 04:33:00,53.5,51.2,29.78,NNW,338,18.0,18.0,92,0.00,,---,0.00,VWS V14.01,2013-01-13 10:33:00,
2013-01-13 04:35:00,53.3,51.0,29.78,NNW,329,10.0,11.0,92,0.00,,---,0.00,VWS V14.01,2013-01-13 10:35:00,
2013-01-13 04:36:00,53.1,50.8,29.78,North,355,14.0,19.0,92,0.00,,---,0.00,VWS V14.01,2013-01-13 10:36:00,
2013-01-13 04:37:00,53.0,50.7,29.78,North,355,11.0,14.0,92,0.00,,---,0.00,VWS V14.01,2013-01-13 10:37:00,
2013-01-13 04:38:00,52.8,50.5,29.78,NNE,14,16.0,20.0,92,0.00,,---,0.00,VWS V14.01,2013-01-13 10:38:00,
2013-01-13 04:39:00,52.8,50.5,29.79,NNW,340,11.0,16.0,92,0.00,,---,0.00,VWS V14.01,2013-01-13 10:39:00,
2013-01-13 04:40:00,52.7,50.5,29.79,NNE,22,20.0,20.0,92,0.00,,---,0.00,VWS V14.01,2013-01-13 10:40:00,
2013-01-13 04:41:00,52.4,50.2,29.79,NNW,346,6.0,22.0,92,0.00,,---,0.00,VWS V14.01,2013-01-13 10:41:00,
2013-01-13 04:42:00,52.2,50.0,29.79,North,360,14.0,20.0,92,0.00,,---,0.00,VWS V14.01,2013-01-13 10:42:00,
2013-01-13 04:43:00,52.1,49.8,29.79,North,355,16.0,23.0,92,0.00,,---,0.00,VWS V14.01,2013-01-13 10:43:00,
2013-01-13 04:44:00,51.9,49.7,29.79,North,360,13.0,20.0,92,0.00,,---,0.00,VWS V14.01,2013-01-13 10:44:00,
2013-01-13 04:45:00,51.8,49.5,29.80,North,360,16.0,19.0,92,0.00,,---,0.00,VWS V14.01,2013-01-13 10:45:00,
2013-01-13 04:46:00,51.6,49.4,29.80,NNW,337,10.0,20.0,92,0.00,,---,0.00,VWS V14.01,2013-01-13 10:46:00,
2013-01-13 04:47:00,51.5,49.3,29.80,NNW,333,19.0,20.0,92,0.00,,---,0.00,VWS V14.01,2013-01-13 10:47:00,
2013-01-13 04:48:00,51.4,49.2,29.79,NNW,337,19.0,19.0,92,0.00,,---,0.00,VWS V14.01,2013-01-13 10:48:00,
2013-01-13 04:49:00,51.2,49.0,29.80,NNE,15,13.0,20.0,92,0.00,,---,0.00,VWS V14.01,2013-01-13 10:49:00,
2013-01-13 04:50:00,51.2,49.0,29.80,North,360,16.0,20.0,92,0.00,,---,0.00,VWS V14.01,2013-01-13 10:50:00,
2013-01-13 04:51:00,51.0,48.8,29.80,NNE,17,16.0,23.0,92,0.00,,---,0.00,VWS V14.01,2013-01-13 10:51:00,
2013-01-13 04:52:00,51.0,48.8,29.80,NW,325,13.0,20.0,92,0.00,,---,0.00,VWS V14.01,2013-01-13 10:52:00,
2013-01-13 04:53:00,50.9,48.7,29.80,NNE,12,10.0,21.0,92,0.00,,---,0.00,VWS V14.01,2013-01-13 10:53:00,
2013-01-13 04:54:00,50.9,48.7,29.80,NNW,343,13.0,15.0,92,0.00,,---,0.00,VWS V14.01,2013-01-13 10:54:00,
2013-01-13 04:55:00,50.8,48.6,29.80,NW,311,9.0,13.0,92,0.00,,---,0.00,VWS V14.01,2013-01-13 10:55:00,
2013-01-13 04:56:00,50.8,48.6,29.81,NNW,336,16.0,18.0,92,0.00,,---,0.00,VWS V14.01,2013-01-13 10:56:00,
2013-01-13 04:57:00,50.8,48.6,29.81,NNW,348,19.0,19.0,92,0.00,,---,0.00,VWS V14.01,2013-01-13 10:57:00,
2013-01-13 04:58:00,50.8,48.6,29.81,NW,323,10.0,19.0,92,0.00,,---,0.00,VWS V14.01,2013-01-13 10:58:00,
2013-01-13 04:59:00,50.8,48.6,29.81,North,355,12.0,23.0,92,0.00,,---,0.00,VWS V14.01,2013-01-13 10:59:00,
2013-01-13 05:00:00,50.8,48.6,29.81,NNW,344,10.0,18.0,92,0.00,,---,0.00,VWS V14.01,2013-01-13 11:00:00,
2013-01-13 05:01:00,50.8,48.6,29.81,NNW,346,14.0,23.0,92,0.00,,---,0.00,VWS V14.01,2013-01-13 11:01:00,
2013-01-13 05:03:00,50.5,48.3,29.81,NNW,334,17.0,24.0,92,0.00,,---,0.00,VWS V14.01,2013-01-13 11:03:00,
2013-01-13 05:05:00,50.4,48.2,29.82,NNW,327,14.0,18.0,92,0.00,,---,0.00,VWS V14.01,2013-01-13 11:05:00,
2013-01-13 05:06:00,50.3,48.1,29.82,NNW,343,15.0,20.0,92,0.00,,---,0.00,VWS V14.01,2013-01-13 11:06:00,
2013-01-13 05:07:00,50.3,48.1,29.82,North,349,16.0,21.0,92,0.00,,---,0.00,VWS V14.01,2013-01-13 11:07:00,
2013-01-13 05:10:00,50.1,47.9,29.82,North,350,10.0,17.0,92,0.00,,---,0.00,VWS V14.01,2013-01-13 11:10:00,
2013-01-13 05:11:00,50.0,47.8,29.82,NNW,343,13.0,20.0,92,0.00,,---,0.00,VWS V14.01,2013-01-13 11:11:00,
2013-01-13 05:12:00,50.0,47.8,29.82,North,351,11.0,19.0,92,0.00,,---,0.00,VWS V14.01,2013-01-13 11:12:00,
2013-01-13 05:13:00,49.9,47.7,29.82,NNW,336,12.0,14.0,92,0.00,,---,0.00,VWS V14.01,2013-01-13 11:13:00,
2013-01-13 05:15:00,49.9,47.7,29.82,NNW,330,9.0,9.0,92,0.00,,---,0.00,VWS V14.01,2013-01-13 11:15:00,
2013-01-13 05:16:00,49.9,47.7,29.82,North,355,17.0,18.0,92,0.00,,---,0.00,VWS V14.01,2013-01-13 11:16:00,
2013-01-13 05:17:00,49.9,47.7,29.82,NNW,337,9.0,17.0,92,0.00,,---,0.00,VWS V14.01,2013-01-13 11:17:00,
2013-01-13 05:20:00,49.9,47.7,29.82,NNW,346,15.0,20.0,92,0.00,,---,0.00,VWS V14.01,2013-01-13 11:20:00,
2013-01-13 05:21:00,49.8,47.6,29.82,North,5,9.0,18.0,92,0.00,,---,0.00,VWS V14.01,2013-01-13 11:21:00,
2013-01-13 05:22:00,49.8,47.6,29.82,NNW,340,7.0,19.0,92,0.00,,---,0.00,VWS V14.01,2013-01-13 11:22:00,
2013-01-13 05:25:00,49.8,47.6,29.82,North,10,5.0,11.0,92,0.00,,---,0.00,VWS V14.01,2013-01-13 11:25:00,
2013-01-13 05:26:00,49.8,47.6,29.82,North,355,12.0,12.0,92,0.00,,---,0.00,VWS V14.01,2013-01-13 11:26:00,
2013-01-13 05:27:00,49.8,47.6,29.82,NNW,331,21.0,21.0,92,0.00,,---,0.00,VWS V14.01,2013-01-13 11:27:00,
2013-01-13 05:28:00,49.8,47.6,29.83,North,360,7.0,21.0,92,0.00,,---,0.00,VWS V14.01,2013-01-13 11:28:00,
2013-01-13 05:30:00,49.8,47.6,29.83,NW,315,14.0,16.0,92,0.00,,---,0.00,VWS V14.01,2013-01-13 11:30:00,
2013-01-13 05:31:00,49.7,47.5,29.83,NNE,13,5.0,16.0,92,0.00,,---,0.00,VWS V14.01,2013-01-13 11:31:00,
2013-01-13 05:32:00,49.7,47.5,29.83,North,360,9.0,14.0,92,0.00,,---,0.00,VWS V14.01,2013-01-13 11:32:00,
2013-01-13 05:33:00,49.7,47.5,29.83,NNW,342,13.0,17.0,92,0.00,,---,0.00,VWS V14.01,2013-01-13 11:33:00,
2013-01-13 05:35:00,49.7,47.5,29.83,NNE,19,7.0,15.0,92,0.00,,---,0.00,VWS V14.01,2013-01-13 11:35:00,
2013-01-13 05:36:00,49.7,47.5,29.83,North,5,15.0,17.0,92,0.00,,---,0.00,VWS V14.01,2013-01-13 11:36:00,
2013-01-13 05:39:00,49.7,47.5,29.83,NW,326,13.0,16.0,92,0.00,,---,0.00,VWS V14.01,2013-01-13 11:39:00,
2013-01-13 05:40:00,49.7,47.5,29.83,NNW,343,9.0,15.0,92,0.00,,---,0.00,VWS V14.01,2013-01-13 11:40:00,
2013-01-13 05:41:00,49.7,47.5,29.83,North,355,11.0,15.0,92,0.00,,---,0.00,VWS V14.01,2013-01-13 11:41:00,
2013-01-13 05:43:00,49.7,47.5,29.84,NNW,337,13.0,16.0,92,0.00,,---,0.00,VWS V14.01,2013-01-13 11:43:00,
2013-01-13 05:44:00,49.7,47.5,29.84,NW,325,10.0,17.0,92,0.00,,---,0.00,VWS V14.01,2013-01-13 11:44:00,
2013-01-13 05:45:00,49.7,47.5,29.84,NNW,333,6.0,12.0,92,0.00,,---,0.00,VWS V14.01,2013-01-13 11:45:00,
2013-01-13 05:48:00,49.7,47.5,29.84,NW,310,13.0,17.0,92,0.00,,---,0.00,VWS V14.01,2013-01-13 11:48:00,
2013-01-13 05:49:00,49.7,47.5,29.84,North,9,11.0,17.0,92,0.00,,---,0.00,VWS V14.01,2013-01-13 11:49:00,
2013-01-13 05:50:00,49.7,47.5,29.84,North,355,12.0,13.0,92,0.00,,---,0.00,VWS V14.01,2013-01-13 11:50:00,
2013-01-13 05:53:00,49.7,47.5,29.84,North,355,6.0,13.0,92,0.00,,---,0.00,VWS V14.01,2013-01-13 11:53:00,
2013-01-13 05:54:00,49.7,47.5,29.84,NNW,343,12.0,12.0,92,0.00,,---,0.00,VWS V14.01,2013-01-13 11:54:00,
2013-01-13 05:55:00,49.7,47.5,29.84,NNW,337,9.0,12.0,92,0.00,,---,0.00,VWS V14.01,2013-01-13 11:55:00,
2013-01-13 05:57:00,49.7,47.5,29.84,North,11,13.0,17.0,92,0.00,,---,0.00,VWS V14.01,2013-01-13 11:57:00,
2013-01-13 05:58:00,49.6,47.4,29.84,NNW,342,9.0,16.0,92,0.00,,---,0.00,VWS V14.01,2013-01-13 11:58:00,
2013-01-13 06:00:00,49.6,47.4,29.85,NW,323,15.0,15.0,92,0.00,,---,0.00,VWS V14.01,2013-01-13 12:00:00,
2013-01-13 06:02:00,49.5,47.3,29.85,NNW,346,12.0,12.0,92,0.00,,---,0.00,VWS V14.01,2013-01-13 12:02:00,
2013-01-13 06:03:00,49.5,47.3,29.85,NNE,15,12.0,20.0,92,0.00,,---,0.00,VWS V14.01,2013-01-13 12:03:00,
2013-01-13 06:05:00,49.5,47.3,29.85,NNE,28,16.0,16.0,92,0.00,,---,0.00,VWS V14.01,2013-01-13 12:05:00,
2013-01-13 06:06:00,49.3,47.1,29.85,NNW,327,6.0,12.0,92,0.00,,---,0.00,VWS V14.01,2013-01-13 12:06:00,
2013-01-13 06:07:00,49.3,47.1,29.86,NW,315,12.0,13.0,92,0.00,,---,0.00,VWS V14.01,2013-01-13 12:07:00,
2013-01-13 06:10:00,49.2,47.0,29.86,North,355,13.0,14.0,92,0.00,,---,0.00,VWS V14.01,2013-01-13 12:10:00,
2013-01-13 06:11:00,49.1,46.9,29.86,NNW,330,18.0,20.0,92,0.00,,---,0.00,VWS V14.01,2013-01-13 12:11:00,
2013-01-13 06:15:00,48.9,46.7,29.86,NNW,344,15.0,16.0,92,0.00,,---,0.00,VWS V14.01,2013-01-13 12:15:00,
2013-01-13 06:16:00,48.8,46.6,29.86,North,355,16.0,16.0,92,0.00,,---,0.00,VWS V14.01,2013-01-13 12:16:00,
2013-01-13 06:17:00,48.8,46.6,29.86,NNW,346,17.0,19.0,92,0.00,,---,0.00,VWS V14.01,2013-01-13 12:17:00,
2013-01-13 06:19:00,48.7,46.5,29.86,NW,323,7.0,19.0,92,0.00,,---,0.00,VWS V14.01,2013-01-13 12:19:00,
2013-01-13 06:20:00,48.7,46.5,29.87,NNW,341,7.0,15.0,92,0.00,,---,0.00,VWS V14.01,2013-01-13 12:20:00,
2013-01-13 06:21:00,48.7,46.5,29.87,NNW,345,10.0,19.0,92,0.00,,---,0.00,VWS V14.01,2013-01-13 12:21:00,
2013-01-13 06:23:00,48.7,46.5,29.87,NNW,336,12.0,20.0,92,0.00,,---,0.00,VWS V14.01,2013-01-13 12:23:00,
2013-01-13 06:25:00,48.7,46.5,29.88,NNW,345,7.0,14.0,92,0.00,,---,0.00,VWS V14.01,2013-01-13 12:25:00,
2013-01-13 06:26:00,48.6,46.4,29.88,NNW,344,12.0,23.0,92,0.00,,---,0.00,VWS V14.01,2013-01-13 12:26:00,
2013-01-13 06:27:00,48.6,46.4,29.88,NW,314,8.0,15.0,92,0.00,,---,0.00,VWS V14.01,2013-01-13 12:27:00,
2013-01-13 06:28:00,48.5,46.3,29.88,NNW,336,16.0,16.0,92,0.00,,---,0.00,VWS V14.01,2013-01-13 12:28:00,
2013-01-13 06:29:00,48.5,46.3,29.88,NW,319,17.0,21.0,92,0.00,,---,0.00,VWS V14.01,2013-01-13 12:29:00,
2013-01-13 06:30:00,48.5,46.3,29.88,NW,317,13.0,17.0,92,0.00,,---,0.00,VWS V14.01,2013-01-13 12:30:00,
2013-01-13 06:33:00,48.2,46.0,29.88,North,350,5.0,23.0,92,0.00,,---,0.00,VWS V14.01,2013-01-13 12:33:00,
2013-01-13 06:34:00,48.1,45.9,29.89,NNW,348,11.0,19.0,92,0.00,,---,0.00,VWS V14.01,2013-01-13 12:34:00,
2013-01-13 06:35:00,48.1,45.9,29.89,NNW,333,11.0,12.0,92,0.00,,---,0.00,VWS V14.01,2013-01-13 12:35:00,
2013-01-13 06:36:00,47.9,45.7,29.89,NNW,339,17.0,18.0,92,0.00,,---,0.00,VWS V14.01,2013-01-13 12:36:00,
2013-01-13 06:38:00,47.6,45.4,29.89,NNW,342,13.0,21.0,92,0.00,,---,0.00,VWS V14.01,2013-01-13 12:38:00,
2013-01-13 06:39:00,47.6,45.4,29.89,North,355,5.0,20.0,92,0.00,,---,0.00,VWS V14.01,2013-01-13 12:39:00,
2013-01-13 06:40:00,47.6,45.4,29.89,NNW,331,13.0,18.0,92,0.00,,---,0.00,VWS V14.01,2013-01-13 12:40:00,
2013-01-13 06:41:00,47.4,45.2,29.89,North,5,16.0,18.0,92,0.00,,---,0.00,VWS V14.01,2013-01-13 12:41:00,
2013-01-13 06:42:00,47.4,45.2,29.89,NW,325,13.0,22.0,92,0.00,,---,0.00,VWS V14.01,2013-01-13 12:42:00,
2013-01-13 06:43:00,47.4,45.2,29.89,North,5,15.0,20.0,92,0.00,,---,0.00,VWS V14.01,2013-01-13 12:43:00,
2013-01-13 06:44:00,47.3,45.1,29.90,North,349,9.0,18.0,92,0.00,,---,0.00,VWS V14.01,2013-01-13 12:44:00,
2013-01-13 06:45:00,47.3,45.1,29.90,NNW,341,12.0,15.0,92,0.00,,---,0.00,VWS V14.01,2013-01-13 12:45:00,
2013-01-13 06:47:00,47.2,45.0,29.90,NNW,332,12.0,16.0,92,0.00,,---,0.00,VWS V14.01,2013-01-13 12:47:00,
2013-01-13 06:48:00,47.2,45.0,29.90,North,360,12.0,18.0,92,0.00,,---,0.00,VWS V14.01,2013-01-13 12:48:00,
2013-01-13 06:49:00,47.2,45.0,29.90,NNW,332,12.0,15.0,92,0.00,,---,0.00,VWS V14.01,2013-01-13 12:49:00,
2013-01-13 06:50:00,47.2,45.0,29.90,NNW,341,13.0,13.0,92,0.00,,---,0.00,VWS V14.01,2013-01-13 12:50:00,
2013-01-13 06:51:00,47.2,45.0,29.90,NNW,344,7.0,15.0,92,0.00,,---,0.00,VWS V14.01,2013-01-13 12:51:00,
2013-01-13 06:52:00,47.2,45.3,29.90,North,360,18.0,18.0,93,0.00,,---,0.00,VWS V14.01,2013-01-13 12:52:00,
2013-01-13 06:53:00,47.2,45.3,29.90,NNW,330,8.0,18.0,93,0.00,,---,0.00,VWS V14.01,2013-01-13 12:53:00,
2013-01-13 06:54:00,47.1,45.2,29.90,NNW,341,7.0,13.0,93,0.00,,---,0.00,VWS V14.01,2013-01-13 12:54:00,
2013-01-13 06:55:00,47.1,45.2,29.90,North,9,9.0,9.0,93,0.00,,---,0.00,VWS V14.01,2013-01-13 12:55:00,
2013-01-13 06:56:00,47.1,44.9,29.90,NNW,339,13.0,19.0,92,0.00,,---,0.00,VWS V14.01,2013-01-13 12:56:00,
2013-01-13 06:57:00,47.0,44.8,29.90,NNW,340,6.0,16.0,92,0.00,,---,0.00,VWS V14.01,2013-01-13 12:57:00,
2013-01-13 06:58:00,47.0,44.8,29.91,NNE,20,5.0,13.0,92,0.00,,---,0.00,VWS V14.01,2013-01-13 12:58:00,
2013-01-13 06:59:00,47.0,44.8,29.91,NNW,345,9.0,17.0,92,0.00,,---,0.00,VWS V14.01,2013-01-13 12:59:00,
2013-01-13 07:00:00,47.0,44.8,29.91,NW,318,6.0,12.0,92,0.00,,---,0.00,VWS V14.01,2013-01-13 13:00:00,
2013-01-13 07:01:00,47.0,44.8,29.91,NNW,337,12.0,18.0,92,0.00,,---,0.00,VWS V14.01,2013-01-13 13:01:00,
2013-01-13 07:02:00,46.9,44.7,29.91,NNW,338,10.0,15.0,92,0.00,,---,0.00,VWS V14.01,2013-01-13 13:02:00,
2013-01-13 07:03:00,47.0,44.8,29.90,NNW,340,5.0,18.0,92,0.00,,---,0.00,VWS V14.01,2013-01-13 13:03:00,
2013-01-13 07:04:00,46.9,44.7,29.91,NNW,342,3.0,15.0,92,0.00,,---,0.00,VWS V14.01,2013-01-13 13:04:00,
2013-01-13 07:05:00,47.0,44.8,29.91,North,355,7.0,10.0,92,0.00,,---,0.00,VWS V14.01,2013-01-13 13:05:00,
2013-01-13 07:06:00,47.0,44.8,29.91,NNW,341,12.0,20.0,92,0.00,,---,0.00,VWS V14.01,2013-01-13 13:06:00,
2013-01-13 07:07:00,47.0,44.8,29.91,North,355,9.0,15.0,92,0.00,,---,0.00,VWS V14.01,2013-01-13 13:07:00,
2013-01-13 07:08:00,47.0,44.8,29.91,NNW,340,5.0,15.0,92,0.00,,---,0.00,VWS V14.01,2013-01-13 13:08:00,
2013-01-13 07:09:00,47.1,44.9,29.91,NW,321,5.0,13.0,92,0.00,,---,0.00,VWS V14.01,2013-01-13 13:09:00,
2013-01-13 07:10:00,47.0,44.8,29.91,NNW,342,6.0,6.0,92,0.00,,---,0.00,VWS V14.01,2013-01-13 13:10:00,
2013-01-13 07:11:00,47.1,44.9,29.91,NNW,345,8.0,17.0,92,0.00,,---,0.00,VWS V14.01,2013-01-13 13:11:00,
2013-01-13 07:12:00,47.1,44.9,29.91,North,5,10.0,11.0,92,0.00,,---,0.00,VWS V14.01,2013-01-13 13:12:00,
2013-01-13 07:13:00,47.2,45.0,29.91,North,5,11.0,15.0,92,0.00,,---,0.00,VWS V14.01,2013-01-13 13:13:00,
2013-01-13 07:14:00,47.2,45.0,29.91,North,360,7.0,15.0,92,0.00,,---,0.00,VWS V14.01,2013-01-13 13:14:00,
2013-01-13 07:15:00,47.2,45.0,29.91,NNE,29,15.0,15.0,92,0.00,,---,0.00,VWS V14.01,2013-01-13 13:15:00,
2013-01-13 07:16:00,47.3,45.1,29.91,NNW,329,10.0,13.0,92,0.00,,---,0.00,VWS V14.01,2013-01-13 13:16:00,
2013-01-13 07:17:00,47.3,45.1,29.91,NNW,340,10.0,14.0,92,0.00,,---,0.00,VWS V14.01,2013-01-13 13:17:00,
2013-01-13 07:18:00,47.3,45.1,29.91,NNW,338,6.0,13.0,92,0.00,,---,0.00,VWS V14.01,2013-01-13 13:18:00,
2013-01-13 07:19:00,47.4,45.2,29.91,NNE,17,12.0,14.0,92,0.00,,---,0.00,VWS V14.01,2013-01-13 13:19:00,
2013-01-13 07:20:00,47.4,45.2,29.91,North,5,9.0,12.0,92,0.00,,---,0.00,VWS V14.01,2013-01-13 13:20:00,
2013-01-13 07:21:00,47.4,44.9,29.92,NNW,341,15.0,15.0,91,0.00,,---,0.00,VWS V14.01,2013-01-13 13:21:00,
2013-01-13 07:22:00,47.4,45.2,29.92,NNW,327,10.0,15.0,92,0.00,,---,0.00,VWS V14.01,2013-01-13 13:22:00,
2013-01-13 07:23:00,47.5,45.0,29.92,North,350,4.0,10.0,91,0.00,,---,0.00,VWS V14.01,2013-01-13 13:23:00,
2013-01-13 07:24:00,47.5,45.0,29.92,North,9,8.0,13.0,91,0.00,,---,0.00,VWS V14.01,2013-01-13 13:24:00,
2013-01-13 07:25:00,47.5,45.0,29.93,North,5,6.0,11.0,91,0.00,,---,0.00,VWS V14.01,2013-01-13 13:25:00,
2013-01-13 07:26:00,47.5,45.0,29.93,NNE,20,7.0,14.0,91,0.00,,---,0.00,VWS V14.01,2013-01-13 13:26:00,
2013-01-13 07:27:00,47.5,45.0,29.92,North,350,10.0,14.0,91,0.00,,---,0.00,VWS V14.01,2013-01-13 13:27:00,
2013-01-13 07:28:00,47.6,45.1,29.92,NNE,26,15.0,15.0,91,0.00,,---,0.00,VWS V14.01,2013-01-13 13:28:00,
2013-01-13 07:29:00,47.6,45.1,29.92,NNW,341,7.0,17.0,91,0.00,,---,0.00,VWS V14.01,2013-01-13 13:29:00,
2013-01-13 07:30:00,47.6,45.1,29.92,NNW,331,6.0,7.0,91,0.00,,---,0.00,VWS V14.01,2013-01-13 13:30:00,
2013-01-13 07:31:00,47.6,44.8,29.93,NNE,15,10.0,15.0,90,0.00,,---,0.00,VWS V14.01,2013-01-13 13:31:00,
2013-01-13 07:32:00,47.6,44.8,29.92,North,355,13.0,13.0,90,0.00,,---,0.00,VWS V14.01,2013-01-13 13:32:00,
2013-01-13 07:33:00,47.7,44.9,29.93,NNW,327,6.0,18.0,90,0.00,,---,0.00,VWS V14.01,2013-01-13 13:33:00,
2013-01-13 07:34:00,47.7,44.9,29.93,NNW,339,10.0,14.0,90,0.00,,---,0.00,VWS V14.01,2013-01-13 13:34:00,
2013-01-13 07:35:00,47.7,44.9,29.93,North,360,15.0,15.0,90,0.00,,---,0.00,VWS V14.01,2013-01-13 13:35:00,
2013-01-13 07:36:00,47.7,44.9,29.93,NNE,30,11.0,17.0,90,0.00,,---,0.00,VWS V14.01,2013-01-13 13:36:00,
2013-01-13 07:37:00,47.7,44.9,29.93,North,5,9.0,15.0,90,0.00,,---,0.00,VWS V14.01,2013-01-13 13:37:00,
2013-01-13 07:38:00,47.7,44.6,29.93,North,11,6.0,14.0,89,0.00,,---,0.00,VWS V14.01,2013-01-13 13:38:00,
2013-01-13 07:39:00,47.8,44.7,29.93,NW,316,10.0,12.0,89,0.00,,---,0.00,VWS V14.01,2013-01-13 13:39:00,
2013-01-13 07:40:00,47.8,44.7,29.93,NNW,334,14.0,15.0,89,0.00,,---,0.00,VWS V14.01,2013-01-13 13:40:00,
2013-01-13 07:41:00,47.8,44.7,29.93,NNW,344,11.0,20.0,89,0.00,,---,0.00,VWS V14.01,2013-01-13 13:41:00,
2013-01-13 07:42:00,47.8,44.7,29.93,NE,41,11.0,14.0,89,0.00,,---,0.00,VWS V14.01,2013-01-13 13:42:00,
2013-01-13 07:43:00,47.8,44.7,29.93,North,349,6.0,15.0,89,0.00,,---,0.00,VWS V14.01,2013-01-13 13:43:00,
2013-01-13 07:44:00,47.9,44.8,29.94,NNW,344,5.0,12.0,89,0.00,,---,0.00,VWS V14.01,2013-01-13 13:44:00,
2013-01-13 07:45:00,47.9,44.8,29.94,North,5,9.0,9.0,89,0.00,,---,0.00,VWS V14.01,2013-01-13 13:45:00,
2013-01-13 07:46:00,47.9,44.8,29.94,North,355,9.0,11.0,89,0.00,,---,0.00,VWS V14.01,2013-01-13 13:46:00,
2013-01-13 07:47:00,47.9,44.8,29.94,North,360,10.0,15.0,89,0.00,,---,0.00,VWS V14.01,2013-01-13 13:47:00,
2013-01-13 07:48:00,47.9,44.8,29.94,NE,40,12.0,13.0,89,0.00,,---,0.00,VWS V14.01,2013-01-13 13:48:00,
2013-01-13 07:49:00,47.9,44.5,29.94,North,5,11.0,19.0,88,0.00,,---,0.00,VWS V14.01,2013-01-13 13:49:00,
2013-01-13 07:50:00,47.9,44.5,29.94,North,10,13.0,13.0,88,0.00,,---,0.00,VWS V14.01,2013-01-13 13:50:00,
2013-01-13 07:51:00,47.9,44.5,29.94,NNW,341,7.0,19.0,88,0.00,,---,0.00,VWS V14.01,2013-01-13 13:51:00,
2013-01-13 07:52:00,47.9,44.5,29.94,North,5,3.0,15.0,88,0.00,,---,0.00,VWS V14.01,2013-01-13 13:52:00,
2013-01-13 07:53:00,47.9,44.5,29.94,North,355,7.0,16.0,88,0.00,,---,0.00,VWS V14.01,2013-01-13 13:53:00,
2013-01-13 07:54:00,47.9,44.5,29.94,NNW,340,10.0,10.0,88,0.00,,---,0.00,VWS V14.01,2013-01-13 13:54:00,
2013-01-13 07:55:00,47.9,44.5,29.94,North,9,13.0,14.0,88,0.00,,---,0.00,VWS V14.01,2013-01-13 13:55:00,
2013-01-13 07:56:00,47.9,44.5,29.94,NNW,332,10.0,18.0,88,0.00,,---,0.00,VWS V14.01,2013-01-13 13:56:00,
2013-01-13 07:57:00,47.9,44.5,29.94,North,5,11.0,18.0,88,0.00,,---,0.00,VWS V14.01,2013-01-13 13:57:00,
2013-01-13 07:58:00,47.9,44.2,29.94,North,360,10.0,16.0,87,0.00,,---,0.00,VWS V14.01,2013-01-13 13:58:00,
2013-01-13 07:59:00,47.9,44.2,29.94,North,360,12.0,12.0,87,0.00,,---,0.00,VWS V14.01,2013-01-13 13:59:00,
2013-01-13 08:00:00,47.9,44.2,29.94,North,355,12.0,19.0,87,0.00,,---,0.00,VWS V14.01,2013-01-13 14:00:00,
2013-01-13 08:01:00,47.9,44.2,29.94,North,351,7.0,14.0,87,0.00,,---,0.00,VWS V14.01,2013-01-13 14:01:00,
2013-01-13 08:02:00,47.9,44.2,29.94,NW,314,17.0,17.0,87,0.00,,---,0.00,VWS V14.01,2013-01-13 14:02:00,
2013-01-13 08:03:00,47.9,44.2,29.95,North,360,14.0,17.0,87,0.00,,---,0.00,VWS V14.01,2013-01-13 14:03:00,
2013-01-13 08:04:00,47.9,44.2,29.95,NW,326,13.0,17.0,87,0.00,,---,0.00,VWS V14.01,2013-01-13 14:04:00,
2013-01-13 08:05:00,47.9,44.2,29.95,NNE,14,7.0,17.0,87,0.00,,---,0.00,VWS V14.01,2013-01-13 14:05:00,
2013-01-13 08:06:00,47.9,44.2,29.95,North,360,7.0,12.0,87,0.00,,---,0.00,VWS V14.01,2013-01-13 14:06:00,
2013-01-13 08:07:00,47.9,43.9,29.95,NNE,19,12.0,15.0,86,0.00,,---,0.00,VWS V14.01,2013-01-13 14:07:00,
2013-01-13 08:08:00,47.9,43.9,29.95,NNE,13,5.0,14.0,86,0.00,,---,0.00,VWS V14.01,2013-01-13 14:08:00,
2013-01-13 08:09:00,47.9,43.9,29.95,North,360,5.0,13.0,86,0.00,,---,0.00,VWS V14.01,2013-01-13 14:09:00,
2013-01-13 08:10:00,47.9,43.9,29.95,NNW,331,10.0,10.0,86,0.00,,---,0.00,VWS V14.01,2013-01-13 14:10:00,
2013-01-13 08:11:00,47.9,43.9,29.95,North,355,6.0,15.0,86,0.00,,---,0.00,VWS V14.01,2013-01-13 14:11:00,
2013-01-13 08:12:00,48.0,44.0,29.95,NNW,344,7.0,12.0,86,0.00,,---,0.00,VWS V14.01,2013-01-13 14:12:00,
2013-01-13 08:13:00,48.0,44.0,29.95,North,350,10.0,14.0,86,0.00,,---,0.00,VWS V14.01,2013-01-13 14:13:00,
2013-01-13 08:14:00,48.0,44.0,29.96,North,351,12.0,14.0,86,0.00,,---,0.00,VWS V14.01,2013-01-13 14:14:00,
2013-01-13 08:15:00,48.0,44.0,29.96,NNE,21,9.0,17.0,86,0.00,,---,0.00,VWS V14.01,2013-01-13 14:15:00,
2013-01-13 08:16:00,48.0,44.0,29.96,North,10,11.0,16.0,86,0.00,,---,0.00,VWS V14.01,2013-01-13 14:16:00,
2013-01-13 08:17:00,48.0,44.0,29.96,NNE,12,9.0,11.0,86,0.00,,---,0.00,VWS V14.01,2013-01-13 14:17:00,
2013-01-13 08:18:00,48.1,44.1,29.96,NNW,342,6.0,12.0,86,0.00,,---,0.00,VWS V14.01,2013-01-13 14:18:00,
2013-01-13 08:19:00,48.1,44.1,29.96,North,360,6.0,6.0,86,0.00,,---,0.00,VWS V14.01,2013-01-13 14:19:00,
2013-01-13 08:20:00,48.1,44.1,29.96,NW,317,12.0,14.0,86,0.00,,---,0.00,VWS V14.01,2013-01-13 14:20:00,
2013-01-13 08:21:00,48.1,44.1,29.96,NNW,336,10.0,14.0,86,0.00,,---,0.00,VWS V14.01,2013-01-13 14:21:00,
2013-01-13 08:22:00,48.1,44.1,29.96,NW,323,10.0,18.0,86,0.00,,---,0.00,VWS V14.01,2013-01-13 14:22:00,
2013-01-13 08:23:00,48.1,44.1,29.96,NW,308,8.0,15.0,86,0.00,,---,0.00,VWS V14.01,2013-01-13 14:23:00,
2013-01-13 08:24:00,48.1,44.1,29.96,NNW,327,14.0,15.0,86,0.00,,---,0.00,VWS V14.01,2013-01-13 14:24:00,
2013-01-13 08:25:00,48.2,44.2,29.96,North,360,11.0,14.0,86,0.00,,---,0.00,VWS V14.01,2013-01-13 14:25:00,
2013-01-13 08:26:00,48.2,44.2,29.96,NNW,331,9.0,14.0,86,0.00,,---,0.00,VWS V14.01,2013-01-13 14:26:00,
2013-01-13 08:27:00,48.2,44.2,29.96,NNE,22,17.0,19.0,86,0.00,,---,0.00,VWS V14.01,2013-01-13 14:27:00,
2013-01-13 08:28:00,48.2,44.2,29.97,NW,326,10.0,18.0,86,0.00,,---,0.00,VWS V14.01,2013-01-13 14:28:00,
2013-01-13 08:29:00,48.2,44.2,29.97,North,5,7.0,7.0,86,0.00,,---,0.00,VWS V14.01,2013-01-13 14:29:00,
2013-01-13 08:30:00,48.3,44.3,29.97,NW,315,15.0,15.0,86,0.00,,---,0.00,VWS V14.01,2013-01-13 14:30:00,
2013-01-13 08:31:00,48.3,44.0,29.97,NNW,329,10.0,18.0,85,0.00,,---,0.00,VWS V14.01,2013-01-13 14:31:00,
2013-01-13 08:32:00,48.3,44.0,29.97,North,355,3.0,14.0,85,0.00,,---,0.00,VWS V14.01,2013-01-13 14:32:00,
2013-01-13 08:33:00,48.3,44.0,29.97,North,360,12.0,16.0,85,0.00,,---,0.00,VWS V14.01,2013-01-13 14:33:00,
2013-01-13 08:34:00,48.3,44.0,29.97,NNE,13,7.0,10.0,85,0.00,,---,0.00,VWS V14.01,2013-01-13 14:34:00,
2013-01-13 08:35:00,48.4,44.1,29.97,NNE,17,6.0,10.0,85,0.00,,---,0.00,VWS V14.01,2013-01-13 14:35:00,
2013-01-13 08:36:00,48.4,44.1,29.97,North,360,18.0,18.0,85,0.00,,---,0.00,VWS V14.01,2013-01-13 14:36:00,
2013-01-13 08:37:00,48.5,44.2,29.97,NNW,339,11.0,18.0,85,0.00,,---,0.00,VWS V14.01,2013-01-13 14:37:00,
2013-01-13 08:38:00,48.5,44.2,29.98,North,9,9.0,13.0,85,0.00,,---,0.00,VWS V14.01,2013-01-13 14:38:00,
2013-01-13 08:39:00,48.5,44.2,29.98,North,355,7.0,12.0,85,0.00,,---,0.00,VWS V14.01,2013-01-13 14:39:00,
2013-01-13 08:40:00,48.5,44.2,29.98,NNW,339,11.0,18.0,85,0.00,,---,0.00,VWS V14.01,2013-01-13 14:40:00,
2013-01-13 08:41:00,48.6,44.3,29.98,NNW,347,9.0,13.0,85,0.00,,---,0.00,VWS V14.01,2013-01-13 14:41:00,
2013-01-13 08:44:00,48.7,44.7,29.97,NNW,328,10.0,12.0,86,0.00,,---,0.00,VWS V14.01,2013-01-13 14:44:00,
2013-01-13 08:45:00,48.7,44.7,29.97,NNE,26,16.0,18.0,86,0.00,,---,0.00,VWS V14.01,2013-01-13 14:45:00,
2013-01-13 08:46:00,48.7,44.4,29.97,NW,308,6.0,16.0,85,0.00,,---,0.00,VWS V14.01,2013-01-13 14:46:00,
2013-01-13 08:47:00,48.7,44.4,29.97,NE,36,18.0,19.0,85,0.00,,---,0.00,VWS V14.01,2013-01-13 14:47:00,
2013-01-13 08:48:00,48.7,44.4,29.97,NNW,333,14.0,19.0,85,0.00,,---,0.00,VWS V14.01,2013-01-13 14:48:00,
2013-01-13 08:49:00,48.7,44.4,29.97,NW,319,9.0,16.0,85,0.00,,---,0.00,VWS V14.01,2013-01-13 14:49:00,
2013-01-13 08:50:00,48.7,44.4,29.98,NNE,26,5.0,13.0,85,0.00,,---,0.00,VWS V14.01,2013-01-13 14:50:00,
2013-01-13 08:51:00,48.8,44.5,29.98,NW,323,9.0,14.0,85,0.00,,---,0.00,VWS V14.01,2013-01-13 14:51:00,
2013-01-13 08:52:00,48.8,44.5,29.97,NNW,331,17.0,18.0,85,0.00,,---,0.00,VWS V14.01,2013-01-13 14:52:00,
2013-01-13 08:53:00,48.8,44.2,29.98,NNW,337,13.0,19.0,84,0.00,,---,0.00,VWS V14.01,2013-01-13 14:53:00,
2013-01-13 08:54:00,48.8,44.2,29.98,North,360,9.0,17.0,84,0.00,,---,0.00,VWS V14.01,2013-01-13 14:54:00,
2013-01-13 08:55:00,48.8,44.2,29.98,NW,314,14.0,15.0,84,0.00,,---,0.00,VWS V14.01,2013-01-13 14:55:00,
2013-01-13 08:56:00,48.8,44.2,29.98,NNW,329,9.0,14.0,84,0.00,,---,0.00,VWS V14.01,2013-01-13 14:56:00,
2013-01-13 08:57:00,48.8,44.2,29.98,North,355,17.0,17.0,84,0.00,,---,0.00,VWS V14.01,2013-01-13 14:57:00,
2013-01-13 08:58:00,48.8,44.2,29.99,NW,326,7.0,17.0,84,0.00,,---,0.00,VWS V14.01,2013-01-13 14:58:00,
2013-01-13 08:59:00,48.9,44.3,29.99,NNW,339,14.0,21.0,84,0.00,,---,0.00,VWS V14.01,2013-01-13 14:59:00,
2013-01-13 09:00:00,48.9,44.3,29.99,NNW,328,13.0,19.0,84,0.00,,---,0.00,VWS V14.01,2013-01-13 15:00:00,
2013-01-13 09:01:00,48.9,44.3,29.99,NW,321,10.0,16.0,84,0.00,,---,0.00,VWS V14.01,2013-01-13 15:01:00,
2013-01-13 09:02:00,49.0,44.4,29.99,North,355,19.0,19.0,84,0.00,,---,0.00,VWS V14.01,2013-01-13 15:02:00,
2013-01-13 09:03:00,49.0,44.4,29.99,NNW,340,11.0,19.0,84,0.00,,---,0.00,VWS V14.01,2013-01-13 15:03:00,
2013-01-13 09:04:00,49.0,44.4,29.99,NNW,333,10.0,12.0,84,0.00,,---,0.00,VWS V14.01,2013-01-13 15:04:00,
2013-01-13 09:05:00,49.0,44.4,29.99,NNW,329,11.0,13.0,84,0.00,,---,0.00,VWS V14.01,2013-01-13 15:05:00,
2013-01-13 09:06:00,49.0,44.4,29.99,NW,317,17.0,22.0,84,0.00,,---,0.00,VWS V14.01,2013-01-13 15:06:00,
2013-01-13 09:07:00,49.1,44.5,29.99,North,5,11.0,17.0,84,0.00,,---,0.00,VWS V14.01,2013-01-13 15:07:00,
2013-01-13 09:08:00,49.1,44.5,30.00,NW,317,9.0,17.0,84,0.00,,---,0.00,VWS V14.01,2013-01-13 15:08:00,
2013-01-13 09:09:00,49.1,44.5,30.00,NNE,17,12.0,16.0,84,0.00,,---,0.00,VWS V14.01,2013-01-13 15:09:00,
2013-01-13 09:10:00,49.1,44.2,30.00,North,360,14.0,18.0,83,0.00,,---,0.00,VWS V14.01,2013-01-13 15:10:00,
2013-01-13 09:11:00,49.1,44.2,30.00,NNW,333,13.0,15.0,83,0.00,,---,0.00,VWS V14.01,2013-01-13 15:11:00,
2013-01-13 09:12:00,49.1,44.2,30.00,NW,321,14.0,17.0,83,0.00,,---,0.00,VWS V14.01,2013-01-13 15:12:00,
2013-01-13 09:13:00,49.1,44.2,30.00,NNW,331,10.0,14.0,83,0.00,,---,0.00,VWS V14.01,2013-01-13 15:13:00,
2013-01-13 09:14:00,49.1,44.2,30.00,North,350,10.0,14.0,83,0.00,,---,0.00,VWS V14.01,2013-01-13 15:14:00,
2013-01-13 09:15:00,49.2,44.3,30.00,North,355,2.0,14.0,83,0.00,,---,0.00,VWS V14.01,2013-01-13 15:15:00,
2013-01-13 09:16:00,49.2,44.3,30.00,North,355,9.0,14.0,83,0.00,,---,0.00,VWS V14.01,2013-01-13 15:16:00,
2013-01-13 09:17:00,49.2,44.3,30.00,NNW,341,9.0,14.0,83,0.00,,---,0.00,VWS V14.01,2013-01-13 15:17:00,
2013-01-13 09:18:00,49.2,44.3,30.00,NNW,333,4.0,13.0,83,0.00,,---,0.00,VWS V14.01,2013-01-13 15:18:00,
2013-01-13 09:19:00,49.2,44.3,30.00,NNW,330,11.0,13.0,83,0.00,,---,0.00,VWS V14.01,2013-01-13 15:19:00,
2013-01-13 09:20:00,49.2,44.3,30.00,North,360,11.0,11.0,83,0.00,,---,0.00,VWS V14.01,2013-01-13 15:20:00,
2013-01-13 09:21:00,49.3,44.4,30.00,NNW,336,3.0,13.0,83,0.00,,---,0.00,VWS V14.01,2013-01-13 15:21:00,
2013-01-13 09:22:00,49.3,44.4,30.00,NNW,337,11.0,15.0,83,0.00,,---,0.00,VWS V14.01,2013-01-13 15:22:00,
2013-01-13 09:23:00,49.3,44.4,30.00,NNW,330,13.0,18.0,83,0.00,,---,0.00,VWS V14.01,2013-01-13 15:23:00,
2013-01-13 09:24:00,49.3,44.0,30.01,NNW,338,4.0,15.0,82,0.00,,---,0.00,VWS V14.01,2013-01-13 15:24:00,
2013-01-13 09:25:00,49.4,44.1,30.01,NNW,337,9.0,18.0,82,0.00,,---,0.00,VWS V14.01,2013-01-13 15:25:00,
2013-01-13 09:26:00,49.3,44.0,30.01,NNW,327,11.0,15.0,82,0.00,,---,0.00,VWS V14.01,2013-01-13 15:26:00,
2013-01-13 09:27:00,49.4,44.1,30.01,NNW,333,9.0,14.0,82,0.00,,---,0.00,VWS V14.01,2013-01-13 15:27:00,
2013-01-13 09:28:00,49.4,44.1,30.01,NNW,346,11.0,16.0,82,0.00,,---,0.00,VWS V14.01,2013-01-13 15:28:00,
2013-01-13 09:29:00,49.4,44.1,30.01,NNW,329,6.0,14.0,82,0.00,,---,0.00,VWS V14.01,2013-01-13 15:29:00,
2013-01-13 09:30:00,49.4,44.1,30.01,North,350,0.0,13.0,82,0.00,,---,0.00,VWS V14.01,2013-01-13 15:30:00,
2013-01-13 09:31:00,49.4,44.1,30.01,NW,323,7.0,10.0,82,0.00,,---,0.00,VWS V14.01,2013-01-13 15:31:00,
2013-01-13 09:32:00,49.5,44.2,30.01,NNW,341,5.0,12.0,82,0.00,,---,0.00,VWS V14.01,2013-01-13 15:32:00,
2013-01-13 09:33:00,49.5,44.2,30.01,NNW,327,17.0,20.0,82,0.00,,---,0.00,VWS V14.01,2013-01-13 15:33:00,
2013-01-13 09:34:00,49.6,44.3,30.01,NNW,331,14.0,19.0,82,0.00,,---,0.00,VWS V14.01,2013-01-13 15:34:00,
2013-01-13 09:35:00,49.6,44.3,30.01,NNW,338,4.0,15.0,82,0.00,,---,0.00,VWS V14.01,2013-01-13 15:35:00,
2013-01-13 09:36:00,49.6,44.0,30.01,NNW,340,8.0,13.0,81,0.00,,---,0.00,VWS V14.01,2013-01-13 15:36:00,
2013-01-13 09:37:00,49.7,44.1,30.01,NNW,328,10.0,14.0,81,0.00,,---,0.00,VWS V14.01,2013-01-13 15:37:00,
2013-01-13 09:38:00,49.7,44.1,30.01,NW,317,10.0,17.0,81,0.00,,---,0.00,VWS V14.01,2013-01-13 15:38:00,
2013-01-13 09:39:00,49.7,44.1,30.01,North,355,11.0,15.0,81,0.00,,---,0.00,VWS V14.01,2013-01-13 15:39:00,
2013-01-13 09:40:00,49.8,44.2,30.01,NNW,344,12.0,14.0,81,0.00,,---,0.00,VWS V14.01,2013-01-13 15:40:00,
2013-01-13 09:41:00,49.9,44.3,30.01,NW,325,10.0,18.0,81,0.00,,---,0.00,VWS V14.01,2013-01-13 15:41:00,
2013-01-13 09:42:00,49.9,44.3,30.01,NW,324,7.0,19.0,81,0.00,,---,0.00,VWS V14.01,2013-01-13 15:42:00,
2013-01-13 09:43:00,49.9,44.3,30.01,NNW,343,6.0,14.0,81,0.00,,---,0.00,VWS V14.01,2013-01-13 15:43:00,
2013-01-13 09:44:00,50.0,44.4,30.01,NNW,336,6.0,10.0,81,0.00,,---,0.00,VWS V14.01,2013-01-13 15:44:00,
2013-01-13 09:45:00,50.1,44.5,30.01,NNW,331,7.0,14.0,81,0.00,,---,0.00,VWS V14.01,2013-01-13 15:45:00,
2013-01-13 09:46:00,50.1,44.5,30.02,NNW,338,10.0,15.0,81,0.00,,---,0.00,VWS V14.01,2013-01-13 15:46:00,
2013-01-13 09:47:00,50.1,44.5,30.02,North,5,5.0,12.0,81,0.00,,---,0.00,VWS V14.01,2013-01-13 15:47:00,
2013-01-13 09:48:00,50.2,44.6,30.02,North,349,16.0,17.0,81,0.00,,---,0.00,VWS V14.01,2013-01-13 15:48:00,
2013-01-13 09:49:00,50.2,44.6,30.01,North,349,12.0,16.0,81,0.00,,---,0.00,VWS V14.01,2013-01-13 15:49:00,
2013-01-13 09:50:00,50.2,44.6,30.01,NNW,342,5.0,16.0,81,0.00,,---,0.00,VWS V14.01,2013-01-13 15:50:00,
2013-01-13 09:51:00,50.3,44.7,30.01,NW,306,7.0,10.0,81,0.00,,---,0.00,VWS V14.01,2013-01-13 15:51:00,
2013-01-13 09:52:00,50.3,44.7,30.01,NNE,19,4.0,11.0,81,0.00,,---,0.00,VWS V14.01,2013-01-13 15:52:00,
2013-01-13 09:53:00,50.4,44.8,30.01,North,355,9.0,9.0,81,0.00,,---,0.00,VWS V14.01,2013-01-13 15:53:00,
2013-01-13 09:54:00,50.4,44.8,30.01,NNW,341,7.0,12.0,81,0.00,,---,0.00,VWS V14.01,2013-01-13 15:54:00,
2013-01-13 09:55:00,50.5,44.9,30.01,NNW,345,11.0,16.0,81,0.00,,---,0.00,VWS V14.01,2013-01-13 15:55:00,
2013-01-13 09:56:00,50.5,44.6,30.01,NNW,333,16.0,17.0,80,0.00,,---,0.00,VWS V14.01,2013-01-13 15:56:00,
2013-01-13 09:57:00,50.6,44.7,30.02,NW,321,11.0,16.0,80,0.00,,---,0.00,VWS V14.01,2013-01-13 15:57:00,
2013-01-13 09:58:00,50.6,44.7,30.02,NNW,336,14.0,17.0,80,0.00,,---,0.00,VWS V14.01,2013-01-13 15:58:00,
2013-01-13 09:59:00,50.6,44.7,30.02,NNW,337,11.0,14.0,80,0.00,,---,0.00,VWS V14.01,2013-01-13 15:59:00,
2013-01-13 10:00:00,50.6,44.7,30.02,NNW,344,5.0,17.0,80,0.00,,---,0.00,VWS V14.01,2013-01-13 16:00:00,
2013-01-13 10:01:00,50.6,44.7,30.02,North,360,3.0,9.0,80,0.00,,---,0.00,VWS V14.01,2013-01-13 16:01:00,
2013-01-13 10:02:00,50.7,44.8,30.02,North,355,4.0,10.0,80,0.00,,---,0.00,VWS V14.01,2013-01-13 16:02:00,
2013-01-13 10:03:00,50.7,44.8,30.02,North,5,4.0,5.0,80,0.00,,---,0.00,VWS V14.01,2013-01-13 16:03:00,
2013-01-13 10:04:00,50.7,44.8,30.02,NW,317,7.0,13.0,80,0.00,,---,0.00,VWS V14.01,2013-01-13 16:04:00,
2013-01-13 10:05:00,50.8,44.9,30.02,North,355,8.0,12.0,80,0.00,,---,0.00,VWS V14.01,2013-01-13 16:05:00,
2013-01-13 10:06:00,50.8,44.9,30.02,North,355,4.0,10.0,80,0.00,,---,0.00,VWS V14.01,2013-01-13 16:06:00,
2013-01-13 10:07:00,50.8,44.9,30.02,NNW,329,5.0,10.0,80,0.00,,---,0.00,VWS V14.01,2013-01-13 16:07:00,
2013-01-13 10:08:00,50.9,45.0,30.02,NNW,334,6.0,12.0,80,0.00,,---,0.00,VWS V14.01,2013-01-13 16:08:00,
2013-01-13 10:09:00,50.9,45.0,30.02,North,360,5.0,7.0,80,0.00,,---,0.00,VWS V14.01,2013-01-13 16:09:00,
2013-01-13 10:10:00,51.0,45.1,30.02,NNW,336,12.0,12.0,80,0.00,,---,0.00,VWS V14.01,2013-01-13 16:10:00,
2013-01-13 10:11:00,51.0,44.7,30.02,North,349,3.0,14.0,79,0.00,,---,0.00,VWS V14.01,2013-01-13 16:11:00,
2013-01-13 10:12:00,51.0,44.7,30.02,NNW,328,7.0,12.0,79,0.00,,---,0.00,VWS V14.01,2013-01-13 16:12:00,
2013-01-13 10:13:00,51.1,44.8,30.03,NNW,335,10.0,19.0,79,0.00,,---,0.00,VWS V14.01,2013-01-13 16:13:00,
2013-01-13 10:14:00,51.1,44.8,30.03,NNW,327,16.0,16.0,79,0.00,,---,0.00,VWS V14.01,2013-01-13 16:14:00,
2013-01-13 10:15:00,51.1,44.5,30.03,NW,325,18.0,18.0,78,0.00,,---,0.00,VWS V14.01,2013-01-13 16:15:00,
2013-01-13 10:16:00,51.1,44.8,30.03,North,5,13.0,19.0,79,0.00,,---,0.00,VWS V14.01,2013-01-13 16:16:00,
2013-01-13 10:17:00,51.1,44.5,30.03,North,5,6.0,15.0,78,0.00,,---,0.00,VWS V14.01,2013-01-13 16:17:00,
2013-01-13 10:18:00,51.1,44.5,30.03,NNW,335,9.0,13.0,78,0.00,,---,0.00,VWS V14.01,2013-01-13 16:18:00,
2013-01-13 10:19:00,51.1,44.5,30.03,NNW,342,12.0,18.0,78,0.00,,---,0.00,VWS V14.01,2013-01-13 16:19:00,
2013-01-13 10:20:00,51.2,44.6,30.03,NNW,327,19.0,19.0,78,0.00,,---,0.00,VWS V14.01,2013-01-13 16:20:00,
2013-01-13 10:21:00,51.1,44.5,30.03,NW,321,10.0,19.0,78,0.00,,---,0.00,VWS V14.01,2013-01-13 16:21:00,
2013-01-13 10:22:00,51.2,44.6,30.03,NNW,336,16.0,17.0,78,0.00,,---,0.00,VWS V14.01,2013-01-13 16:22:00,
2013-01-13 10:23:00,51.2,44.6,30.03,NNW,331,11.0,20.0,78,0.00,,---,0.00,VWS V14.01,2013-01-13 16:23:00,
2013-01-13 10:24:00,51.2,44.2,30.03,NW,325,15.0,15.0,77,0.00,,---,0.00,VWS V14.01,2013-01-13 16:24:00,
2013-01-13 10:25:00,51.2,44.2,30.03,North,9,12.0,17.0,77,0.00,,---,0.00,VWS V14.01,2013-01-13 16:25:00,
2013-01-13 10:26:00,51.2,44.2,30.03,NW,319,10.0,17.0,77,0.00,,---,0.00,VWS V14.01,2013-01-13 16:26:00,
2013-01-13 10:27:00,51.2,44.2,30.03,North,5,15.0,17.0,77,0.00,,---,0.00,VWS V14.01,2013-01-13 16:27:00,
2013-01-13 10:28:00,51.2,44.2,30.03,NW,324,15.0,19.0,77,0.00,,---,0.00,VWS V14.01,2013-01-13 16:28:00,
2013-01-13 10:29:00,51.2,44.2,30.03,NNW,330,7.0,15.0,77,0.00,,---,0.00,VWS V14.01,2013-01-13 16:29:00,
2013-01-13 10:30:00,51.3,44.3,30.03,North,360,17.0,22.0,77,0.00,,---,0.00,VWS V14.01,2013-01-13 16:30:00,
2013-01-13 10:31:00,51.3,44.3,30.03,NNW,346,9.0,17.0,77,0.00,,---,0.00,VWS V14.01,2013-01-13 16:31:00,
2013-01-13 10:32:00,51.3,44.3,30.03,North,350,10.0,13.0,77,0.00,,---,0.00,VWS V14.01,2013-01-13 16:32:00,
2013-01-13 10:33:00,51.4,44.4,30.03,NNW,338,11.0,14.0,77,0.00,,---,0.00,VWS V14.01,2013-01-13 16:33:00,
2013-01-13 10:34:00,51.4,44.4,30.02,NW,317,10.0,15.0,77,0.00,,---,0.00,VWS V14.01,2013-01-13 16:34:00,
2013-01-13 10:35:00,51.5,44.5,30.02,NNW,340,12.0,16.0,77,0.00,,---,0.00,VWS V14.01,2013-01-13 16:35:00,
2013-01-13 10:36:00,51.5,44.5,30.02,NNW,346,17.0,18.0,77,0.00,,---,0.00,VWS V14.01,2013-01-13 16:36:00,
2013-01-13 10:37:00,51.5,44.2,30.03,NNW,333,3.0,17.0,76,0.00,,---,0.00,VWS V14.01,2013-01-13 16:37:00,
2013-01-13 10:38:00,51.6,44.3,30.02,NNW,344,4.0,13.0,76,0.00,,---,0.00,VWS V14.01,2013-01-13 16:38:00,
2013-01-13 10:39:00,51.7,44.7,30.02,NW,317,5.0,10.0,77,0.00,,---,0.00,VWS V14.01,2013-01-13 16:39:00,
2013-01-13 10:40:00,51.7,44.7,30.02,NNW,346,4.0,13.0,77,0.00,,---,0.00,VWS V14.01,2013-01-13 16:40:00,
2013-01-13 10:41:00,51.8,44.8,30.03,NNW,336,10.0,10.0,77,0.00,,---,0.00,VWS V14.01,2013-01-13 16:41:00,
2013-01-13 10:42:00,51.8,44.8,30.02,NW,325,14.0,14.0,77,0.00,,---,0.00,VWS V14.01,2013-01-13 16:42:00,
2013-01-13 10:43:00,51.9,44.6,30.03,NW,319,4.0,14.0,76,0.00,,---,0.00,VWS V14.01,2013-01-13 16:43:00,
2013-01-13 10:44:00,51.9,44.6,30.03,North,349,6.0,10.0,76,0.00,,---,0.00,VWS V14.01,2013-01-13 16:44:00,
2013-01-13 10:45:00,52.0,44.7,30.03,NW,322,13.0,15.0,76,0.00,,---,0.00,VWS V14.01,2013-01-13 16:45:00,
2013-01-13 10:46:00,52.1,44.8,30.03,NW,321,16.0,17.0,76,0.00,,---,0.00,VWS V14.01,2013-01-13 16:46:00,
2013-01-13 10:47:00,52.1,44.8,30.03,NW,323,13.0,19.0,76,0.00,,---,0.00,VWS V14.01,2013-01-13 16:47:00,
2013-01-13 10:48:00,52.0,44.3,30.03,NW,325,14.0,21.0,75,0.00,,---,0.00,VWS V14.01,2013-01-13 16:48:00,
2013-01-13 10:49:00,52.0,44.3,30.03,NNW,331,15.0,19.0,75,0.00,,---,0.00,VWS V14.01,2013-01-13 16:49:00,
2013-01-13 10:50:00,51.9,44.2,30.03,NNW,327,14.0,19.0,75,0.00,,---,0.00,VWS V14.01,2013-01-13 16:50:00,
2013-01-13 10:51:00,51.9,44.2,30.03,NW,317,8.0,15.0,75,0.00,,---,0.00,VWS V14.01,2013-01-13 16:51:00,
2013-01-13 10:52:00,51.9,44.6,30.03,NNW,340,6.0,12.0,76,0.00,,---,0.00,VWS V14.01,2013-01-13 16:52:00,
2013-01-13 10:53:00,51.9,44.6,30.03,NNW,333,3.0,12.0,76,0.00,,---,0.00,VWS V14.01,2013-01-13 16:53:00,
2013-01-13 10:54:00,51.9,44.6,30.03,NNW,327,12.0,15.0,76,0.00,,---,0.00,VWS V14.01,2013-01-13 16:54:00,
2013-01-13 10:55:00,51.9,44.6,30.03,NNW,347,9.0,19.0,76,0.00,,---,0.00,VWS V14.01,2013-01-13 16:55:00,
2013-01-13 10:56:00,51.9,44.2,30.03,NNW,334,16.0,18.0,75,0.00,,---,0.00,VWS V14.01,2013-01-13 16:56:00,
2013-01-13 10:57:00,51.8,44.1,30.03,NNW,337,10.0,16.0,75,0.00,,---,0.00,VWS V14.01,2013-01-13 16:57:00,
2013-01-13 10:58:00,51.8,44.1,30.04,North,11,14.0,17.0,75,0.00,,---,0.00,VWS V14.01,2013-01-13 16:58:00,
2013-01-13 10:59:00,51.8,44.5,30.04,NW,320,14.0,16.0,76,0.00,,---,0.00,VWS V14.01,2013-01-13 16:59:00,
2013-01-13 11:00:00,51.7,44.0,30.04,North,360,7.0,18.0,75,0.00,,---,0.00,VWS V14.01,2013-01-13 17:00:00,
2013-01-13 11:01:00,51.7,44.0,30.04,NW,315,14.0,18.0,75,0.00,,---,0.00,VWS V14.01,2013-01-13 17:01:00,
2013-01-13 11:02:00,51.6,44.0,30.04,NNW,336,13.0,15.0,75,0.00,,---,0.00,VWS V14.01,2013-01-13 17:02:00,
2013-01-13 11:03:00,51.6,44.0,30.04,NW,308,5.0,19.0,75,0.00,,---,0.00,VWS V14.01,2013-01-13 17:03:00,
2013-01-13 11:04:00,51.6,44.0,30.04,NNW,344,16.0,18.0,75,0.00,,---,0.00,VWS V14.01,2013-01-13 17:04:00,
2013-01-13 11:05:00,51.6,44.0,30.04,NNW,334,6.0,14.0,75,0.00,,---,0.00,VWS V14.01,2013-01-13 17:05:00,
2013-01-13 11:06:00,51.6,44.0,30.04,NNW,334,13.0,15.0,75,0.00,,---,0.00,VWS V14.01,2013-01-13 17:06:00,
2013-01-13 11:07:00,51.5,43.8,30.04,NW,318,16.0,18.0,75,0.00,,---,0.00,VWS V14.01,2013-01-13 17:07:00,
2013-01-13 11:08:00,51.5,43.8,30.03,NNW,331,15.0,20.0,75,0.00,,---,0.00,VWS V14.01,2013-01-13 17:08:00,
2013-01-13 11:09:00,51.5,43.5,30.03,NNW,330,15.0,17.0,74,0.00,,---,0.00,VWS V14.01,2013-01-13 17:09:00,
2013-01-13 11:10:00,51.5,43.5,30.03,NNW,347,15.0,21.0,74,0.00,,---,0.00,VWS V14.01,2013-01-13 17:10:00,
2013-01-13 11:11:00,51.5,43.5,30.03,NW,323,7.0,15.0,74,0.00,,---,0.00,VWS V14.01,2013-01-13 17:11:00,
2013-01-13 11:12:00,51.5,43.8,30.03,NNW,343,5.0,13.0,75,0.00,,---,0.00,VWS V14.01,2013-01-13 17:12:00,
2013-01-13 11:13:00,51.6,44.0,30.03,NNW,329,15.0,15.0,75,0.00,,---,0.00,VWS V14.01,2013-01-13 17:13:00,
2013-01-13 11:14:00,51.6,44.0,30.03,NW,319,12.0,15.0,75,0.00,,---,0.00,VWS V14.01,2013-01-13 17:14:00,
2013-01-13 11:15:00,51.7,44.0,30.03,NW,319,10.0,17.0,75,0.00,,---,0.00,VWS V14.01,2013-01-13 17:15:00,
2013-01-13 11:16:00,51.7,44.0,30.03,NNW,332,6.0,15.0,75,0.00,,---,0.00,VWS V14.01,2013-01-13 17:16:00,
2013-01-13 11:17:00,51.7,44.0,30.03,NW,326,15.0,15.0,75,0.00,,---,0.00,VWS V14.01,2013-01-13 17:17:00,
2013-01-13 11:18:00,51.8,43.8,30.02,NNW,339,11.0,17.0,74,0.00,,---,0.00,VWS V14.01,2013-01-13 17:18:00,
2013-01-13 11:19:00,51.8,43.8,30.02,NW,315,9.0,12.0,74,0.00,,---,0.00,VWS V14.01,2013-01-13 17:19:00,
2013-01-13 11:20:00,51.8,44.1,30.02,NW,323,17.0,19.0,75,0.00,,---,0.00,VWS V14.01,2013-01-13 17:20:00,
2013-01-13 11:21:00,51.8,43.8,30.02,NNW,341,11.0,19.0,74,0.00,,---,0.00,VWS V14.01,2013-01-13 17:21:00,
2013-01-13 11:22:00,51.9,43.9,30.02,NW,319,15.0,15.0,74,0.00,,---,0.00,VWS V14.01,2013-01-13 17:22:00,
2013-01-13 11:23:00,51.9,43.9,30.02,NW,324,13.0,20.0,74,0.00,,---,0.00,VWS V14.01,2013-01-13 17:23:00,
2013-01-13 11:24:00,51.9,43.9,30.02,NNW,331,19.0,23.0,74,0.00,,---,0.00,VWS V14.01,2013-01-13 17:24:00,
2013-01-13 11:25:00,51.9,43.9,30.02,NW,313,16.0,16.0,74,0.00,,---,0.00,VWS V14.01,2013-01-13 17:25:00,
2013-01-13 11:26:00,51.9,43.9,30.03,NW,322,17.0,18.0,74,0.00,,---,0.00,VWS V14.01,2013-01-13 17:26:00,
2013-01-13 11:27:00,51.9,43.9,30.03,NW,318,12.0,21.0,74,0.00,,---,0.00,VWS V14.01,2013-01-13 17:27:00,
2013-01-13 11:28:00,51.9,43.9,30.03,NNW,331,15.0,16.0,74,0.00,,---,0.00,VWS V14.01,2013-01-13 17:28:00,
2013-01-13 11:29:00,51.9,43.9,30.03,NW,314,12.0,15.0,74,0.00,,---,0.00,VWS V14.01,2013-01-13 17:29:00,
2013-01-13 11:30:00,51.9,43.5,30.03,NNW,332,15.0,20.0,73,0.00,,---,0.00,VWS V14.01,2013-01-13 17:30:00,
2013-01-13 11:31:00,51.9,43.5,30.03,NW,322,14.0,17.0,73,0.00,,---,0.00,VWS V14.01,2013-01-13 17:31:00,
2013-01-13 11:32:00,51.9,43.5,30.03,NW,316,20.0,21.0,73,0.00,,---,0.00,VWS V14.01,2013-01-13 17:32:00,
2013-01-13 11:33:00,51.9,43.5,30.03,NNW,346,14.0,21.0,73,0.00,,---,0.00,VWS V14.01,2013-01-13 17:33:00,
2013-01-13 11:34:00,51.9,43.5,30.03,NNW,330,11.0,16.0,73,0.00,,---,0.00,VWS V14.01,2013-01-13 17:34:00,
2013-01-13 11:35:00,51.9,43.5,30.03,NW,320,20.0,20.0,73,0.00,,---,0.00,VWS V14.01,2013-01-13 17:35:00,
2013-01-13 11:36:00,51.9,43.5,30.03,NNW,336,10.0,20.0,73,0.00,,---,0.00,VWS V14.01,2013-01-13 17:36:00,
2013-01-13 11:37:00,51.9,43.5,30.03,NW,321,14.0,21.0,73,0.00,,---,0.00,VWS V14.01,2013-01-13 17:37:00,
2013-01-13 11:38:00,51.9,43.5,30.03,NW,320,10.0,17.0,73,0.00,,---,0.00,VWS V14.01,2013-01-13 17:38:00,
2013-01-13 11:39:00,51.9,43.5,30.02,NNW,329,9.0,14.0,73,0.00,,---,0.00,VWS V14.01,2013-01-13 17:39:00,
2013-01-13 11:40:00,51.9,43.5,30.03,NNW,329,6.0,17.0,73,0.00,,---,0.00,VWS V14.01,2013-01-13 17:40:00,
2013-01-13 11:41:00,52.0,43.6,30.03,NW,323,14.0,17.0,73,0.00,,---,0.00,VWS V14.01,2013-01-13 17:41:00,
2013-01-13 11:42:00,52.0,43.6,30.03,NNW,331,13.0,18.0,73,0.00,,---,0.00,VWS V14.01,2013-01-13 17:42:00,
2013-01-13 11:43:00,52.1,43.7,30.03,NNW,331,11.0,14.0,73,0.00,,---,0.00,VWS V14.01,2013-01-13 17:43:00,
2013-01-13 11:44:00,52.1,43.7,30.03,North,351,16.0,22.0,73,0.00,,---,0.00,VWS V14.01,2013-01-13 17:44:00,
2013-01-13 11:45:00,52.1,43.4,30.03,NNW,343,8.0,14.0,72,0.00,,---,0.00,VWS V14.01,2013-01-13 17:45:00,
2013-01-13 11:46:00,52.1,43.4,30.03,NNW,331,13.0,16.0,72,0.00,,---,0.00,VWS V14.01,2013-01-13 17:46:00,
2013-01-13 11:47:00,52.2,43.5,30.02,NW,322,10.0,15.0,72,0.00,,---,0.00,VWS V14.01,2013-01-13 17:47:00,
2013-01-13 11:48:00,52.2,43.5,30.02,North,350,14.0,17.0,72,0.00,,---,0.00,VWS V14.01,2013-01-13 17:48:00,
2013-01-13 11:49:00,52.2,43.5,30.02,NNW,342,15.0,15.0,72,0.00,,---,0.00,VWS V14.01,2013-01-13 17:49:00,
2013-01-13 11:50:00,52.3,43.5,30.03,North,360,5.0,14.0,72,0.00,,---,0.00,VWS V14.01,2013-01-13 17:50:00,
2013-01-13 11:51:00,52.3,43.5,30.02,NNW,329,7.0,17.0,72,0.00,,---,0.00,VWS V14.01,2013-01-13 17:51:00,
2013-01-13 11:52:00,52.4,43.7,30.02,NNW,331,18.0,21.0,72,0.00,,---,0.00,VWS V14.01,2013-01-13 17:52:00,
2013-01-13 11:53:00,52.4,43.7,30.02,NNW,333,8.0,18.0,72,0.00,,---,0.00,VWS V14.01,2013-01-13 17:53:00,
2013-01-13 11:54:00,52.5,43.8,30.02,NW,315,9.0,12.0,72,0.00,,---,0.00,VWS V14.01,2013-01-13 17:54:00,
2013-01-13 11:55:00,52.5,43.8,30.02,NNW,337,14.0,18.0,72,0.00,,---,0.00,VWS V14.01,2013-01-13 17:55:00,
2013-01-13 11:56:00,52.6,43.8,30.02,WNW,292,12.0,14.0,72,0.00,,---,0.00,VWS V14.01,2013-01-13 17:56:00,
2013-01-13 11:57:00,52.6,43.8,30.02,NNW,342,15.0,15.0,72,0.00,,---,0.00,VWS V14.01,2013-01-13 17:57:00,
2013-01-13 11:58:00,52.6,43.8,30.02,NNW,327,13.0,18.0,72,0.00,,---,0.00,VWS V14.01,2013-01-13 17:58:00,
2013-01-13 11:59:00,52.6,43.8,30.02,NNW,332,11.0,14.0,72,0.00,,---,0.00,VWS V14.01,2013-01-13 17:59:00,
2013-01-13 12:00:00,52.7,43.6,30.02,NW,323,13.0,14.0,71,0.00,,---,0.00,VWS V14.01,2013-01-13 18:00:00,
2013-01-13 12:01:00,52.7,43.6,30.02,NW,317,14.0,19.0,71,0.00,,---,0.00,VWS V14.01,2013-01-13 18:01:00,
2013-01-13 12:02:00,52.7,43.6,30.02,NW,314,14.0,21.0,71,0.00,,---,0.00,VWS V14.01,2013-01-13 18:02:00,
2013-01-13 12:03:00,52.8,43.7,30.02,NW,324,14.0,18.0,71,0.00,,---,0.00,VWS V14.01,2013-01-13 18:03:00,
2013-01-13 12:04:00,52.8,43.7,30.02,NNW,332,16.0,18.0,71,0.00,,---,0.00,VWS V14.01,2013-01-13 18:04:00,
2013-01-13 12:05:00,52.8,43.7,30.02,NNW,344,4.0,13.0,71,0.00,,---,0.00,VWS V14.01,2013-01-13 18:05:00,
2013-01-13 12:06:00,52.8,43.7,30.02,NNW,338,7.0,11.0,71,0.00,,---,0.00,VWS V14.01,2013-01-13 18:06:00,
2013-01-13 12:07:00,52.9,43.8,30.02,NNW,331,12.0,13.0,71,0.00,,---,0.00,VWS V14.01,2013-01-13 18:07:00,
2013-01-13 12:08:00,52.9,43.8,30.02,NW,322,4.0,12.0,71,0.00,,---,0.00,VWS V14.01,2013-01-13 18:08:00,
2013-01-13 12:09:00,53.0,44.2,30.02,NW,317,10.0,13.0,72,0.00,,---,0.00,VWS V14.01,2013-01-13 18:09:00,
2013-01-13 12:10:00,53.0,44.2,30.01,North,350,5.0,6.0,72,0.00,,---,0.00,VWS V14.01,2013-01-13 18:10:00,
2013-01-13 12:11:00,53.1,44.3,30.01,NNE,13,9.0,15.0,72,0.00,,---,0.00,VWS V14.01,2013-01-13 18:11:00,
2013-01-13 12:12:00,53.1,44.0,30.01,NNW,333,5.0,15.0,71,0.00,,---,0.00,VWS V14.01,2013-01-13 18:12:00,
2013-01-13 12:13:00,53.2,44.0,30.01,North,360,12.0,12.0,71,0.00,,---,0.00,VWS V14.01,2013-01-13 18:13:00,
2013-01-13 12:14:00,53.2,44.0,30.00,NNW,345,12.0,12.0,71,0.00,,---,0.00,VWS V14.01,2013-01-13 18:14:00,
2013-01-13 12:15:00,53.3,44.2,30.01,NNW,336,5.0,14.0,71,0.00,,---,0.00,VWS V14.01,2013-01-13 18:15:00,
2013-01-13 12:16:00,53.3,44.2,30.01,NNW,333,12.0,15.0,71,0.00,,---,0.00,VWS V14.01,2013-01-13 18:16:00,
2013-01-13 12:17:00,53.4,44.2,30.00,NW,323,9.0,14.0,71,0.00,,---,0.00,VWS V14.01,2013-01-13 18:17:00,
2013-01-13 12:18:00,53.5,44.3,30.00,North,355,2.0,10.0,71,0.00,,---,0.00,VWS V14.01,2013-01-13 18:18:00,
2013-01-13 12:19:00,53.5,44.3,30.01,NNW,330,10.0,11.0,71,0.00,,---,0.00,VWS V14.01,2013-01-13 18:19:00,
2013-01-13 12:20:00,53.6,44.1,30.00,North,349,19.0,19.0,70,0.00,,---,0.00,VWS V14.01,2013-01-13 18:20:00,
2013-01-13 12:21:00,53.7,44.2,30.01,NNW,335,12.0,22.0,70,0.00,,---,0.00,VWS V14.01,2013-01-13 18:21:00,
2013-01-13 12:22:00,53.7,43.8,30.01,NNW,327,14.0,15.0,69,0.00,,---,0.00,VWS V14.01,2013-01-13 18:22:00,
2013-01-13 12:23:00,53.7,43.8,30.01,NNW,336,11.0,17.0,69,0.00,,---,0.00,VWS V14.01,2013-01-13 18:23:00,
2013-01-13 12:24:00,53.7,43.8,30.01,NW,325,9.0,12.0,69,0.00,,---,0.00,VWS V14.01,2013-01-13 18:24:00,
2013-01-13 12:25:00,53.8,43.9,30.01,NNW,328,12.0,18.0,69,0.00,,---,0.00,VWS V14.01,2013-01-13 18:25:00,
2013-01-13 12:26:00,53.9,44.0,30.00,NW,309,8.0,12.0,69,0.00,,---,0.00,VWS V14.01,2013-01-13 18:26:00,
2013-01-13 12:27:00,53.9,44.0,30.01,NNW,330,16.0,17.0,69,0.00,,---,0.00,VWS V14.01,2013-01-13 18:27:00,
2013-01-13 12:28:00,53.9,44.0,30.01,NNW,338,14.0,16.0,69,0.00,,---,0.00,VWS V14.01,2013-01-13 18:28:00,
2013-01-13 12:29:00,53.9,44.0,30.01,North,355,9.0,14.0,69,0.00,,---,0.00,VWS V14.01,2013-01-13 18:29:00,
2013-01-13 12:30:00,54.0,44.1,30.01,NNE,13,5.0,13.0,69,0.00,,---,0.00,VWS V14.01,2013-01-13 18:30:00,
2013-01-13 12:31:00,54.0,44.1,30.00,NNW,341,2.0,12.0,69,0.00,,---,0.00,VWS V14.01,2013-01-13 18:31:00,
2013-01-13 12:32:00,54.0,44.1,30.00,North,350,7.0,10.0,69,0.00,,---,0.00,VWS V14.01,2013-01-13 18:32:00,
2013-01-13 12:33:00,54.0,44.1,30.00,NNW,341,10.0,14.0,69,0.00,,---,0.00,VWS V14.01,2013-01-13 18:33:00,
2013-01-13 12:34:00,54.1,44.2,30.00,NW,322,17.0,17.0,69,0.00,,---,0.00,VWS V14.01,2013-01-13 18:34:00,
2013-01-13 12:35:00,54.1,44.2,30.00,NNW,337,11.0,19.0,69,0.00,,---,0.00,VWS V14.01,2013-01-13 18:35:00,
2013-01-13 12:36:00,54.1,44.2,30.00,NW,318,16.0,16.0,69,0.00,,---,0.00,VWS V14.01,2013-01-13 18:36:00,
2013-01-13 12:37:00,54.1,44.2,30.00,NNW,338,13.0,16.0,69,0.00,,---,0.00,VWS V14.01,2013-01-13 18:37:00,
2013-01-13 12:38:00,54.1,44.2,29.99,North,355,11.0,14.0,69,0.00,,---,0.00,VWS V14.01,2013-01-13 18:38:00,
2013-01-13 12:39:00,54.2,44.3,30.00,North,349,9.0,12.0,69,0.00,,---,0.00,VWS V14.01,2013-01-13 18:39:00,
2013-01-13 12:40:00,54.2,44.3,30.00,NNW,329,10.0,15.0,69,0.00,,---,0.00,VWS V14.01,2013-01-13 18:40:00,
2013-01-13 12:41:00,54.2,44.3,30.00,NW,317,10.0,17.0,69,0.00,,---,0.00,VWS V14.01,2013-01-13 18:41:00,
2013-01-13 12:42:00,54.2,44.3,30.00,NW,311,11.0,16.0,69,0.00,,---,0.00,VWS V14.01,2013-01-13 18:42:00,
2013-01-13 12:43:00,54.2,44.3,30.00,NW,318,20.0,20.0,69,0.00,,---,0.00,VWS V14.01,2013-01-13 18:43:00,
2013-01-13 12:44:00,54.2,43.9,30.00,NNW,330,13.0,20.0,68,0.00,,---,0.00,VWS V14.01,2013-01-13 18:44:00,
2013-01-13 12:45:00,54.2,43.9,30.00,NNW,338,11.0,17.0,68,0.00,,---,0.00,VWS V14.01,2013-01-13 18:45:00,
2013-01-13 12:46:00,54.3,44.0,30.00,NNW,333,8.0,19.0,68,0.00,,---,0.00,VWS V14.01,2013-01-13 18:46:00,
2013-01-13 12:47:00,54.2,43.9,30.00,NW,308,9.0,18.0,68,0.00,,---,0.00,VWS V14.01,2013-01-13 18:47:00,
2013-01-13 12:48:00,54.3,44.0,30.00,NW,323,18.0,18.0,68,0.00,,---,0.00,VWS V14.01,2013-01-13 18:48:00,
2013-01-13 12:49:00,54.3,44.0,30.00,NW,315,21.0,21.0,68,0.00,,---,0.00,VWS V14.01,2013-01-13 18:49:00,
2013-01-13 12:50:00,54.2,43.9,30.00,NNW,330,13.0,20.0,68,0.00,,---,0.00,VWS V14.01,2013-01-13 18:50:00,
2013-01-13 12:51:00,54.2,43.5,30.00,NW,317,16.0,20.0,67,0.00,,---,0.00,VWS V14.01,2013-01-13 18:51:00,
2013-01-13 12:52:00,54.2,43.5,30.00,NW,314,13.0,20.0,67,0.00,,---,0.00,VWS V14.01,2013-01-13 18:52:00,
2013-01-13 12:53:00,54.2,43.5,30.00,NNW,338,13.0,19.0,67,0.00,,---,0.00,VWS V14.01,2013-01-13 18:53:00,
2013-01-13 12:54:00,54.2,43.5,30.00,NW,319,15.0,16.0,67,0.00,,---,0.00,VWS V14.01,2013-01-13 18:54:00,
2013-01-13 12:55:00,54.1,43.4,30.00,NW,325,13.0,18.0,67,0.00,,---,0.00,VWS V14.01,2013-01-13 18:55:00,
2013-01-13 12:56:00,54.2,43.5,30.00,NNW,334,11.0,15.0,67,0.00,,---,0.00,VWS V14.01,2013-01-13 18:56:00,
2013-01-13 12:57:00,54.1,43.4,30.00,NNW,329,15.0,19.0,67,0.00,,---,0.00,VWS V14.01,2013-01-13 18:57:00,
2013-01-13 12:58:00,54.2,43.5,30.00,North,360,12.0,18.0,67,0.00,,---,0.00,VWS V14.01,2013-01-13 18:58:00,
2013-01-13 12:59:00,54.2,43.5,30.00,NNW,343,17.0,17.0,67,0.00,,---,0.00,VWS V14.01,2013-01-13 18:59:00,
2013-01-13 13:00:00,54.2,43.5,30.00,NNW,347,7.0,15.0,67,0.00,,---,0.00,VWS V14.01,2013-01-13 19:00:00,
2013-01-13 13:01:00,54.2,43.5,30.00,NW,311,15.0,15.0,67,0.00,,---,0.00,VWS V14.01,2013-01-13 19:01:00,
2013-01-13 13:02:00,54.3,44.0,30.00,NNW,336,15.0,15.0,68,0.00,,---,0.00,VWS V14.01,2013-01-13 19:02:00,
2013-01-13 13:03:00,54.3,43.6,30.00,NW,326,11.0,15.0,67,0.00,,---,0.00,VWS V14.01,2013-01-13 19:03:00,
2013-01-13 13:04:00,54.4,43.7,30.00,NNW,327,9.0,12.0,67,0.00,,---,0.00,VWS V14.01,2013-01-13 19:04:00,
2013-01-13 13:05:00,54.5,43.8,30.00,NNW,329,6.0,14.0,67,0.00,,---,0.00,VWS V14.01,2013-01-13 19:05:00,
2013-01-13 13:06:00,54.5,43.8,30.00,NNW,328,13.0,16.0,67,0.00,,---,0.00,VWS V14.01,2013-01-13 19:06:00,
2013-01-13 13:07:00,54.6,43.9,30.00,NNE,19,7.0,17.0,67,0.00,,---,0.00,VWS V14.01,2013-01-13 19:07:00,
2013-01-13 13:08:00,54.6,43.9,30.00,NNW,338,6.0,10.0,67,0.00,,---,0.00,VWS V14.01,2013-01-13 19:08:00,
2013-01-13 13:09:00,54.6,43.9,30.00,NNW,327,12.0,15.0,67,0.00,,---,0.00,VWS V14.01,2013-01-13 19:09:00,
2013-01-13 13:10:00,54.7,43.6,30.00,NNW,336,9.0,15.0,66,0.00,,---,0.00,VWS V14.01,2013-01-13 19:10:00,
2013-01-13 13:11:00,54.7,43.6,29.99,NNW,329,13.0,18.0,66,0.00,,---,0.00,VWS V14.01,2013-01-13 19:11:00,
2013-01-13 13:12:00,54.8,43.3,29.99,NNW,346,19.0,19.0,65,0.00,,---,0.00,VWS V14.01,2013-01-13 19:12:00,
2013-01-13 13:13:00,54.8,43.3,29.99,North,360,6.0,19.0,65,0.00,,---,0.00,VWS V14.01,2013-01-13 19:13:00,
2013-01-13 13:14:00,54.8,43.3,29.99,NNW,344,14.0,14.0,65,0.00,,---,0.00,VWS V14.01,2013-01-13 19:14:00,
2013-01-13 13:15:00,54.8,43.3,29.99,NNW,343,12.0,15.0,65,0.00,,---,0.00,VWS V14.01,2013-01-13 19:15:00,
2013-01-13 13:16:00,54.8,43.3,30.00,NNE,17,10.0,17.0,65,0.00,,---,0.00,VWS V14.01,2013-01-13 19:16:00,
2013-01-13 13:17:00,54.8,43.3,30.00,NW,325,13.0,14.0,65,0.00,,---,0.00,VWS V14.01,2013-01-13 19:17:00,
2013-01-13 13:18:00,54.9,43.4,30.00,NNW,328,9.0,13.0,65,0.00,,---,0.00,VWS V14.01,2013-01-13 19:18:00,
2013-01-13 13:19:00,54.9,43.4,30.00,North,355,6.0,9.0,65,0.00,,---,0.00,VWS V14.01,2013-01-13 19:19:00,
2013-01-13 13:20:00,54.9,43.4,29.99,NNW,331,12.0,19.0,65,0.00,,---,0.00,VWS V14.01,2013-01-13 19:20:00,
2013-01-13 13:21:00,54.9,43.4,29.99,NNW,340,14.0,14.0,65,0.00,,---,0.00,VWS V14.01,2013-01-13 19:21:00,
2013-01-13 13:22:00,55.0,43.5,29.99,NW,315,11.0,14.0,65,0.00,,---,0.00,VWS V14.01,2013-01-13 19:22:00,
2013-01-13 13:23:00,55.0,43.5,29.99,NNW,336,7.0,13.0,65,0.00,,---,0.00,VWS V14.01,2013-01-13 19:23:00,
2013-01-13 13:24:00,55.0,43.5,29.99,North,355,11.0,11.0,65,0.00,,---,0.00,VWS V14.01,2013-01-13 19:24:00,
2013-01-13 13:25:00,55.1,43.6,29.99,NNW,336,14.0,14.0,65,0.00,,---,0.00,VWS V14.01,2013-01-13 19:25:00,
2013-01-13 13:26:00,55.1,43.6,29.99,WNW,297,12.0,19.0,65,0.00,,---,0.00,VWS V14.01,2013-01-13 19:26:00,
2013-01-13 13:27:00,55.1,43.2,29.99,NNE,13,10.0,16.0,64,0.00,,---,0.00,VWS V14.01,2013-01-13 19:27:00,
2013-01-13 13:28:00,55.1,43.2,29.99,North,349,6.0,11.0,64,0.00,,---,0.00,VWS V14.01,2013-01-13 19:28:00,
2013-01-13 13:29:00,55.1,43.2,29.99,NW,319,16.0,16.0,64,0.00,,---,0.00,VWS V14.01,2013-01-13 19:29:00,
2013-01-13 13:30:00,55.2,43.2,29.99,NNW,336,9.0,18.0,64,0.00,,---,0.00,VWS V14.01,2013-01-13 19:30:00,
2013-01-13 13:31:00,55.3,43.3,29.99,NNW,337,17.0,17.0,64,0.00,,---,0.00,VWS V14.01,2013-01-13 19:31:00,
2013-01-13 13:32:00,55.3,43.3,29.99,NNW,346,7.0,17.0,64,0.00,,---,0.00,VWS V14.01,2013-01-13 19:32:00,
2013-01-13 13:33:00,55.3,43.3,29.98,NNW,330,10.0,14.0,64,0.00,,---,0.00,VWS V14.01,2013-01-13 19:33:00,
2013-01-13 13:34:00,55.3,43.3,29.99,NNW,344,12.0,12.0,64,0.00,,---,0.00,VWS V14.01,2013-01-13 19:34:00,
2013-01-13 13:35:00,55.5,43.5,29.99,NNW,332,13.0,15.0,64,0.00,,---,0.00,VWS V14.01,2013-01-13 19:35:00,
2013-01-13 13:36:00,55.5,43.5,29.99,North,350,5.0,16.0,64,0.00,,---,0.00,VWS V14.01,2013-01-13 19:36:00,
2013-01-13 13:37:00,55.6,43.6,29.99,NNE,17,11.0,11.0,64,0.00,,---,0.00,VWS V14.01,2013-01-13 19:37:00,
2013-01-13 13:38:00,55.6,43.6,29.99,NW,307,7.0,13.0,64,0.00,,---,0.00,VWS V14.01,2013-01-13 19:38:00,
2013-01-13 13:39:00,55.6,43.6,29.99,North,360,4.0,7.0,64,0.00,,---,0.00,VWS V14.01,2013-01-13 19:39:00,
2013-01-13 13:40:00,55.7,43.7,29.99,North,5,13.0,14.0,64,0.00,,---,0.00,VWS V14.01,2013-01-13 19:40:00,
2013-01-13 13:41:00,55.7,43.7,29.99,NNW,336,9.0,13.0,64,0.00,,---,0.00,VWS V14.01,2013-01-13 19:41:00,
2013-01-13 13:42:00,55.8,43.8,29.99,NNW,333,15.0,16.0,64,0.00,,---,0.00,VWS V14.01,2013-01-13 19:42:00,
2013-01-13 13:43:00,55.8,43.8,29.99,NNW,329,9.0,16.0,64,0.00,,---,0.00,VWS V14.01,2013-01-13 19:43:00,
2013-01-13 13:44:00,55.8,43.8,29.99,NNW,327,13.0,13.0,64,0.00,,---,0.00,VWS V14.01,2013-01-13 19:44:00,
2013-01-13 13:45:00,55.9,43.5,29.99,NNW,340,10.0,14.0,63,0.00,,---,0.00,VWS V14.01,2013-01-13 19:45:00,
2013-01-13 13:46:00,55.9,43.5,29.99,NNW,331,10.0,14.0,63,0.00,,---,0.00,VWS V14.01,2013-01-13 19:46:00,
2013-01-13 13:47:00,56.0,43.6,30.00,NNW,336,6.0,12.0,63,0.00,,---,0.00,VWS V14.01,2013-01-13 19:47:00,
2013-01-13 13:48:00,56.0,43.6,30.00,NNW,327,7.0,11.0,63,0.00,,---,0.00,VWS V14.01,2013-01-13 19:48:00,
2013-01-13 13:49:00,56.0,43.6,30.00,NNW,340,14.0,14.0,63,0.00,,---,0.00,VWS V14.01,2013-01-13 19:49:00,
2013-01-13 13:50:00,56.1,43.7,30.00,North,350,12.0,13.0,63,0.00,,---,0.00,VWS V14.01,2013-01-13 19:50:00,
2013-01-13 13:51:00,56.1,43.7,30.00,NNW,329,5.0,12.0,63,0.00,,---,0.00,VWS V14.01,2013-01-13 19:51:00,
2013-01-13 13:52:00,56.2,43.8,29.99,North,10,9.0,14.0,63,0.00,,---,0.00,VWS V14.01,2013-01-13 19:52:00,
2013-01-13 13:53:00,56.2,43.8,29.99,NW,325,5.0,12.0,63,0.00,,---,0.00,VWS V14.01,2013-01-13 19:53:00,
2013-01-13 13:54:00,56.2,43.8,29.98,NNW,333,14.0,15.0,63,0.00,,---,0.00,VWS V14.01,2013-01-13 19:54:00,
2013-01-13 13:55:00,56.3,43.5,29.98,NNW,327,15.0,15.0,62,0.00,,---,0.00,VWS V14.01,2013-01-13 19:55:00,
2013-01-13 13:56:00,56.3,43.5,29.98,NNW,329,9.0,16.0,62,0.00,,---,0.00,VWS V14.01,2013-01-13 19:56:00,
2013-01-13 13:57:00,56.3,43.5,29.98,NNW,330,15.0,19.0,62,0.00,,---,0.00,VWS V14.01,2013-01-13 19:57:00,
2013-01-13 13:58:00,56.3,43.5,29.99,NNW,337,11.0,17.0,62,0.00,,---,0.00,VWS V14.01,2013-01-13 19:58:00,
2013-01-13 13:59:00,56.3,43.5,29.98,North,349,12.0,12.0,62,0.00,,---,0.00,VWS V14.01,2013-01-13 19:59:00,
2013-01-13 14:00:00,56.4,43.6,29.98,NNW,340,7.0,14.0,62,0.00,,---,0.00,VWS V14.01,2013-01-13 20:00:00,
2013-01-13 14:01:00,56.4,43.6,29.98,North,355,5.0,16.0,62,0.00,,---,0.00,VWS V14.01,2013-01-13 20:01:00,
2013-01-13 14:02:00,56.5,44.1,29.98,North,360,7.0,9.0,63,0.00,,---,0.00,VWS V14.01,2013-01-13 20:02:00,
2013-01-13 14:03:00,56.5,44.1,29.98,NNW,333,14.0,14.0,63,0.00,,---,0.00,VWS V14.01,2013-01-13 20:03:00,
2013-01-13 14:04:00,56.5,44.1,29.99,NW,325,13.0,14.0,63,0.00,,---,0.00,VWS V14.01,2013-01-13 20:04:00,
2013-01-13 14:05:00,56.6,43.8,29.99,NW,322,8.0,13.0,62,0.00,,---,0.00,VWS V14.01,2013-01-13 20:05:00,
2013-01-13 14:06:00,56.7,43.8,29.99,NW,324,5.0,16.0,62,0.00,,---,0.00,VWS V14.01,2013-01-13 20:06:00,
2013-01-13 14:07:00,56.8,43.9,29.99,NNW,342,8.0,15.0,62,0.00,,---,0.00,VWS V14.01,2013-01-13 20:07:00,
2013-01-13 14:08:00,56.8,43.9,29.99,NW,325,3.0,10.0,62,0.00,,---,0.00,VWS V14.01,2013-01-13 20:08:00,
2013-01-13 14:09:00,56.8,43.9,29.99,WNW,300,6.0,6.0,62,0.00,,---,0.00,VWS V14.01,2013-01-13 20:09:00,
2013-01-13 14:10:00,56.9,44.0,29.99,NNW,340,14.0,15.0,62,0.00,,---,0.00,VWS V14.01,2013-01-13 20:10:00,
2013-01-13 14:11:00,57.0,43.7,29.99,NNW,332,9.0,14.0,61,0.00,,---,0.00,VWS V14.01,2013-01-13 20:11:00,
2013-01-13 14:12:00,57.1,43.8,29.99,North,360,14.0,14.0,61,0.00,,---,0.00,VWS V14.01,2013-01-13 20:12:00,
2013-01-13 14:13:00,57.1,43.8,29.99,North,355,7.0,16.0,61,0.00,,---,0.00,VWS V14.01,2013-01-13 20:13:00,
2013-01-13 14:14:00,57.1,43.8,29.99,North,360,9.0,9.0,61,0.00,,---,0.00,VWS V14.01,2013-01-13 20:14:00,
2013-01-13 14:15:00,57.1,43.8,29.99,NNW,346,12.0,13.0,61,0.00,,---,0.00,VWS V14.01,2013-01-13 20:15:00,
2013-01-13 14:16:00,57.2,43.9,29.99,NNW,340,9.0,13.0,61,0.00,,---,0.00,VWS V14.01,2013-01-13 20:16:00,
2013-01-13 14:17:00,57.2,43.9,30.00,NNW,337,5.0,13.0,61,0.00,,---,0.00,VWS V14.01,2013-01-13 20:17:00,
2013-01-13 14:18:00,57.2,43.9,30.00,NW,325,15.0,15.0,61,0.00,,---,0.00,VWS V14.01,2013-01-13 20:18:00,
2013-01-13 14:19:00,57.2,43.9,30.00,NW,322,11.0,15.0,61,0.00,,---,0.00,VWS V14.01,2013-01-13 20:19:00,
2013-01-13 14:20:00,57.2,43.9,29.99,NW,325,12.0,14.0,61,0.00,,---,0.00,VWS V14.01,2013-01-13 20:20:00,
2013-01-13 14:21:00,57.3,44.0,29.99,NW,320,12.0,14.0,61,0.00,,---,0.00,VWS V14.01,2013-01-13 20:21:00,
2013-01-13 14:22:00,57.3,44.0,29.99,NW,323,12.0,14.0,61,0.00,,---,0.00,VWS V14.01,2013-01-13 20:22:00,
2013-01-13 14:23:00,57.3,43.5,29.98,NNW,340,14.0,16.0,60,0.00,,---,0.00,VWS V14.01,2013-01-13 20:23:00,
2013-01-13 14:24:00,57.3,43.5,29.98,NNW,340,9.0,14.0,60,0.00,,---,0.00,VWS V14.01,2013-01-13 20:24:00,
2013-01-13 14:25:00,57.3,43.5,29.99,North,9,5.0,13.0,60,0.00,,---,0.00,VWS V14.01,2013-01-13 20:25:00,
2013-01-13 14:26:00,57.3,43.1,29.99,NNW,336,13.0,16.0,59,0.00,,---,0.00,VWS V14.01,2013-01-13 20:26:00,
2013-01-13 14:27:00,57.3,43.1,29.99,NNW,331,7.0,15.0,59,0.00,,---,0.00,VWS V14.01,2013-01-13 20:27:00,
2013-01-13 14:28:00,57.3,43.1,29.99,NNW,334,2.0,4.0,59,0.00,,---,0.00,VWS V14.01,2013-01-13 20:28:00,
2013-01-13 14:29:00,57.2,43.0,29.99,NNW,341,10.0,16.0,59,0.00,,---,0.00,VWS V14.01,2013-01-13 20:29:00,
2013-01-13 14:30:00,57.2,43.0,29.99,NW,324,11.0,13.0,59,0.00,,---,0.00,VWS V14.01,2013-01-13 20:30:00,
2013-01-13 14:31:00,57.2,43.0,29.99,NW,313,14.0,16.0,59,0.00,,---,0.00,VWS V14.01,2013-01-13 20:31:00,
2013-01-13 14:32:00,57.2,43.0,29.99,North,349,10.0,14.0,59,0.00,,---,0.00,VWS V14.01,2013-01-13 20:32:00,
2013-01-13 14:33:00,57.2,43.0,29.99,NNW,330,7.0,7.0,59,0.00,,---,0.00,VWS V14.01,2013-01-13 20:33:00,
2013-01-13 14:34:00,57.1,42.9,29.99,North,10,11.0,17.0,59,0.00,,---,0.00,VWS V14.01,2013-01-13 20:34:00,
2013-01-13 14:35:00,57.1,42.9,29.99,NW,313,4.0,14.0,59,0.00,,---,0.00,VWS V14.01,2013-01-13 20:35:00,
2013-01-13 14:36:00,57.1,42.9,29.99,NNE,15,7.0,14.0,59,0.00,,---,0.00,VWS V14.01,2013-01-13 20:36:00,
2013-01-13 14:37:00,57.1,42.9,29.99,NNW,347,10.0,12.0,59,0.00,,---,0.00,VWS V14.01,2013-01-13 20:37:00,
2013-01-13 14:38:00,57.1,42.9,29.99,NNW,342,6.0,6.0,59,0.00,,---,0.00,VWS V14.01,2013-01-13 20:38:00,
2013-01-13 14:39:00,57.1,42.9,29.99,NNW,332,11.0,17.0,59,0.00,,---,0.00,VWS V14.01,2013-01-13 20:39:00,
2013-01-13 14:40:00,57.1,42.9,29.99,NNW,329,10.0,16.0,59,0.00,,---,0.00,VWS V14.01,2013-01-13 20:40:00,
2013-01-13 14:41:00,57.1,42.9,29.99,NNW,329,10.0,13.0,59,0.00,,---,0.00,VWS V14.01,2013-01-13 20:41:00,
2013-01-13 14:42:00,57.1,42.9,29.99,North,9,7.0,15.0,59,0.00,,---,0.00,VWS V14.01,2013-01-13 20:42:00,
2013-01-13 14:43:00,57.1,42.9,29.99,North,355,9.0,12.0,59,0.00,,---,0.00,VWS V14.01,2013-01-13 20:43:00,
2013-01-13 14:44:00,57.2,43.0,29.99,NW,326,14.0,16.0,59,0.00,,---,0.00,VWS V14.01,2013-01-13 20:44:00,
2013-01-13 14:45:00,57.2,42.6,29.99,NNE,13,9.0,14.0,58,0.00,,---,0.00,VWS V14.01,2013-01-13 20:45:00,
2013-01-13 14:46:00,57.2,42.6,29.99,NNW,330,6.0,11.0,58,0.00,,---,0.00,VWS V14.01,2013-01-13 20:46:00,
2013-01-13 14:47:00,57.2,43.0,29.99,North,355,5.0,12.0,59,0.00,,---,0.00,VWS V14.01,2013-01-13 20:47:00,
2013-01-13 14:48:00,57.2,43.0,29.99,NNW,333,5.0,5.0,59,0.00,,---,0.00,VWS V14.01,2013-01-13 20:48:00,
2013-01-13 14:49:00,57.3,43.1,29.99,North,360,7.0,12.0,59,0.00,,---,0.00,VWS V14.01,2013-01-13 20:49:00,
2013-01-13 14:50:00,57.4,43.2,29.99,NNW,340,12.0,12.0,59,0.00,,---,0.00,VWS V14.01,2013-01-13 20:50:00,
2013-01-13 14:51:00,57.4,43.2,29.99,North,360,5.0,12.0,59,0.00,,---,0.00,VWS V14.01,2013-01-13 20:51:00,
2013-01-13 14:52:00,57.5,43.3,29.99,NW,326,10.0,14.0,59,0.00,,---,0.00,VWS V14.01,2013-01-13 20:52:00,
2013-01-13 14:53:00,57.5,42.8,29.99,North,360,9.0,9.0,58,0.00,,---,0.00,VWS V14.01,2013-01-13 20:53:00,
2013-01-13 14:54:00,57.5,42.8,29.99,NNW,327,11.0,15.0,58,0.00,,---,0.00,VWS V14.01,2013-01-13 20:54:00,
2013-01-13 14:55:00,57.5,42.8,29.99,NNW,340,9.0,15.0,58,0.00,,---,0.00,VWS V14.01,2013-01-13 20:55:00,
2013-01-13 14:56:00,57.5,42.8,29.99,NNW,337,4.0,14.0,58,0.00,,---,0.00,VWS V14.01,2013-01-13 20:56:00,
2013-01-13 14:57:00,57.5,42.8,29.99,NNW,329,9.0,12.0,58,0.00,,---,0.00,VWS V14.01,2013-01-13 20:57:00,
2013-01-13 14:58:00,57.5,42.8,29.99,NNW,333,8.0,9.0,58,0.00,,---,0.00,VWS V14.01,2013-01-13 20:58:00,
2013-01-13 14:59:00,57.5,42.8,29.99,NW,321,6.0,11.0,58,0.00,,---,0.00,VWS V14.01,2013-01-13 20:59:00,
2013-01-13 15:00:00,57.5,42.8,29.99,North,355,9.0,10.0,58,0.00,,---,0.00,VWS V14.01,2013-01-13 21:00:00,
2013-01-13 15:01:00,57.6,43.0,29.99,NNW,331,14.0,14.0,58,0.00,,---,0.00,VWS V14.01,2013-01-13 21:01:00,
2013-01-13 15:02:00,57.6,43.0,29.99,NNW,342,7.0,14.0,58,0.00,,---,0.00,VWS V14.01,2013-01-13 21:02:00,
2013-01-13 15:03:00,57.6,43.0,29.99,NNW,343,11.0,11.0,58,0.00,,---,0.00,VWS V14.01,2013-01-13 21:03:00,
2013-01-13 15:04:00,57.6,43.0,29.99,NNW,340,14.0,16.0,58,0.00,,---,0.00,VWS V14.01,2013-01-13 21:04:00,
2013-01-13 15:05:00,57.6,43.0,29.99,NNW,336,15.0,16.0,58,0.00,,---,0.00,VWS V14.01,2013-01-13 21:05:00,
2013-01-13 15:06:00,57.6,42.5,29.99,NNW,336,13.0,15.0,57,0.00,,---,0.00,VWS V14.01,2013-01-13 21:06:00,
2013-01-13 15:07:00,57.6,42.5,29.99,NNW,338,10.0,14.0,57,0.00,,---,0.00,VWS V14.01,2013-01-13 21:07:00,
2013-01-13 15:08:00,57.6,42.5,30.00,NNW,347,8.0,14.0,57,0.00,,---,0.00,VWS V14.01,2013-01-13 21:08:00,
2013-01-13 15:09:00,57.6,42.5,30.00,NNW,337,6.0,17.0,57,0.00,,---,0.00,VWS V14.01,2013-01-13 21:09:00,
2013-01-13 15:10:00,57.6,42.0,30.00,NNW,333,4.0,11.0,56,0.00,,---,0.00,VWS V14.01,2013-01-13 21:10:00,
2013-01-13 15:11:00,57.6,42.0,30.00,NNW,333,8.0,10.0,56,0.00,,---,0.00,VWS V14.01,2013-01-13 21:11:00,
2013-01-13 15:12:00,57.6,42.0,30.00,NW,325,16.0,18.0,56,0.00,,---,0.00,VWS V14.01,2013-01-13 21:12:00,
2013-01-13 15:13:00,57.6,42.0,30.00,North,9,4.0,16.0,56,0.00,,---,0.00,VWS V14.01,2013-01-13 21:13:00,
2013-01-13 15:14:00,57.6,42.0,29.99,North,351,8.0,15.0,56,0.00,,---,0.00,VWS V14.01,2013-01-13 21:14:00,
2013-01-13 15:15:00,57.6,42.0,29.99,North,5,4.0,13.0,56,0.00,,---,0.00,VWS V14.01,2013-01-13 21:15:00,
2013-01-13 15:16:00,57.6,42.0,29.99,North,11,10.0,14.0,56,0.00,,---,0.00,VWS V14.01,2013-01-13 21:16:00,
2013-01-13 15:17:00,57.6,41.6,29.99,North,355,10.0,13.0,55,0.00,,---,0.00,VWS V14.01,2013-01-13 21:17:00,
2013-01-13 15:18:00,57.6,41.6,30.00,NNE,15,3.0,15.0,55,0.00,,---,0.00,VWS V14.01,2013-01-13 21:18:00,
2013-01-13 15:19:00,57.6,42.0,30.00,NNW,339,4.0,8.0,56,0.00,,---,0.00,VWS V14.01,2013-01-13 21:19:00,
2013-01-13 15:20:00,57.6,42.0,30.00,North,5,4.0,11.0,56,0.00,,---,0.00,VWS V14.01,2013-01-13 21:20:00,
2013-01-13 15:21:00,57.6,42.0,30.00,NNW,337,5.0,6.0,56,0.00,,---,0.00,VWS V14.01,2013-01-13 21:21:00,
2013-01-13 15:22:00,57.6,42.0,30.00,NNW,340,10.0,10.0,56,0.00,,---,0.00,VWS V14.01,2013-01-13 21:22:00,
2013-01-13 15:23:00,57.7,42.1,30.00,NNE,12,6.0,13.0,56,0.00,,---,0.00,VWS V14.01,2013-01-13 21:23:00,
2013-01-13 15:24:00,57.7,41.7,29.99,North,349,9.0,15.0,55,0.00,,---,0.00,VWS V14.01,2013-01-13 21:24:00,
2013-01-13 15:25:00,57.7,41.7,29.99,NNE,15,15.0,15.0,55,0.00,,---,0.00,VWS V14.01,2013-01-13 21:25:00,
2013-01-13 15:26:00,57.7,41.2,29.99,North,5,11.0,15.0,54,0.00,,---,0.00,VWS V14.01,2013-01-13 21:26:00,
2013-01-13 15:27:00,57.6,40.6,29.99,NNE,13,7.0,13.0,53,0.00,,---,0.00,VWS V14.01,2013-01-13 21:27:00,
2013-01-13 15:28:00,57.6,41.1,29.99,North,351,9.0,13.0,54,0.00,,---,0.00,VWS V14.01,2013-01-13 21:28:00,
2013-01-13 15:29:00,57.6,40.6,29.99,North,355,7.0,16.0,53,0.00,,---,0.00,VWS V14.01,2013-01-13 21:29:00,
2013-01-13 15:30:00,57.5,40.5,29.99,NNW,329,6.0,12.0,53,0.00,,---,0.00,VWS V14.01,2013-01-13 21:30:00,
2013-01-13 15:31:00,57.5,40.5,29.99,North,360,10.0,14.0,53,0.00,,---,0.00,VWS V14.01,2013-01-13 21:31:00,
2013-01-13 15:32:00,57.5,40.5,29.99,ENE,57,12.0,13.0,53,0.00,,---,0.00,VWS V14.01,2013-01-13 21:32:00,
2013-01-13 15:33:00,57.4,40.4,29.99,NNE,14,10.0,12.0,53,0.00,,---,0.00,VWS V14.01,2013-01-13 21:33:00,
2013-01-13 15:34:00,57.4,40.9,29.99,North,5,1.0,10.0,54,0.00,,---,0.00,VWS V14.01,2013-01-13 21:34:00,
2013-01-13 15:35:00,57.4,40.9,29.99,NNW,348,2.0,7.0,54,0.00,,---,0.00,VWS V14.01,2013-01-13 21:35:00,
2013-01-13 15:36:00,57.4,41.4,29.99,NNW,338,6.0,9.0,55,0.00,,---,0.00,VWS V14.01,2013-01-13 21:36:00,
2013-01-13 15:37:00,57.4,41.4,29.99,NNW,347,9.0,12.0,55,0.00,,---,0.00,VWS V14.01,2013-01-13 21:37:00,
2013-01-13 15:38:00,57.4,41.4,29.99,North,360,6.0,11.0,55,0.00,,---,0.00,VWS V14.01,2013-01-13 21:38:00,
2013-01-13 15:39:00,57.5,41.5,29.99,NW,318,13.0,13.0,55,0.00,,---,0.00,VWS V14.01,2013-01-13 21:39:00,
2013-01-13 15:40:00,57.5,41.5,29.99,North,360,7.0,13.0,55,0.00,,---,0.00,VWS V14.01,2013-01-13 21:40:00,
2013-01-13 15:41:00,57.5,41.5,29.98,North,350,6.0,12.0,55,0.00,,---,0.00,VWS V14.01,2013-01-13 21:41:00,
2013-01-13 15:42:00,57.5,41.5,29.99,North,355,5.0,12.0,55,0.00,,---,0.00,VWS V14.01,2013-01-13 21:42:00,
2013-01-13 15:43:00,57.5,41.5,29.99,NNW,336,10.0,13.0,55,0.00,,---,0.00,VWS V14.01,2013-01-13 21:43:00,
2013-01-13 15:44:00,57.6,41.6,29.99,NNW,327,16.0,17.0,55,0.00,,---,0.00,VWS V14.01,2013-01-13 21:44:00,
2013-01-13 15:45:00,57.6,41.1,29.99,NNW,340,7.0,16.0,54,0.00,,---,0.00,VWS V14.01,2013-01-13 21:45:00,
2013-01-13 15:46:00,57.6,41.1,29.99,NNW,338,8.0,10.0,54,0.00,,---,0.00,VWS V14.01,2013-01-13 21:46:00,
2013-01-13 15:47:00,57.5,41.0,29.99,North,350,7.0,18.0,54,0.00,,---,0.00,VWS V14.01,2013-01-13 21:47:00,
2013-01-13 15:48:00,57.5,41.0,29.99,North,9,17.0,17.0,54,0.00,,---,0.00,VWS V14.01,2013-01-13 21:48:00,
2013-01-13 15:49:00,57.5,41.0,30.00,North,349,15.0,15.0,54,0.00,,---,0.00,VWS V14.01,2013-01-13 21:49:00,
2013-01-13 15:50:00,57.5,40.5,30.00,NNW,329,10.0,15.0,53,0.00,,---,0.00,VWS V14.01,2013-01-13 21:50:00,
2013-01-13 15:51:00,57.5,41.0,30.00,North,5,5.0,10.0,54,0.00,,---,0.00,VWS V14.01,2013-01-13 21:51:00,
2013-01-13 15:52:00,57.5,41.0,30.00,North,360,5.0,9.0,54,0.00,,---,0.00,VWS V14.01,2013-01-13 21:52:00,
2013-01-13 15:53:00,57.5,41.0,30.00,North,350,4.0,10.0,54,0.00,,---,0.00,VWS V14.01,2013-01-13 21:53:00,
2013-01-13 15:54:00,57.5,41.0,30.00,North,360,10.0,10.0,54,0.00,,---,0.00,VWS V14.01,2013-01-13 21:54:00,
2013-01-13 15:55:00,57.5,41.0,30.01,NNW,340,7.0,12.0,54,0.00,,---,0.00,VWS V14.01,2013-01-13 21:55:00,
2013-01-13 15:56:00,57.5,41.0,30.01,North,5,9.0,10.0,54,0.00,,---,0.00,VWS V14.01,2013-01-13 21:56:00,
2013-01-13 15:57:00,57.5,41.0,30.01,North,5,8.0,11.0,54,0.00,,---,0.00,VWS V14.01,2013-01-13 21:57:00,
2013-01-13 15:58:00,57.5,41.0,30.01,NNW,330,11.0,11.0,54,0.00,,---,0.00,VWS V14.01,2013-01-13 21:58:00,
2013-01-13 15:59:00,57.4,40.9,30.00,NNE,17,6.0,10.0,54,0.00,,---,0.00,VWS V14.01,2013-01-13 21:59:00,
2013-01-13 16:00:00,57.4,40.9,30.00,North,360,6.0,10.0,54,0.00,,---,0.00,VWS V14.01,2013-01-13 22:00:00,
2013-01-13 16:01:00,57.5,41.0,30.00,NNE,15,6.0,9.0,54,0.00,,---,0.00,VWS V14.01,2013-01-13 22:01:00,
2013-01-13 16:02:00,57.5,41.0,30.00,NW,318,5.0,10.0,54,0.00,,---,0.00,VWS V14.01,2013-01-13 22:02:00,
2013-01-13 16:03:00,57.5,41.5,30.00,NNW,340,7.0,11.0,55,0.00,,---,0.00,VWS V14.01,2013-01-13 22:03:00,
2013-01-13 16:04:00,57.5,41.5,30.00,NNW,340,8.0,12.0,55,0.00,,---,0.00,VWS V14.01,2013-01-13 22:04:00,
2013-01-13 16:05:00,57.5,41.0,30.00,NNW,348,10.0,11.0,54,0.00,,---,0.00,VWS V14.01,2013-01-13 22:05:00,
2013-01-13 16:06:00,57.5,41.5,30.00,North,360,6.0,12.0,55,0.00,,---,0.00,VWS V14.01,2013-01-13 22:06:00,
2013-01-13 16:07:00,57.5,41.0,30.00,NNW,333,10.0,12.0,54,0.00,,---,0.00,VWS V14.01,2013-01-13 22:07:00,
2013-01-13 16:08:00,57.5,41.0,30.00,NW,323,9.0,10.0,54,0.00,,---,0.00,VWS V14.01,2013-01-13 22:08:00,
2013-01-13 16:09:00,57.5,41.0,30.00,NNW,339,11.0,14.0,54,0.00,,---,0.00,VWS V14.01,2013-01-13 22:09:00,
2013-01-13 16:10:00,57.5,41.0,30.00,NNW,338,12.0,15.0,54,0.00,,---,0.00,VWS V14.01,2013-01-13 22:10:00,
2013-01-13 16:11:00,57.5,41.0,30.00,NNW,333,5.0,12.0,54,0.00,,---,0.00,VWS V14.01,2013-01-13 22:11:00,
2013-01-13 16:12:00,57.5,41.0,30.00,NNW,338,7.0,12.0,54,0.00,,---,0.00,VWS V14.01,2013-01-13 22:12:00,
2013-01-13 16:13:00,57.5,41.0,30.00,North,349,5.0,8.0,54,0.00,,---,0.00,VWS V14.01,2013-01-13 22:13:00,
2013-01-13 16:14:00,57.5,41.5,30.00,NNW,345,4.0,13.0,55,0.00,,---,0.00,VWS V14.01,2013-01-13 22:14:00,
2013-01-13 16:15:00,57.5,41.0,29.99,NNW,341,7.0,10.0,54,0.00,,---,0.00,VWS V14.01,2013-01-13 22:15:00,
2013-01-13 16:16:00,57.5,41.0,29.99,NNW,342,5.0,14.0,54,0.00,,---,0.00,VWS V14.01,2013-01-13 22:16:00,
2013-01-13 16:17:00,57.5,41.0,29.99,North,355,3.0,12.0,54,0.00,,---,0.00,VWS V14.01,2013-01-13 22:17:00,
2013-01-13 16:18:00,57.5,41.0,30.00,NNW,336,10.0,11.0,54,0.00,,---,0.00,VWS V14.01,2013-01-13 22:18:00,
2013-01-13 16:19:00,57.5,41.0,30.00,NNE,16,6.0,10.0,54,0.00,,---,0.00,VWS V14.01,2013-01-13 22:19:00,
2013-01-13 16:20:00,57.5,41.5,30.00,NNW,342,5.0,8.0,55,0.00,,---,0.00,VWS V14.01,2013-01-13 22:20:00,
2013-01-13 16:21:00,57.5,41.5,30.00,North,9,5.0,10.0,55,0.00,,---,0.00,VWS V14.01,2013-01-13 22:21:00,
2013-01-13 16:22:00,57.5,41.5,30.00,NNW,344,3.0,5.0,55,0.00,,---,0.00,VWS V14.01,2013-01-13 22:22:00,
2013-01-13 16:23:00,57.5,41.5,30.00,North,360,0.0,5.0,55,0.00,,---,0.00,VWS V14.01,2013-01-13 22:23:00,
2013-01-13 16:24:00,57.5,41.5,30.00,North,355,3.0,5.0,55,0.00,,---,0.00,VWS V14.01,2013-01-13 22:24:00,
2013-01-13 16:25:00,57.5,41.5,30.00,NNW,348,9.0,9.0,55,0.00,,---,0.00,VWS V14.01,2013-01-13 22:25:00,
2013-01-13 16:26:00,57.5,41.5,30.00,NNW,333,5.0,13.0,55,0.00,,---,0.00,VWS V14.01,2013-01-13 22:26:00,
2013-01-13 16:27:00,57.5,41.0,30.00,NNW,336,4.0,9.0,54,0.00,,---,0.00,VWS V14.01,2013-01-13 22:27:00,
2013-01-13 16:28:00,57.5,41.0,30.00,North,360,7.0,10.0,54,0.00,,---,0.00,VWS V14.01,2013-01-13 22:28:00,
2013-01-13 16:29:00,57.5,41.0,30.01,North,9,6.0,13.0,54,0.00,,---,0.00,VWS V14.01,2013-01-13 22:29:00,
2013-01-13 16:30:00,57.6,41.1,30.01,North,355,6.0,9.0,54,0.00,,---,0.00,VWS V14.01,2013-01-13 22:30:00,
2013-01-13 16:31:00,57.6,41.6,30.01,North,349,3.0,11.0,55,0.00,,---,0.00,VWS V14.01,2013-01-13 22:31:00,
2013-01-13 16:32:00,57.6,41.1,30.01,NNW,327,10.0,14.0,54,0.00,,---,0.00,VWS V14.01,2013-01-13 22:32:00,
2013-01-13 16:33:00,57.6,41.1,30.01,NNW,333,6.0,13.0,54,0.00,,---,0.00,VWS V14.01,2013-01-13 22:33:00,
2013-01-13 16:34:00,57.6,41.1,30.01,North,349,5.0,11.0,54,0.00,,---,0.00,VWS V14.01,2013-01-13 22:34:00,
2013-01-13 16:35:00,57.6,41.1,30.01,NNW,346,6.0,11.0,54,0.00,,---,0.00,VWS V14.01,2013-01-13 22:35:00,
2013-01-13 16:37:00,57.6,41.1,30.00,NNW,332,9.0,12.0,54,0.00,,---,0.00,VWS V14.01,2013-01-13 22:37:00,
2013-01-13 16:38:00,57.6,41.1,30.00,NNW,334,5.0,9.0,54,0.00,,---,0.00,VWS V14.01,2013-01-13 22:38:00,
2013-01-13 16:42:00,57.5,41.0,30.00,NNW,333,10.0,12.0,54,0.00,,---,0.00,VWS V14.01,2013-01-13 22:42:00,
2013-01-13 16:43:00,57.5,41.5,30.00,NNW,336,6.0,10.0,55,0.00,,---,0.00,VWS V14.01,2013-01-13 22:43:00,
2013-01-13 16:44:00,57.5,41.5,30.00,NNW,336,13.0,13.0,55,0.00,,---,0.00,VWS V14.01,2013-01-13 22:44:00,
2013-01-13 16:45:00,57.5,41.0,30.01,NNW,343,4.0,14.0,54,0.00,,---,0.00,VWS V14.01,2013-01-13 22:45:00,
2013-01-13 16:46:00,57.4,40.9,30.00,NNW,341,6.0,12.0,54,0.00,,---,0.00,VWS V14.01,2013-01-13 22:46:00,
2013-01-13 16:47:00,57.4,40.9,30.00,North,5,5.0,6.0,54,0.00,,---,0.00,VWS V14.01,2013-01-13 22:47:00,
2013-01-13 16:48:00,57.4,40.9,30.00,NNW,348,4.0,6.0,54,0.00,,---,0.00,VWS V14.01,2013-01-13 22:48:00,
2013-01-13 16:49:00,57.3,40.8,30.00,North,5,6.0,9.0,54,0.00,,---,0.00,VWS V14.01,2013-01-13 22:49:00,
2013-01-13 16:50:00,57.3,40.8,30.00,NNW,329,10.0,12.0,54,0.00,,---,0.00,VWS V14.01,2013-01-13 22:50:00,
2013-01-13 16:51:00,57.3,40.3,30.00,NNW,338,3.0,13.0,53,0.00,,---,0.00,VWS V14.01,2013-01-13 22:51:00,
2013-01-13 16:52:00,57.2,40.7,30.01,NNW,346,5.0,6.0,54,0.00,,---,0.00,VWS V14.01,2013-01-13 22:52:00,
2013-01-13 16:53:00,57.2,40.7,30.01,NNW,347,11.0,11.0,54,0.00,,---,0.00,VWS V14.01,2013-01-13 22:53:00,
2013-01-13 16:54:00,57.2,40.7,30.01,NNW,344,7.0,13.0,54,0.00,,---,0.00,VWS V14.01,2013-01-13 22:54:00,
2013-01-13 16:55:00,57.2,40.7,30.01,North,350,5.0,10.0,54,0.00,,---,0.00,VWS V14.01,2013-01-13 22:55:00,
2013-01-13 16:56:00,57.1,40.6,30.01,NNW,338,4.0,11.0,54,0.00,,---,0.00,VWS V14.01,2013-01-13 22:56:00,
2013-01-13 16:57:00,57.1,40.6,30.01,NW,326,3.0,8.0,54,0.00,,---,0.00,VWS V14.01,2013-01-13 22:57:00,
2013-01-13 16:58:00,57.1,40.6,30.01,NNW,328,6.0,7.0,54,0.00,,---,0.00,VWS V14.01,2013-01-13 22:58:00,
2013-01-13 16:59:00,57.1,40.6,30.01,NNW,341,8.0,11.0,54,0.00,,---,0.00,VWS V14.01,2013-01-13 22:59:00,
2013-01-13 17:00:00,57.0,41.0,30.01,NW,321,3.0,10.0,55,0.00,,---,0.00,VWS V14.01,2013-01-13 23:00:00,
2013-01-13 17:01:00,57.0,40.5,30.01,NW,325,11.0,11.0,54,0.00,,---,0.00,VWS V14.01,2013-01-13 23:01:00,
2013-01-13 17:02:00,57.0,41.0,30.02,NNW,337,10.0,12.0,55,0.00,,---,0.00,VWS V14.01,2013-01-13 23:02:00,
2013-01-13 17:03:00,56.9,40.9,30.02,NW,314,6.0,10.0,55,0.00,,---,0.00,VWS V14.01,2013-01-13 23:03:00,
2013-01-13 17:04:00,56.9,40.9,30.02,NNW,348,7.0,11.0,55,0.00,,---,0.00,VWS V14.01,2013-01-13 23:04:00,
2013-01-13 17:05:00,56.9,40.4,30.01,North,9,11.0,11.0,54,0.00,,---,0.00,VWS V14.01,2013-01-13 23:05:00,
2013-01-13 17:06:00,56.9,40.4,30.01,NNW,335,6.0,13.0,54,0.00,,---,0.00,VWS V14.01,2013-01-13 23:06:00,
2013-01-13 17:07:00,56.9,40.4,30.01,North,9,6.0,7.0,54,0.00,,---,0.00,VWS V14.01,2013-01-13 23:07:00,
2013-01-13 17:08:00,56.8,40.8,30.01,NNW,338,5.0,8.0,55,0.00,,---,0.00,VWS V14.01,2013-01-13 23:08:00,
2013-01-13 17:09:00,56.8,40.8,30.01,North,355,12.0,12.0,55,0.00,,---,0.00,VWS V14.01,2013-01-13 23:09:00,
2013-01-13 17:10:00,56.8,40.8,30.01,NNW,331,9.0,12.0,55,0.00,,---,0.00,VWS V14.01,2013-01-13 23:10:00,
2013-01-13 17:11:00,56.8,40.8,30.02,NNW,330,10.0,13.0,55,0.00,,---,0.00,VWS V14.01,2013-01-13 23:11:00,
2013-01-13 17:12:00,56.8,40.3,30.02,NNW,342,5.0,11.0,54,0.00,,---,0.00,VWS V14.01,2013-01-13 23:12:00,
2013-01-13 17:13:00,56.8,40.3,30.02,NNW,341,10.0,13.0,54,0.00,,---,0.00,VWS V14.01,2013-01-13 23:13:00,
2013-01-13 17:14:00,56.7,40.3,30.02,NNW,334,4.0,11.0,54,0.00,,---,0.00,VWS V14.01,2013-01-13 23:14:00,
2013-01-13 17:15:00,56.7,40.3,30.02,NNW,335,9.0,12.0,54,0.00,,---,0.00,VWS V14.01,2013-01-13 23:15:00,
2013-01-13 17:16:00,56.7,40.3,30.02,North,360,4.0,10.0,54,0.00,,---,0.00,VWS V14.01,2013-01-13 23:16:00,
2013-01-13 17:17:00,56.6,40.2,30.02,NNE,18,4.0,6.0,54,0.00,,---,0.00,VWS V14.01,2013-01-13 23:17:00,
2013-01-13 17:18:00,56.7,40.3,30.02,NW,323,4.0,9.0,54,0.00,,---,0.00,VWS V14.01,2013-01-13 23:18:00,
2013-01-13 17:19:00,56.6,40.6,30.02,NNW,340,6.0,10.0,55,0.00,,---,0.00,VWS V14.01,2013-01-13 23:19:00,
2013-01-13 17:20:00,56.6,40.6,30.01,North,360,9.0,13.0,55,0.00,,---,0.00,VWS V14.01,2013-01-13 23:20:00,
2013-01-13 17:21:00,56.6,40.2,30.01,NNW,343,6.0,9.0,54,0.00,,---,0.00,VWS V14.01,2013-01-13 23:21:00,
2013-01-13 17:22:00,56.6,40.2,30.01,North,9,11.0,11.0,54,0.00,,---,0.00,VWS V14.01,2013-01-13 23:22:00,
2013-01-13 17:23:00,56.5,40.1,30.01,NNW,344,6.0,11.0,54,0.00,,---,0.00,VWS V14.01,2013-01-13 23:23:00,
2013-01-13 17:24:00,56.5,40.1,30.01,NNW,330,10.0,13.0,54,0.00,,---,0.00,VWS V14.01,2013-01-13 23:24:00,
2013-01-13 17:25:00,56.5,40.1,30.01,NNW,333,6.0,11.0,54,0.00,,---,0.00,VWS V14.01,2013-01-13 23:25:00,
2013-01-13 17:26:00,56.5,40.1,30.01,NNE,19,7.0,11.0,54,0.00,,---,0.00,VWS V14.01,2013-01-13 23:26:00,
2013-01-13 17:27:00,56.4,40.0,30.01,North,5,3.0,10.0,54,0.00,,---,0.00,VWS V14.01,2013-01-13 23:27:00,
2013-01-13 17:28:00,56.4,40.0,30.01,North,355,2.0,7.0,54,0.00,,---,0.00,VWS V14.01,2013-01-13 23:28:00,
2013-01-13 17:29:00,56.4,40.0,30.01,North,349,2.0,5.0,54,0.00,,---,0.00,VWS V14.01,2013-01-13 23:29:00,
2013-01-13 17:30:00,56.4,40.5,30.01,North,351,2.0,6.0,55,0.00,,---,0.00,VWS V14.01,2013-01-13 23:30:00,
2013-01-13 17:31:00,56.4,40.5,30.01,NNW,348,7.0,7.0,55,0.00,,---,0.00,VWS V14.01,2013-01-13 23:31:00,
2013-01-13 17:32:00,56.3,40.4,30.01,North,5,3.0,10.0,55,0.00,,---,0.00,VWS V14.01,2013-01-13 23:32:00,
2013-01-13 17:33:00,56.3,40.4,30.01,NNE,18,5.0,6.0,55,0.00,,---,0.00,VWS V14.01,2013-01-13 23:33:00,
2013-01-13 17:34:00,56.3,40.4,30.01,North,5,4.0,6.0,55,0.00,,---,0.00,VWS V14.01,2013-01-13 23:34:00,
2013-01-13 17:35:00,56.2,40.3,30.01,North,355,3.0,6.0,55,0.00,,---,0.00,VWS V14.01,2013-01-13 23:35:00,
2013-01-13 17:36:00,56.2,40.3,30.01,NNW,344,3.0,9.0,55,0.00,,---,0.00,VWS V14.01,2013-01-13 23:36:00,
2013-01-13 17:37:00,56.2,40.3,30.01,NNW,331,3.0,9.0,55,0.00,,---,0.00,VWS V14.01,2013-01-13 23:37:00,
2013-01-13 17:38:00,56.2,40.3,30.01,NNW,336,5.0,6.0,55,0.00,,---,0.00,VWS V14.01,2013-01-13 23:38:00,
2013-01-13 17:39:00,56.1,40.6,30.01,NNW,329,2.0,5.0,56,0.00,,---,0.00,VWS V14.01,2013-01-13 23:39:00,
2013-01-13 17:40:00,56.1,40.6,30.01,NNW,341,4.0,7.0,56,0.00,,---,0.00,VWS V14.01,2013-01-13 23:40:00,
2013-01-13 17:41:00,56.1,40.6,30.02,NW,325,6.0,6.0,56,0.00,,---,0.00,VWS V14.01,2013-01-13 23:41:00,
2013-01-13 17:42:00,56.0,40.5,30.02,North,360,5.0,9.0,56,0.00,,---,0.00,VWS V14.01,2013-01-13 23:42:00,
2013-01-13 17:43:00,56.0,40.5,30.02,NNW,334,5.0,5.0,56,0.00,,---,0.00,VWS V14.01,2013-01-13 23:43:00,
2013-01-13 17:44:00,55.9,40.5,30.02,NNW,331,7.0,10.0,56,0.00,,---,0.00,VWS V14.01,2013-01-13 23:44:00,
2013-01-13 17:45:00,55.9,40.5,30.02,NNW,344,6.0,10.0,56,0.00,,---,0.00,VWS V14.01,2013-01-13 23:45:00,
2013-01-13 17:46:00,55.9,40.5,30.02,NNW,341,10.0,12.0,56,0.00,,---,0.00,VWS V14.01,2013-01-13 23:46:00,
2013-01-13 17:47:00,55.8,39.9,30.02,NNW,340,8.0,10.0,55,0.00,,---,0.00,VWS V14.01,2013-01-13 23:47:00,
2013-01-13 17:48:00,55.8,40.4,30.02,NNW,346,2.0,11.0,56,0.00,,---,0.00,VWS V14.01,2013-01-13 23:48:00,
2013-01-13 17:49:00,55.8,40.3,30.02,NNW,336,5.0,11.0,56,0.00,,---,0.00,VWS V14.01,2013-01-13 23:49:00,
2013-01-13 17:50:00,55.8,40.3,30.02,NW,309,9.0,10.0,56,0.00,,---,0.00,VWS V14.01,2013-01-13 23:50:00,
2013-01-13 17:51:00,55.7,39.8,30.02,NNW,342,8.0,9.0,55,0.00,,---,0.00,VWS V14.01,2013-01-13 23:51:00,
2013-01-13 17:52:00,55.7,39.8,30.02,NNW,336,5.0,9.0,55,0.00,,---,0.00,VWS V14.01,2013-01-13 23:52:00,
2013-01-13 17:53:00,55.7,39.8,30.02,NNW,348,4.0,7.0,55,0.00,,---,0.00,VWS V14.01,2013-01-13 23:53:00,
2013-01-13 17:54:00,55.6,39.7,30.02,NNW,340,4.0,11.0,55,0.00,,---,0.00,VWS V14.01,2013-01-13 23:54:00,
2013-01-13 17:55:00,55.6,39.7,30.02,North,349,5.0,10.0,55,0.00,,---,0.00,VWS V14.01,2013-01-13 23:55:00,
2013-01-13 17:56:00,55.5,39.6,30.02,North,355,5.0,10.0,55,0.00,,---,0.00,VWS V14.01,2013-01-13 23:56:00,
2013-01-13 17:57:00,55.5,40.1,30.02,NNW,344,4.0,7.0,56,0.00,,---,0.00,VWS V14.01,2013-01-13 23:57:00,
2013-01-13 17:58:00,55.5,40.1,30.02,NNW,332,3.0,6.0,56,0.00,,---,0.00,VWS V14.01,2013-01-13 23:58:00,
2013-01-13 17:59:00,55.4,39.5,30.02,NNW,341,10.0,12.0,55,0.00,,---,0.00,VWS V14.01,2013-01-13 23:59:00,
2013-01-13 18:00:00,55.4,39.5,30.02,NNW,336,6.0,11.0,55,0.00,,---,0.00,VWS V14.01,2013-01-14 00:00:00,
2013-01-13 18:01:00,55.3,39.4,30.02,North,355,8.0,10.0,55,0.00,,---,0.00,VWS V14.01,2013-01-14 00:01:00,
2013-01-13 18:02:00,55.3,39.4,30.02,NNW,336,4.0,8.0,55,0.00,,---,0.00,VWS V14.01,2013-01-14 00:02:00,
2013-01-13 18:03:00,55.3,39.4,30.02,NNW,344,6.0,6.0,55,0.00,,---,0.00,VWS V14.01,2013-01-14 00:03:00,
2013-01-13 18:04:00,55.2,39.3,30.02,North,355,4.0,7.0,55,0.00,,---,0.00,VWS V14.01,2013-01-14 00:04:00,
2013-01-13 18:05:00,55.2,39.8,30.02,North,360,3.0,9.0,56,0.00,,---,0.00,VWS V14.01,2013-01-14 00:05:00,
2013-01-13 18:06:00,55.2,39.3,30.02,North,5,2.0,5.0,55,0.00,,---,0.00,VWS V14.01,2013-01-14 00:06:00,
2013-01-13 18:07:00,55.2,39.8,30.02,NNW,341,5.0,6.0,56,0.00,,---,0.00,VWS V14.01,2013-01-14 00:07:00,
2013-01-13 18:08:00,55.2,39.8,30.02,NNW,342,5.0,5.0,56,0.00,,---,0.00,VWS V14.01,2013-01-14 00:08:00,
2013-01-13 18:09:00,55.1,39.7,30.02,NW,326,3.0,10.0,56,0.00,,---,0.00,VWS V14.01,2013-01-14 00:09:00,
2013-01-13 18:10:00,55.1,39.7,30.02,NNW,340,2.0,3.0,56,0.00,,---,0.00,VWS V14.01,2013-01-14 00:10:00,
2013-01-13 18:11:00,55.1,39.7,30.02,NW,323,2.0,6.0,56,0.00,,---,0.00,VWS V14.01,2013-01-14 00:11:00,
2013-01-13 18:12:00,55.1,39.7,30.02,North,360,4.0,7.0,56,0.00,,---,0.00,VWS V14.01,2013-01-14 00:12:00,
2013-01-13 18:13:00,55.1,39.7,30.02,North,360,1.0,5.0,56,0.00,,---,0.00,VWS V14.01,2013-01-14 00:13:00,
2013-01-13 18:14:00,55.1,39.7,30.02,North,355,2.0,5.0,56,0.00,,---,0.00,VWS V14.01,2013-01-14 00:14:00,
2013-01-13 18:15:00,55.1,39.7,30.02,North,349,4.0,6.0,56,0.00,,---,0.00,VWS V14.01,2013-01-14 00:15:00,
2013-01-13 18:16:00,55.1,39.7,30.02,North,349,4.0,5.0,56,0.00,,---,0.00,VWS V14.01,2013-01-14 00:16:00,
2013-01-13 18:17:00,55.0,40.1,30.02,NW,326,2.0,6.0,57,0.00,,---,0.00,VWS V14.01,2013-01-14 00:17:00,
2013-01-13 18:18:00,55.0,40.1,30.02,NNW,330,4.0,4.0,57,0.00,,---,0.00,VWS V14.01,2013-01-14 00:18:00,
2013-01-13 18:19:00,55.0,40.1,30.02,NNW,331,2.0,5.0,57,0.00,,---,0.00,VWS V14.01,2013-01-14 00:19:00,
2013-01-13 18:20:00,55.0,40.1,30.02,North,360,4.0,10.0,57,0.00,,---,0.00,VWS V14.01,2013-01-14 00:20:00,
2013-01-13 18:21:00,54.9,40.0,30.02,North,351,6.0,7.0,57,0.00,,---,0.00,VWS V14.01,2013-01-14 00:21:00,
2013-01-13 18:22:00,54.9,40.0,30.02,NNW,331,2.0,7.0,57,0.00,,---,0.00,VWS V14.01,2013-01-14 00:22:00,
2013-01-13 18:23:00,54.9,40.0,30.02,NNW,344,4.0,5.0,57,0.00,,---,0.00,VWS V14.01,2013-01-14 00:23:00,
2013-01-13 18:24:00,54.8,40.3,30.02,NW,314,6.0,6.0,58,0.00,,---,0.00,VWS V14.01,2013-01-14 00:24:00,
2013-01-13 18:25:00,54.8,40.3,30.02,North,360,5.0,7.0,58,0.00,,---,0.00,VWS V14.01,2013-01-14 00:25:00,
2013-01-13 18:26:00,54.8,39.9,30.02,NNW,341,7.0,15.0,57,0.00,,---,0.00,VWS V14.01,2013-01-14 00:26:00,
2013-01-13 18:27:00,54.8,39.9,30.02,NNW,345,7.0,13.0,57,0.00,,---,0.00,VWS V14.01,2013-01-14 00:27:00,
2013-01-13 18:28:00,54.8,39.9,30.02,North,5,5.0,8.0,57,0.00,,---,0.00,VWS V14.01,2013-01-14 00:28:00,
2013-01-13 18:29:00,54.7,39.8,30.02,NNW,341,9.0,10.0,57,0.00,,---,0.00,VWS V14.01,2013-01-14 00:29:00,
2013-01-13 18:30:00,54.8,39.9,30.02,North,9,9.0,11.0,57,0.00,,---,0.00,VWS V14.01,2013-01-14 00:30:00,
2013-01-13 18:31:00,54.7,39.3,30.02,NW,326,3.0,13.0,56,0.00,,---,0.00,VWS V14.01,2013-01-14 00:31:00,
2013-01-13 18:32:00,54.7,39.8,30.02,NNW,346,8.0,13.0,57,0.00,,---,0.00,VWS V14.01,2013-01-14 00:32:00,
2013-01-13 18:33:00,54.7,39.8,30.02,NNE,17,5.0,11.0,57,0.00,,---,0.00,VWS V14.01,2013-01-14 00:33:00,
2013-01-13 18:34:00,54.7,39.3,30.02,NNE,19,9.0,9.0,56,0.00,,---,0.00,VWS V14.01,2013-01-14 00:34:00,
2013-01-13 18:35:00,54.8,39.4,30.02,NNW,327,3.0,12.0,56,0.00,,---,0.00,VWS V14.01,2013-01-14 00:35:00,
2013-01-13 18:36:00,54.7,39.3,30.02,North,355,5.0,13.0,56,0.00,,---,0.00,VWS V14.01,2013-01-14 00:36:00,
2013-01-13 18:37:00,54.7,39.8,30.02,NNW,340,4.0,7.0,57,0.00,,---,0.00,VWS V14.01,2013-01-14 00:37:00,
2013-01-13 18:38:00,54.7,39.8,30.02,NNE,28,11.0,13.0,57,0.00,,---,0.00,VWS V14.01,2013-01-14 00:38:00,
2013-01-13 18:39:00,54.7,39.8,30.02,North,5,4.0,9.0,57,0.00,,---,0.00,VWS V14.01,2013-01-14 00:39:00,
2013-01-13 18:40:00,54.7,39.8,30.02,NNE,24,4.0,6.0,57,0.00,,---,0.00,VWS V14.01,2013-01-14 00:40:00,
2013-01-13 18:41:00,54.7,39.8,30.02,NE,34,3.0,6.0,57,0.00,,---,0.00,VWS V14.01,2013-01-14 00:41:00,
2013-01-13 18:42:00,54.7,39.8,30.03,North,355,4.0,6.0,57,0.00,,---,0.00,VWS V14.01,2013-01-14 00:42:00,
2013-01-13 18:43:00,54.7,39.8,30.03,North,5,3.0,5.0,57,0.00,,---,0.00,VWS V14.01,2013-01-14 00:43:00,
2013-01-13 18:44:00,54.7,39.8,30.03,North,11,5.0,9.0,57,0.00,,---,0.00,VWS V14.01,2013-01-14 00:44:00,
2013-01-13 18:45:00,54.7,39.8,30.03,North,360,5.0,10.0,57,0.00,,---,0.00,VWS V14.01,2013-01-14 00:45:00,
2013-01-13 18:46:00,54.7,39.8,30.03,NNW,347,7.0,9.0,57,0.00,,---,0.00,VWS V14.01,2013-01-14 00:46:00,
2013-01-13 18:47:00,54.7,39.8,30.03,NNW,342,6.0,10.0,57,0.00,,---,0.00,VWS V14.01,2013-01-14 00:47:00,
2013-01-13 18:48:00,54.7,39.8,30.03,NNW,329,1.0,6.0,57,0.00,,---,0.00,VWS V14.01,2013-01-14 00:48:00,
2013-01-13 18:49:00,54.7,39.8,30.03,NNW,346,5.0,6.0,57,0.00,,---,0.00,VWS V14.01,2013-01-14 00:49:00,
2013-01-13 18:50:00,54.7,39.8,30.03,North,9,9.0,9.0,57,0.00,,---,0.00,VWS V14.01,2013-01-14 00:50:00,
2013-01-13 18:51:00,54.7,40.2,30.03,North,355,8.0,11.0,58,0.00,,---,0.00,VWS V14.01,2013-01-14 00:51:00,
2013-01-13 18:52:00,54.7,40.2,30.03,North,360,5.0,10.0,58,0.00,,---,0.00,VWS V14.01,2013-01-14 00:52:00,
2013-01-13 18:53:00,54.7,40.2,30.03,North,360,6.0,9.0,58,0.00,,---,0.00,VWS V14.01,2013-01-14 00:53:00,
2013-01-13 18:54:00,54.7,39.8,30.03,NNW,329,4.0,11.0,57,0.00,,---,0.00,VWS V14.01,2013-01-14 00:54:00,
2013-01-13 18:55:00,54.8,39.9,30.03,NNE,15,5.0,10.0,57,0.00,,---,0.00,VWS V14.01,2013-01-14 00:55:00,
2013-01-13 18:56:00,54.8,39.9,30.03,NNE,26,6.0,13.0,57,0.00,,---,0.00,VWS V14.01,2013-01-14 00:56:00,
2013-01-13 18:57:00,54.8,39.9,30.03,North,5,4.0,11.0,57,0.00,,---,0.00,VWS V14.01,2013-01-14 00:57:00,
2013-01-13 18:58:00,54.8,39.9,30.03,North,360,6.0,6.0,57,0.00,,---,0.00,VWS V14.01,2013-01-14 00:58:00,
2013-01-13 18:59:00,54.8,39.9,30.03,NNW,335,6.0,15.0,57,0.00,,---,0.00,VWS V14.01,2013-01-14 00:59:00,
2013-01-13 19:00:00,54.8,39.9,30.03,NNW,338,4.0,12.0,57,0.00,,---,0.00,VWS V14.01,2013-01-14 01:00:00,
2013-01-13 19:01:00,54.8,39.9,30.02,North,9,3.0,9.0,57,0.00,,---,0.00,VWS V14.01,2013-01-14 01:01:00,
2013-01-13 19:02:00,54.8,39.9,30.02,North,355,2.0,7.0,57,0.00,,---,0.00,VWS V14.01,2013-01-14 01:02:00,
2013-01-13 19:03:00,54.8,39.9,30.02,North,355,2.0,6.0,57,0.00,,---,0.00,VWS V14.01,2013-01-14 01:03:00,
2013-01-13 19:04:00,54.8,40.3,30.02,North,350,6.0,10.0,58,0.00,,---,0.00,VWS V14.01,2013-01-14 01:04:00,
2013-01-13 19:05:00,54.8,40.3,30.02,North,355,6.0,13.0,58,0.00,,---,0.00,VWS V14.01,2013-01-14 01:05:00,
2013-01-13 19:06:00,54.8,39.9,30.02,NNE,25,5.0,9.0,57,0.00,,---,0.00,VWS V14.01,2013-01-14 01:06:00,
2013-01-13 19:07:00,54.8,40.3,30.02,NNE,12,3.0,11.0,58,0.00,,---,0.00,VWS V14.01,2013-01-14 01:07:00,
2013-01-13 19:08:00,54.8,40.3,30.02,NNE,21,11.0,11.0,58,0.00,,---,0.00,VWS V14.01,2013-01-14 01:08:00,
2013-01-13 19:09:00,54.8,40.3,30.02,North,360,3.0,12.0,58,0.00,,---,0.00,VWS V14.01,2013-01-14 01:09:00,
2013-01-13 19:10:00,54.8,40.3,30.03,NNE,26,8.0,8.0,58,0.00,,---,0.00,VWS V14.01,2013-01-14 01:10:00,
2013-01-13 19:11:00,54.8,40.3,30.03,NNW,340,2.0,10.0,58,0.00,,---,0.00,VWS V14.01,2013-01-14 01:11:00,
2013-01-13 19:12:00,54.8,40.3,30.03,North,355,5.0,9.0,58,0.00,,---,0.00,VWS V14.01,2013-01-14 01:12:00,
2013-01-13 19:13:00,54.8,40.3,30.03,North,355,2.0,5.0,58,0.00,,---,0.00,VWS V14.01,2013-01-14 01:13:00,
2013-01-13 19:14:00,54.7,40.2,30.03,NNE,12,4.0,10.0,58,0.00,,---,0.00,VWS V14.01,2013-01-14 01:14:00,
2013-01-13 19:15:00,54.8,40.3,30.03,North,5,3.0,12.0,58,0.00,,---,0.00,VWS V14.01,2013-01-14 01:15:00,
2013-01-13 19:16:00,54.7,40.2,30.03,North,355,5.0,10.0,58,0.00,,---,0.00,VWS V14.01,2013-01-14 01:16:00,
2013-01-13 19:17:00,54.8,40.3,30.02,NNE,24,10.0,10.0,58,0.00,,---,0.00,VWS V14.01,2013-01-14 01:17:00,
2013-01-13 19:18:00,54.7,40.2,30.02,North,355,4.0,11.0,58,0.00,,---,0.00,VWS V14.01,2013-01-14 01:18:00,
2013-01-13 19:19:00,54.7,40.2,30.02,NNW,336,9.0,17.0,58,0.00,,---,0.00,VWS V14.01,2013-01-14 01:19:00,
2013-01-13 19:20:00,54.7,40.2,30.03,NNW,341,10.0,11.0,58,0.00,,---,0.00,VWS V14.01,2013-01-14 01:20:00,
2013-01-13 19:21:00,54.7,40.2,30.03,NNE,24,5.0,13.0,58,0.00,,---,0.00,VWS V14.01,2013-01-14 01:21:00,
2013-01-13 19:22:00,54.8,40.3,30.03,North,349,7.0,12.0,58,0.00,,---,0.00,VWS V14.01,2013-01-14 01:22:00,
2013-01-13 19:23:00,54.7,40.2,30.03,NNE,19,5.0,7.0,58,0.00,,---,0.00,VWS V14.01,2013-01-14 01:23:00,
2013-01-13 19:24:00,54.7,40.2,30.03,North,360,9.0,13.0,58,0.00,,---,0.00,VWS V14.01,2013-01-14 01:24:00,
2013-01-13 19:25:00,54.7,40.2,30.03,NNW,336,4.0,13.0,58,0.00,,---,0.00,VWS V14.01,2013-01-14 01:25:00,
2013-01-13 19:26:00,54.7,40.2,30.03,NNW,348,6.0,11.0,58,0.00,,---,0.00,VWS V14.01,2013-01-14 01:26:00,
2013-01-13 19:27:00,54.7,40.2,30.03,NNW,342,5.0,12.0,58,0.00,,---,0.00,VWS V14.01,2013-01-14 01:27:00,
2013-01-13 19:28:00,54.7,40.2,30.03,NNE,17,10.0,10.0,58,0.00,,---,0.00,VWS V14.01,2013-01-14 01:28:00,
2013-01-13 19:29:00,54.7,40.2,30.03,North,355,9.0,12.0,58,0.00,,---,0.00,VWS V14.01,2013-01-14 01:29:00,
2013-01-13 19:30:00,54.7,40.2,30.03,NNW,343,8.0,12.0,58,0.00,,---,0.00,VWS V14.01,2013-01-14 01:30:00,
2013-01-13 19:31:00,54.6,40.1,30.03,NNW,344,6.0,11.0,58,0.00,,---,0.00,VWS V14.01,2013-01-14 01:31:00,
2013-01-13 19:32:00,54.6,40.1,30.03,North,350,6.0,13.0,58,0.00,,---,0.00,VWS V14.01,2013-01-14 01:32:00,
2013-01-13 19:33:00,54.6,40.1,30.03,North,360,9.0,11.0,58,0.00,,---,0.00,VWS V14.01,2013-01-14 01:33:00,
2013-01-13 19:34:00,54.6,40.1,30.04,North,5,5.0,10.0,58,0.00,,---,0.00,VWS V14.01,2013-01-14 01:34:00,
2013-01-13 19:35:00,54.6,40.1,30.04,NNW,333,7.0,12.0,58,0.00,,---,0.00,VWS V14.01,2013-01-14 01:35:00,
2013-01-13 19:36:00,54.6,40.6,30.04,North,355,6.0,11.0,59,0.00,,---,0.00,VWS V14.01,2013-01-14 01:36:00,
2013-01-13 19:37:00,54.6,40.6,30.04,North,355,5.0,9.0,59,0.00,,---,0.00,VWS V14.01,2013-01-14 01:37:00,
2013-01-13 19:38:00,54.6,40.6,30.04,North,5,7.0,10.0,59,0.00,,---,0.00,VWS V14.01,2013-01-14 01:38:00,
2013-01-13 19:39:00,54.6,40.6,30.04,North,350,4.0,13.0,59,0.00,,---,0.00,VWS V14.01,2013-01-14 01:39:00,
2013-01-13 19:40:00,54.6,40.6,30.04,NNW,344,11.0,11.0,59,0.00,,---,0.00,VWS V14.01,2013-01-14 01:40:00,
2013-01-13 19:41:00,54.6,41.0,30.04,North,360,4.0,11.0,60,0.00,,---,0.00,VWS V14.01,2013-01-14 01:41:00,
2013-01-13 19:42:00,54.5,40.9,30.04,North,5,3.0,7.0,60,0.00,,---,0.00,VWS V14.01,2013-01-14 01:42:00,
2013-01-13 19:43:00,54.5,40.9,30.04,NNW,342,5.0,6.0,60,0.00,,---,0.00,VWS V14.01,2013-01-14 01:43:00,
2013-01-13 19:44:00,54.5,40.9,30.05,North,5,4.0,16.0,60,0.00,,---,0.00,VWS V14.01,2013-01-14 01:44:00,
2013-01-13 19:45:00,54.5,40.9,30.04,North,350,10.0,14.0,60,0.00,,---,0.00,VWS V14.01,2013-01-14 01:45:00,
2013-01-13 19:46:00,54.5,40.9,30.04,North,10,6.0,10.0,60,0.00,,---,0.00,VWS V14.01,2013-01-14 01:46:00,
2013-01-13 19:47:00,54.5,40.5,30.04,North,360,4.0,10.0,59,0.00,,---,0.00,VWS V14.01,2013-01-14 01:47:00,
2013-01-13 19:48:00,54.5,40.5,30.04,NNE,13,4.0,7.0,59,0.00,,---,0.00,VWS V14.01,2013-01-14 01:48:00,
2013-01-13 19:49:00,54.5,40.5,30.04,North,350,5.0,16.0,59,0.00,,---,0.00,VWS V14.01,2013-01-14 01:49:00,
2013-01-13 19:50:00,54.5,40.5,30.04,NNW,340,7.0,10.0,59,0.00,,---,0.00,VWS V14.01,2013-01-14 01:50:00,
2013-01-13 19:51:00,54.4,40.4,30.04,NNW,333,6.0,13.0,59,0.00,,---,0.00,VWS V14.01,2013-01-14 01:51:00,
2013-01-13 19:52:00,54.4,40.4,30.04,NNW,346,4.0,9.0,59,0.00,,---,0.00,VWS V14.01,2013-01-14 01:52:00,
2013-01-13 19:53:00,54.4,40.4,30.04,NNE,33,7.0,7.0,59,0.00,,---,0.00,VWS V14.01,2013-01-14 01:53:00,
2013-01-13 19:54:00,54.4,40.4,30.04,North,10,1.0,11.0,59,0.00,,---,0.00,VWS V14.01,2013-01-14 01:54:00,
2013-01-13 19:55:00,54.4,40.4,30.04,North,360,10.0,14.0,59,0.00,,---,0.00,VWS V14.01,2013-01-14 01:55:00,
2013-01-13 19:56:00,54.4,40.4,30.04,North,11,10.0,16.0,59,0.00,,---,0.00,VWS V14.01,2013-01-14 01:56:00,
2013-01-13 19:57:00,54.3,40.3,30.04,NNE,13,13.0,13.0,59,0.00,,---,0.00,VWS V14.01,2013-01-14 01:57:00,
2013-01-13 19:58:00,54.3,40.3,30.04,NNE,32,16.0,16.0,59,0.00,,---,0.00,VWS V14.01,2013-01-14 01:58:00,
2013-01-13 19:59:00,54.3,40.3,30.04,North,11,5.0,15.0,59,0.00,,---,0.00,VWS V14.01,2013-01-14 01:59:00,
2013-01-13 20:00:00,54.2,40.2,30.04,NNE,13,11.0,13.0,59,0.00,,---,0.00,VWS V14.01,2013-01-14 02:00:00,
2013-01-13 20:01:00,54.2,40.2,30.04,NNE,25,10.0,16.0,59,0.00,,---,0.00,VWS V14.01,2013-01-14 02:01:00,
2013-01-13 20:02:00,54.2,40.2,30.04,NNE,32,6.0,11.0,59,0.00,,---,0.00,VWS V14.01,2013-01-14 02:02:00,
2013-01-13 20:03:00,54.2,40.2,30.04,North,11,4.0,7.0,59,0.00,,---,0.00,VWS V14.01,2013-01-14 02:03:00,
2013-01-13 20:04:00,54.2,40.2,30.05,North,360,12.0,13.0,59,0.00,,---,0.00,VWS V14.01,2013-01-14 02:04:00,
2013-01-13 20:05:00,54.1,40.1,30.05,NNW,342,8.0,14.0,59,0.00,,---,0.00,VWS V14.01,2013-01-14 02:05:00,
2013-01-13 20:06:00,54.1,40.1,30.05,North,9,8.0,16.0,59,0.00,,---,0.00,VWS V14.01,2013-01-14 02:06:00,
2013-01-13 20:07:00,54.1,40.1,30.05,North,360,9.0,18.0,59,0.00,,---,0.00,VWS V14.01,2013-01-14 02:07:00,
2013-01-13 20:08:00,54.1,40.1,30.05,NNE,16,10.0,11.0,59,0.00,,---,0.00,VWS V14.01,2013-01-14 02:08:00,
2013-01-13 20:09:00,54.1,40.1,30.06,NNE,16,6.0,12.0,59,0.00,,---,0.00,VWS V14.01,2013-01-14 02:09:00,
2013-01-13 20:10:00,54.1,40.1,30.06,North,5,11.0,11.0,59,0.00,,---,0.00,VWS V14.01,2013-01-14 02:10:00,
2013-01-13 20:11:00,54.0,40.0,30.06,NNW,348,10.0,13.0,59,0.00,,---,0.00,VWS V14.01,2013-01-14 02:11:00,
2013-01-13 20:12:00,54.0,40.0,30.06,NNE,20,9.0,12.0,59,0.00,,---,0.00,VWS V14.01,2013-01-14 02:12:00,
2013-01-13 20:13:00,54.0,40.0,30.06,NNW,344,11.0,12.0,59,0.00,,---,0.00,VWS V14.01,2013-01-14 02:13:00,
2013-01-13 20:14:00,54.0,40.0,30.06,North,360,12.0,14.0,59,0.00,,---,0.00,VWS V14.01,2013-01-14 02:14:00,
2013-01-13 20:15:00,54.0,40.0,30.06,NE,40,8.0,12.0,59,0.00,,---,0.00,VWS V14.01,2013-01-14 02:15:00,
2013-01-13 20:16:00,54.0,40.9,30.06,North,11,10.0,10.0,61,0.00,,---,0.00,VWS V14.01,2013-01-14 02:16:00,
2013-01-13 20:17:00,54.0,40.9,30.06,North,5,5.0,13.0,61,0.00,,---,0.00,VWS V14.01,2013-01-14 02:17:00,
2013-01-13 20:18:00,54.0,40.9,30.06,North,360,7.0,10.0,61,0.00,,---,0.00,VWS V14.01,2013-01-14 02:18:00,
2013-01-13 20:19:00,53.9,40.8,30.05,NNE,18,9.0,14.0,61,0.00,,---,0.00,VWS V14.01,2013-01-14 02:19:00,
2013-01-13 20:20:00,53.9,39.9,30.06,North,350,3.0,12.0,59,0.00,,---,0.00,VWS V14.01,2013-01-14 02:20:00,
2013-01-13 20:21:00,53.9,39.9,30.06,NNW,342,11.0,15.0,59,0.00,,---,0.00,VWS V14.01,2013-01-14 02:21:00,
2013-01-13 20:22:00,53.9,39.9,30.06,North,11,6.0,11.0,59,0.00,,---,0.00,VWS V14.01,2013-01-14 02:22:00,
2013-01-13 20:23:00,53.9,39.9,30.06,North,355,5.0,9.0,59,0.00,,---,0.00,VWS V14.01,2013-01-14 02:23:00,
2013-01-13 20:24:00,53.9,39.9,30.06,North,5,11.0,12.0,59,0.00,,---,0.00,VWS V14.01,2013-01-14 02:24:00,
2013-01-13 20:25:00,53.9,39.9,30.05,NNE,24,8.0,11.0,59,0.00,,---,0.00,VWS V14.01,2013-01-14 02:25:00,
2013-01-13 20:26:00,53.9,39.9,30.05,North,349,6.0,10.0,59,0.00,,---,0.00,VWS V14.01,2013-01-14 02:26:00,
2013-01-13 20:27:00,53.9,39.9,30.06,NNW,327,6.0,9.0,59,0.00,,---,0.00,VWS V14.01,2013-01-14 02:27:00,
2013-01-13 20:28:00,53.9,39.9,30.06,North,5,4.0,6.0,59,0.00,,---,0.00,VWS V14.01,2013-01-14 02:28:00,
2013-01-13 20:29:00,53.9,39.9,30.06,NW,325,4.0,7.0,59,0.00,,---,0.00,VWS V14.01,2013-01-14 02:29:00,
2013-01-13 20:30:00,53.8,40.3,30.06,NNE,32,6.0,10.0,60,0.00,,---,0.00,VWS V14.01,2013-01-14 02:30:00,
2013-01-13 20:31:00,53.8,40.3,30.06,NNW,335,4.0,7.0,60,0.00,,---,0.00,VWS V14.01,2013-01-14 02:31:00,
2013-01-13 20:32:00,53.8,40.3,30.06,NNE,22,15.0,15.0,60,0.00,,---,0.00,VWS V14.01,2013-01-14 02:32:00,
2013-01-13 20:33:00,53.8,40.3,30.05,NNE,15,8.0,15.0,60,0.00,,---,0.00,VWS V14.01,2013-01-14 02:33:00,
2013-01-13 20:34:00,53.8,40.3,30.05,NNE,22,4.0,6.0,60,0.00,,---,0.00,VWS V14.01,2013-01-14 02:34:00,
2013-01-13 20:35:00,53.7,40.2,30.05,NNW,345,4.0,10.0,60,0.00,,---,0.00,VWS V14.01,2013-01-14 02:35:00,
2013-01-13 20:36:00,53.7,40.2,30.05,North,360,2.0,6.0,60,0.00,,---,0.00,VWS V14.01,2013-01-14 02:36:00,
2013-01-13 20:37:00,53.7,40.2,30.05,NNE,19,1.0,6.0,60,0.00,,---,0.00,VWS V14.01,2013-01-14 02:37:00,
2013-01-13 20:38:00,53.7,40.2,30.05,NNE,19,0.0,1.0,60,0.00,,---,0.00,VWS V14.01,2013-01-14 02:38:00,
2013-01-13 20:40:00,53.7,40.6,30.05,North,360,3.0,10.0,61,0.00,,---,0.00,VWS V14.01,2013-01-14 02:40:00,
2013-01-13 20:41:00,53.7,40.6,30.06,NNW,336,9.0,9.0,61,0.00,,---,0.00,VWS V14.01,2013-01-14 02:41:00,
2013-01-13 20:42:00,53.7,40.6,30.06,NNE,17,11.0,11.0,61,0.00,,---,0.00,VWS V14.01,2013-01-14 02:42:00,
2013-01-13 20:43:00,53.6,40.5,30.06,NNE,19,6.0,11.0,61,0.00,,---,0.00,VWS V14.01,2013-01-14 02:43:00,
2013-01-13 20:44:00,53.7,40.6,30.06,NNE,26,12.0,12.0,61,0.00,,---,0.00,VWS V14.01,2013-01-14 02:44:00,
2013-01-13 20:45:00,53.6,40.5,30.06,NNW,337,10.0,14.0,61,0.00,,---,0.00,VWS V14.01,2013-01-14 02:45:00,
2013-01-13 20:46:00,53.6,40.5,30.06,North,5,11.0,13.0,61,0.00,,---,0.00,VWS V14.01,2013-01-14 02:46:00,
2013-01-13 20:47:00,53.6,40.5,30.06,NNE,32,11.0,11.0,61,0.00,,---,0.00,VWS V14.01,2013-01-14 02:47:00,
2013-01-13 20:48:00,53.6,40.5,30.06,NNE,15,7.0,12.0,61,0.00,,---,0.00,VWS V14.01,2013-01-14 02:48:00,
2013-01-13 20:49:00,53.5,40.4,30.06,North,5,9.0,11.0,61,0.00,,---,0.00,VWS V14.01,2013-01-14 02:49:00,
2013-01-13 20:50:00,53.5,40.4,30.06,NNE,15,14.0,14.0,61,0.00,,---,0.00,VWS V14.01,2013-01-14 02:50:00,
2013-01-13 20:51:00,53.5,40.8,30.06,North,355,6.0,14.0,62,0.00,,---,0.00,VWS V14.01,2013-01-14 02:51:00,
2013-01-13 20:52:00,53.5,40.8,30.06,NNW,330,7.0,13.0,62,0.00,,---,0.00,VWS V14.01,2013-01-14 02:52:00,
2013-01-13 20:53:00,53.5,40.8,30.06,NNE,19,7.0,7.0,62,0.00,,---,0.00,VWS V14.01,2013-01-14 02:53:00,
2013-01-13 20:54:00,53.4,40.7,30.06,NNW,348,9.0,17.0,62,0.00,,---,0.00,VWS V14.01,2013-01-14 02:54:00,
2013-01-13 20:55:00,53.4,40.7,30.06,NNW,347,12.0,15.0,62,0.00,,---,0.00,VWS V14.01,2013-01-14 02:55:00,
2013-01-13 20:56:00,53.4,40.7,30.06,North,355,6.0,14.0,62,0.00,,---,0.00,VWS V14.01,2013-01-14 02:56:00,
2013-01-13 20:57:00,53.3,40.6,30.06,NNW,338,9.0,14.0,62,0.00,,---,0.00,VWS V14.01,2013-01-14 02:57:00,
2013-01-13 20:58:00,53.3,40.6,30.06,NNE,21,6.0,9.0,62,0.00,,---,0.00,VWS V14.01,2013-01-14 02:58:00,
2013-01-13 20:59:00,53.3,40.6,30.06,North,11,0.0,10.0,62,0.00,,---,0.00,VWS V14.01,2013-01-14 02:59:00,
2013-01-13 21:00:00,53.2,40.5,30.06,NNE,30,8.0,10.0,62,0.00,,---,0.00,VWS V14.01,2013-01-14 03:00:00,
2013-01-13 21:01:00,53.2,41.0,30.06,NNE,19,6.0,10.0,63,0.00,,---,0.00,VWS V14.01,2013-01-14 03:01:00,
2013-01-13 21:02:00,53.2,41.0,30.06,North,9,5.0,11.0,63,0.00,,---,0.00,VWS V14.01,2013-01-14 03:02:00,
2013-01-13 21:03:00,53.2,41.0,30.06,NNE,32,6.0,7.0,63,0.00,,---,0.00,VWS V14.01,2013-01-14 03:03:00,
2013-01-13 21:04:00,53.2,41.0,30.06,NNE,28,12.0,12.0,63,0.00,,---,0.00,VWS V14.01,2013-01-14 03:04:00,
2013-01-13 21:05:00,53.2,41.0,30.05,NNE,13,7.0,15.0,63,0.00,,---,0.00,VWS V14.01,2013-01-14 03:05:00,
2013-01-13 21:06:00,53.1,40.8,30.05,NNE,18,5.0,13.0,63,0.00,,---,0.00,VWS V14.01,2013-01-14 03:06:00,
2013-01-13 21:07:00,53.1,40.8,30.05,NNE,26,6.0,6.0,63,0.00,,---,0.00,VWS V14.01,2013-01-14 03:07:00,
2013-01-13 21:08:00,53.1,40.8,30.06,NNE,12,6.0,6.0,63,0.00,,---,0.00,VWS V14.01,2013-01-14 03:08:00,
2013-01-13 21:09:00,53.0,40.8,30.06,NNE,15,9.0,12.0,63,0.00,,---,0.00,VWS V14.01,2013-01-14 03:09:00,
2013-01-13 21:10:00,53.0,40.8,30.06,NNE,15,11.0,11.0,63,0.00,,---,0.00,VWS V14.01,2013-01-14 03:10:00,
2013-01-13 21:11:00,53.0,40.8,30.06,NNE,24,7.0,11.0,63,0.00,,---,0.00,VWS V14.01,2013-01-14 03:11:00,
2013-01-13 21:12:00,52.9,40.7,30.06,NNE,22,7.0,12.0,63,0.00,,---,0.00,VWS V14.01,2013-01-14 03:12:00,
2013-01-13 21:13:00,52.9,40.7,30.06,NNE,23,6.0,7.0,63,0.00,,---,0.00,VWS V14.01,2013-01-14 03:13:00,
2013-01-13 21:14:00,52.9,40.7,30.06,North,10,14.0,14.0,63,0.00,,---,0.00,VWS V14.01,2013-01-14 03:14:00,
2013-01-13 21:15:00,52.8,41.0,30.06,NNE,24,13.0,15.0,64,0.00,,---,0.00,VWS V14.01,2013-01-14 03:15:00,
2013-01-13 21:16:00,52.8,40.6,30.06,NE,34,15.0,15.0,63,0.00,,---,0.00,VWS V14.01,2013-01-14 03:16:00,
2013-01-13 21:17:00,52.8,40.6,30.06,NNE,31,11.0,15.0,63,0.00,,---,0.00,VWS V14.01,2013-01-14 03:17:00,
2013-01-13 21:18:00,52.8,40.6,30.06,NNE,20,5.0,11.0,63,0.00,,---,0.00,VWS V14.01,2013-01-14 03:18:00,
2013-01-13 21:19:00,52.7,40.9,30.06,NNE,22,7.0,12.0,64,0.00,,---,0.00,VWS V14.01,2013-01-14 03:19:00,
2013-01-13 21:20:00,52.7,40.9,30.06,NNE,13,10.0,14.0,64,0.00,,---,0.00,VWS V14.01,2013-01-14 03:20:00,
2013-01-13 21:21:00,52.7,40.9,30.06,NNE,22,7.0,10.0,64,0.00,,---,0.00,VWS V14.01,2013-01-14 03:21:00,
2013-01-13 21:22:00,52.6,40.8,30.06,NE,44,10.0,12.0,64,0.00,,---,0.00,VWS V14.01,2013-01-14 03:22:00,
2013-01-13 21:23:00,52.6,40.8,30.06,North,10,9.0,10.0,64,0.00,,---,0.00,VWS V14.01,2013-01-14 03:23:00,
2013-01-13 21:24:00,52.6,40.8,30.06,NW,325,5.0,14.0,64,0.00,,---,0.00,VWS V14.01,2013-01-14 03:24:00,
2013-01-13 21:25:00,52.6,40.4,30.06,North,5,9.0,16.0,63,0.00,,---,0.00,VWS V14.01,2013-01-14 03:25:00,
2013-01-13 21:26:00,52.6,40.4,30.06,NNE,18,12.0,21.0,63,0.00,,---,0.00,VWS V14.01,2013-01-14 03:26:00,
2013-01-13 21:27:00,52.5,40.3,30.06,NNE,27,5.0,9.0,63,0.00,,---,0.00,VWS V14.01,2013-01-14 03:27:00,
2013-01-13 21:28:00,52.5,40.3,30.06,NNE,18,6.0,16.0,63,0.00,,---,0.00,VWS V14.01,2013-01-14 03:28:00,
2013-01-13 21:29:00,52.4,40.2,30.06,NNE,17,6.0,14.0,63,0.00,,---,0.00,VWS V14.01,2013-01-14 03:29:00,
2013-01-13 21:30:00,52.5,40.3,30.06,North,9,11.0,14.0,63,0.00,,---,0.00,VWS V14.01,2013-01-14 03:30:00,
2013-01-13 21:31:00,52.4,40.2,30.06,North,360,10.0,12.0,63,0.00,,---,0.00,VWS V14.01,2013-01-14 03:31:00,
2013-01-13 21:32:00,52.4,40.2,30.07,NNW,340,12.0,15.0,63,0.00,,---,0.00,VWS V14.01,2013-01-14 03:32:00,
2013-01-13 21:33:00,52.4,40.2,30.07,NE,40,3.0,15.0,63,0.00,,---,0.00,VWS V14.01,2013-01-14 03:33:00,
2013-01-13 21:34:00,52.4,40.2,30.07,North,9,3.0,12.0,63,0.00,,---,0.00,VWS V14.01,2013-01-14 03:34:00,
2013-01-13 21:35:00,52.4,40.6,30.06,NNW,348,9.0,10.0,64,0.00,,---,0.00,VWS V14.01,2013-01-14 03:35:00,
2013-01-13 21:36:00,52.4,40.6,30.06,North,355,6.0,13.0,64,0.00,,---,0.00,VWS V14.01,2013-01-14 03:36:00,
2013-01-13 21:37:00,52.4,40.6,30.07,North,355,3.0,4.0,64,0.00,,---,0.00,VWS V14.01,2013-01-14 03:37:00,
2013-01-13 21:38:00,52.4,40.6,30.07,North,360,10.0,12.0,64,0.00,,---,0.00,VWS V14.01,2013-01-14 03:38:00,
2013-01-13 21:39:00,52.4,40.2,30.06,North,360,10.0,12.0,63,0.00,,---,0.00,VWS V14.01,2013-01-14 03:39:00,
2013-01-13 21:40:00,52.3,40.1,30.06,North,360,11.0,11.0,63,0.00,,---,0.00,VWS V14.01,2013-01-14 03:40:00,
2013-01-13 21:41:00,52.3,40.1,30.06,NNE,17,7.0,14.0,63,0.00,,---,0.00,VWS V14.01,2013-01-14 03:41:00,
2013-01-13 21:42:00,52.3,40.1,30.06,North,360,15.0,15.0,63,0.00,,---,0.00,VWS V14.01,2013-01-14 03:42:00,
2013-01-13 21:43:00,52.3,40.1,30.06,NW,326,7.0,15.0,63,0.00,,---,0.00,VWS V14.01,2013-01-14 03:43:00,
2013-01-13 21:44:00,52.3,40.1,30.06,NNW,345,12.0,15.0,63,0.00,,---,0.00,VWS V14.01,2013-01-14 03:44:00,
2013-01-13 21:45:00,52.3,40.1,30.06,NNE,18,11.0,17.0,63,0.00,,---,0.00,VWS V14.01,2013-01-14 03:45:00,
2013-01-13 21:46:00,52.3,40.1,30.06,North,5,11.0,15.0,63,0.00,,---,0.00,VWS V14.01,2013-01-14 03:46:00,
2013-01-13 21:47:00,52.2,40.0,30.06,North,360,4.0,6.0,63,0.00,,---,0.00,VWS V14.01,2013-01-14 03:47:00,
2013-01-13 21:48:00,52.2,40.0,30.06,NNE,22,12.0,17.0,63,0.00,,---,0.00,VWS V14.01,2013-01-14 03:48:00,
2013-01-13 21:49:00,52.2,40.0,30.06,North,5,5.0,12.0,63,0.00,,---,0.00,VWS V14.01,2013-01-14 03:49:00,
2013-01-13 21:50:00,52.2,40.0,30.06,North,360,18.0,18.0,63,0.00,,---,0.00,VWS V14.01,2013-01-14 03:50:00,
2013-01-13 21:51:00,52.2,40.0,30.06,North,5,7.0,18.0,63,0.00,,---,0.00,VWS V14.01,2013-01-14 03:51:00,
2013-01-13 21:52:00,52.1,39.9,30.06,NNE,17,10.0,13.0,63,0.00,,---,0.00,VWS V14.01,2013-01-14 03:52:00,
2013-01-13 21:53:00,52.1,39.9,30.06,NNE,22,7.0,12.0,63,0.00,,---,0.00,VWS V14.01,2013-01-14 03:53:00,
2013-01-13 21:54:00,52.1,39.9,30.06,NNE,24,11.0,12.0,63,0.00,,---,0.00,VWS V14.01,2013-01-14 03:54:00,
2013-01-13 21:55:00,52.1,39.9,30.06,NNE,18,10.0,12.0,63,0.00,,---,0.00,VWS V14.01,2013-01-14 03:55:00,
2013-01-13 21:56:00,52.1,39.9,30.06,NE,53,7.0,13.0,63,0.00,,---,0.00,VWS V14.01,2013-01-14 03:56:00,
2013-01-13 21:57:00,52.1,39.9,30.06,North,355,17.0,17.0,63,0.00,,---,0.00,VWS V14.01,2013-01-14 03:57:00,
2013-01-13 21:58:00,52.1,39.9,30.06,NNE,24,16.0,21.0,63,0.00,,---,0.00,VWS V14.01,2013-01-14 03:58:00,
2013-01-13 21:59:00,52.0,39.8,30.06,North,5,17.0,19.0,63,0.00,,---,0.00,VWS V14.01,2013-01-14 03:59:00,
2013-01-13 22:00:00,52.0,39.8,30.06,NNE,13,11.0,17.0,63,0.00,,---,0.00,VWS V14.01,2013-01-14 04:00:00,
2013-01-13 22:01:00,52.0,39.8,30.06,North,355,9.0,13.0,63,0.00,,---,0.00,VWS V14.01,2013-01-14 04:01:00,
2013-01-13 22:02:00,51.9,39.7,30.06,NNE,33,13.0,16.0,63,0.00,,---,0.00,VWS V14.01,2013-01-14 04:02:00,
2013-01-13 22:03:00,51.9,39.7,30.06,North,10,9.0,16.0,63,0.00,,---,0.00,VWS V14.01,2013-01-14 04:03:00,
2013-01-13 22:04:00,51.9,39.7,30.06,NNE,29,16.0,17.0,63,0.00,,---,0.00,VWS V14.01,2013-01-14 04:04:00,
2013-01-13 22:05:00,51.8,39.6,30.06,NNE,26,10.0,17.0,63,0.00,,---,0.00,VWS V14.01,2013-01-14 04:05:00,
2013-01-13 22:06:00,51.8,39.6,30.06,North,360,10.0,14.0,63,0.00,,---,0.00,VWS V14.01,2013-01-14 04:06:00,
2013-01-13 22:07:00,51.8,39.6,30.06,NNE,15,6.0,11.0,63,0.00,,---,0.00,VWS V14.01,2013-01-14 04:07:00,
2013-01-13 22:08:00,51.8,39.6,30.06,NNE,18,6.0,13.0,63,0.00,,---,0.00,VWS V14.01,2013-01-14 04:08:00,
2013-01-13 22:09:00,51.8,40.0,30.06,NNE,33,13.0,13.0,64,0.00,,---,0.00,VWS V14.01,2013-01-14 04:09:00,
2013-01-13 22:10:00,51.8,39.6,30.06,NNE,13,5.0,18.0,63,0.00,,---,0.00,VWS V14.01,2013-01-14 04:10:00,
2013-01-13 22:11:00,51.8,40.0,30.06,NNE,20,10.0,10.0,64,0.00,,---,0.00,VWS V14.01,2013-01-14 04:11:00,
2013-01-13 22:12:00,51.8,39.6,30.06,NNE,33,19.0,20.0,63,0.00,,---,0.00,VWS V14.01,2013-01-14 04:12:00,
2013-01-13 22:13:00,51.7,39.5,30.06,NNE,15,14.0,19.0,63,0.00,,---,0.00,VWS V14.01,2013-01-14 04:13:00,
2013-01-13 22:14:00,51.7,39.5,30.06,NNE,32,13.0,17.0,63,0.00,,---,0.00,VWS V14.01,2013-01-14 04:14:00,
2013-01-13 22:15:00,51.6,39.4,30.06,North,360,11.0,13.0,63,0.00,,---,0.00,VWS V14.01,2013-01-14 04:15:00,
2013-01-13 22:16:00,51.6,39.4,30.06,NNE,16,10.0,15.0,63,0.00,,---,0.00,VWS V14.01,2013-01-14 04:16:00,
2013-01-13 22:17:00,51.6,39.4,30.06,North,360,16.0,17.0,63,0.00,,---,0.00,VWS V14.01,2013-01-14 04:17:00,
2013-01-13 22:18:00,51.6,39.4,30.06,NNE,13,13.0,16.0,63,0.00,,---,0.00,VWS V14.01,2013-01-14 04:18:00,
2013-01-13 22:19:00,51.5,39.3,30.06,NNW,345,10.0,16.0,63,0.00,,---,0.00,VWS V14.01,2013-01-14 04:19:00,
2013-01-13 22:20:00,51.5,39.3,30.05,NNE,19,14.0,14.0,63,0.00,,---,0.00,VWS V14.01,2013-01-14 04:20:00,
2013-01-13 22:21:00,51.5,39.3,30.05,North,5,10.0,14.0,63,0.00,,---,0.00,VWS V14.01,2013-01-14 04:21:00,
2013-01-13 22:22:00,51.5,39.3,30.05,NNE,30,11.0,12.0,63,0.00,,---,0.00,VWS V14.01,2013-01-14 04:22:00,
2013-01-13 22:23:00,51.4,39.2,30.05,NNE,28,12.0,19.0,63,0.00,,---,0.00,VWS V14.01,2013-01-14 04:23:00,
2013-01-13 22:24:00,51.4,39.2,30.06,NNE,22,7.0,14.0,63,0.00,,---,0.00,VWS V14.01,2013-01-14 04:24:00,
2013-01-13 22:25:00,51.4,39.2,30.06,NNE,19,11.0,15.0,63,0.00,,---,0.00,VWS V14.01,2013-01-14 04:25:00,
2013-01-13 22:26:00,51.4,39.2,30.06,North,5,10.0,12.0,63,0.00,,---,0.00,VWS V14.01,2013-01-14 04:26:00,
2013-01-13 22:27:00,51.4,39.2,30.06,North,355,9.0,14.0,63,0.00,,---,0.00,VWS V14.01,2013-01-14 04:27:00,
2013-01-13 22:28:00,51.4,39.2,30.06,NNE,23,6.0,18.0,63,0.00,,---,0.00,VWS V14.01,2013-01-14 04:28:00,
2013-01-13 22:29:00,51.3,39.2,30.06,North,5,11.0,16.0,63,0.00,,---,0.00,VWS V14.01,2013-01-14 04:29:00,
2013-01-13 22:30:00,51.3,39.2,30.06,North,9,4.0,14.0,63,0.00,,---,0.00,VWS V14.01,2013-01-14 04:30:00,
2013-01-13 22:31:00,51.3,39.5,30.06,NE,49,16.0,16.0,64,0.00,,---,0.00,VWS V14.01,2013-01-14 04:31:00,
2013-01-13 22:32:00,51.3,39.5,30.06,North,355,6.0,16.0,64,0.00,,---,0.00,VWS V14.01,2013-01-14 04:32:00,
2013-01-13 22:33:00,51.3,39.5,30.06,NNE,19,21.0,21.0,64,0.00,,---,0.00,VWS V14.01,2013-01-14 04:33:00,
2013-01-13 22:34:00,51.3,39.5,30.06,NNE,32,12.0,21.0,64,0.00,,---,0.00,VWS V14.01,2013-01-14 04:34:00,
2013-01-13 22:35:00,51.3,39.2,30.06,North,360,11.0,12.0,63,0.00,,---,0.00,VWS V14.01,2013-01-14 04:35:00,
2013-01-13 22:36:00,51.2,39.5,30.05,NNE,28,17.0,19.0,64,0.00,,---,0.00,VWS V14.01,2013-01-14 04:36:00,
2013-01-13 22:37:00,51.2,39.5,30.05,NNE,30,15.0,17.0,64,0.00,,---,0.00,VWS V14.01,2013-01-14 04:37:00,
2013-01-13 22:38:00,51.2,39.5,30.05,NNE,21,17.0,17.0,64,0.00,,---,0.00,VWS V14.01,2013-01-14 04:38:00,
2013-01-13 22:39:00,51.2,39.5,30.05,NNE,15,11.0,17.0,64,0.00,,---,0.00,VWS V14.01,2013-01-14 04:39:00,
2013-01-13 22:40:00,51.2,39.5,30.05,North,5,7.0,19.0,64,0.00,,---,0.00,VWS V14.01,2013-01-14 04:40:00,
2013-01-13 22:41:00,51.2,39.5,30.06,NE,34,13.0,19.0,64,0.00,,---,0.00,VWS V14.01,2013-01-14 04:41:00,
2013-01-13 22:42:00,51.1,39.4,30.05,NNE,25,12.0,18.0,64,0.00,,---,0.00,VWS V14.01,2013-01-14 04:42:00,
2013-01-13 22:43:00,51.1,39.4,30.06,North,360,11.0,15.0,64,0.00,,---,0.00,VWS V14.01,2013-01-14 04:43:00,
2013-01-13 22:44:00,51.1,39.4,30.06,North,350,11.0,18.0,64,0.00,,---,0.00,VWS V14.01,2013-01-14 04:44:00,
2013-01-13 22:45:00,51.1,39.4,30.06,North,360,9.0,16.0,64,0.00,,---,0.00,VWS V14.01,2013-01-14 04:45:00,
2013-01-13 22:46:00,51.0,39.3,30.05,North,360,10.0,13.0,64,0.00,,---,0.00,VWS V14.01,2013-01-14 04:46:00,
2013-01-13 22:47:00,51.0,39.3,30.06,NE,35,10.0,11.0,64,0.00,,---,0.00,VWS V14.01,2013-01-14 04:47:00,
2013-01-13 22:48:00,51.0,39.3,30.05,North,5,16.0,16.0,64,0.00,,---,0.00,VWS V14.01,2013-01-14 04:48:00,
2013-01-13 22:49:00,51.0,39.3,30.05,NNE,26,12.0,16.0,64,0.00,,---,0.00,VWS V14.01,2013-01-14 04:49:00,
2013-01-13 22:50:00,51.0,39.3,30.05,NNE,29,11.0,15.0,64,0.00,,---,0.00,VWS V14.01,2013-01-14 04:50:00,
2013-01-13 22:51:00,51.0,39.3,30.05,North,10,14.0,15.0,64,0.00,,---,0.00,VWS V14.01,2013-01-14 04:51:00,
2013-01-13 22:52:00,50.9,39.2,30.05,NNE,28,7.0,14.0,64,0.00,,---,0.00,VWS V14.01,2013-01-14 04:52:00,
2013-01-13 22:53:00,50.9,39.2,30.05,NNE,26,11.0,12.0,64,0.00,,---,0.00,VWS V14.01,2013-01-14 04:53:00,
2013-01-13 22:54:00,50.9,39.2,30.05,North,355,13.0,13.0,64,0.00,,---,0.00,VWS V14.01,2013-01-14 04:54:00,
2013-01-13 22:55:00,50.9,39.2,30.05,NNE,26,12.0,18.0,64,0.00,,---,0.00,VWS V14.01,2013-01-14 04:55:00,
2013-01-13 22:56:00,50.9,39.2,30.05,NNE,27,7.0,15.0,64,0.00,,---,0.00,VWS V14.01,2013-01-14 04:56:00,
2013-01-13 22:57:00,50.9,39.2,30.05,NNE,19,17.0,17.0,64,0.00,,---,0.00,VWS V14.01,2013-01-14 04:57:00,
2013-01-13 22:58:00,50.9,39.2,30.05,NNE,19,12.0,15.0,64,0.00,,---,0.00,VWS V14.01,2013-01-14 04:58:00,
2013-01-13 22:59:00,50.9,39.2,30.05,NNE,21,12.0,16.0,64,0.00,,---,0.00,VWS V14.01,2013-01-14 04:59:00,
2013-01-13 23:00:00,50.9,39.2,30.05,NNE,22,19.0,20.0,64,0.00,,---,0.00,VWS V14.01,2013-01-14 05:00:00,
2013-01-13 23:01:00,50.8,39.1,30.05,NNE,26,21.0,21.0,64,0.00,,---,0.00,VWS V14.01,2013-01-14 05:01:00,
2013-01-13 23:02:00,50.8,39.1,30.05,NNE,28,13.0,13.0,64,0.00,,---,0.00,VWS V14.01,2013-01-14 05:02:00,
2013-01-13 23:03:00,50.8,39.1,30.05,North,355,9.0,13.0,64,0.00,,---,0.00,VWS V14.01,2013-01-14 05:03:00,
2013-01-13 23:04:00,50.8,39.1,30.05,North,9,6.0,16.0,64,0.00,,---,0.00,VWS V14.01,2013-01-14 05:04:00,
2013-01-13 23:05:00,50.8,39.5,30.05,North,360,14.0,14.0,65,0.00,,---,0.00,VWS V14.01,2013-01-14 05:05:00,
2013-01-13 23:06:00,50.8,39.5,30.05,NNE,21,9.0,10.0,65,0.00,,---,0.00,VWS V14.01,2013-01-14 05:06:00,
2013-01-13 23:07:00,50.8,39.5,30.05,NNE,18,19.0,19.0,65,0.00,,---,0.00,VWS V14.01,2013-01-14 05:07:00,
2013-01-13 23:08:00,50.8,39.5,30.05,NNE,14,11.0,20.0,65,0.00,,---,0.00,VWS V14.01,2013-01-14 05:08:00,
2013-01-13 23:09:00,50.8,39.5,30.05,NNE,15,10.0,14.0,65,0.00,,---,0.00,VWS V14.01,2013-01-14 05:09:00,
2013-01-13 23:10:00,50.8,39.5,30.05,NNE,13,12.0,20.0,65,0.00,,---,0.00,VWS V14.01,2013-01-14 05:10:00,
2013-01-13 23:11:00,50.8,39.5,30.05,NE,40,5.0,16.0,65,0.00,,---,0.00,VWS V14.01,2013-01-14 05:11:00,
2013-01-13 23:12:00,50.8,39.5,30.04,North,355,2.0,13.0,65,0.00,,---,0.00,VWS V14.01,2013-01-14 05:12:00,
2013-01-13 23:13:00,50.7,39.4,30.04,NNE,18,14.0,17.0,65,0.00,,---,0.00,VWS V14.01,2013-01-14 05:13:00,
2013-01-13 23:14:00,50.7,39.4,30.04,NNE,18,11.0,16.0,65,0.00,,---,0.00,VWS V14.01,2013-01-14 05:14:00,
2013-01-13 23:15:00,50.7,39.4,30.04,NNE,26,10.0,16.0,65,0.00,,---,0.00,VWS V14.01,2013-01-14 05:15:00,
2013-01-13 23:16:00,50.7,39.4,30.04,NNW,346,7.0,15.0,65,0.00,,---,0.00,VWS V14.01,2013-01-14 05:16:00,
2013-01-13 23:17:00,50.7,39.4,30.04,NE,44,7.0,16.0,65,0.00,,---,0.00,VWS V14.01,2013-01-14 05:17:00,
2013-01-13 23:18:00,50.7,39.4,30.04,North,9,5.0,18.0,65,0.00,,---,0.00,VWS V14.01,2013-01-14 05:18:00,
2013-01-13 23:19:00,50.7,39.4,30.05,NNE,24,14.0,14.0,65,0.00,,---,0.00,VWS V14.01,2013-01-14 05:19:00,
2013-01-13 23:20:00,50.7,39.4,30.05,NNE,15,7.0,16.0,65,0.00,,---,0.00,VWS V14.01,2013-01-14 05:20:00,
2013-01-13 23:21:00,50.7,39.4,30.05,NNE,15,8.0,14.0,65,0.00,,---,0.00,VWS V14.01,2013-01-14 05:21:00,
2013-01-13 23:22:00,50.6,39.3,30.06,North,355,13.0,13.0,65,0.00,,---,0.00,VWS V14.01,2013-01-14 05:22:00,
2013-01-13 23:23:00,50.7,39.4,30.06,NNE,18,11.0,13.0,65,0.00,,---,0.00,VWS V14.01,2013-01-14 05:23:00,
2013-01-13 23:24:00,50.6,39.3,30.06,North,360,12.0,16.0,65,0.00,,---,0.00,VWS V14.01,2013-01-14 05:24:00,
2013-01-13 23:25:00,50.6,39.3,30.06,North,10,7.0,14.0,65,0.00,,---,0.00,VWS V14.01,2013-01-14 05:25:00,
2013-01-13 23:26:00,50.6,39.3,30.06,NNE,14,10.0,13.0,65,0.00,,---,0.00,VWS V14.01,2013-01-14 05:26:00,
2013-01-13 23:27:00,50.6,39.3,30.06,NNE,26,12.0,16.0,65,0.00,,---,0.00,VWS V14.01,2013-01-14 05:27:00,
2013-01-13 23:28:00,50.6,39.3,30.05,North,5,11.0,15.0,65,0.00,,---,0.00,VWS V14.01,2013-01-14 05:28:00,
2013-01-13 23:29:00,50.6,39.3,30.05,NNE,15,13.0,14.0,65,0.00,,---,0.00,VWS V14.01,2013-01-14 05:29:00,
2013-01-13 23:30:00,50.6,39.3,30.06,NE,36,7.0,13.0,65,0.00,,---,0.00,VWS V14.01,2013-01-14 05:30:00,
2013-01-13 23:31:00,50.6,39.3,30.06,NNE,32,11.0,13.0,65,0.00,,---,0.00,VWS V14.01,2013-01-14 05:31:00,
2013-01-13 23:32:00,50.6,39.3,30.06,NNE,29,14.0,16.0,65,0.00,,---,0.00,VWS V14.01,2013-01-14 05:32:00,
2013-01-13 23:33:00,50.6,39.3,30.05,NNE,30,10.0,14.0,65,0.00,,---,0.00,VWS V14.01,2013-01-14 05:33:00,
2013-01-13 23:34:00,50.6,39.3,30.06,NE,40,11.0,13.0,65,0.00,,---,0.00,VWS V14.01,2013-01-14 05:34:00,
2013-01-13 23:35:00,50.6,39.3,30.05,North,5,10.0,16.0,65,0.00,,---,0.00,VWS V14.01,2013-01-14 05:35:00,
2013-01-13 23:36:00,50.6,39.3,30.05,NE,40,9.0,13.0,65,0.00,,---,0.00,VWS V14.01,2013-01-14 05:36:00,
2013-01-13 23:37:00,50.6,39.3,30.05,NNE,13,10.0,13.0,65,0.00,,---,0.00,VWS V14.01,2013-01-14 05:37:00,
2013-01-13 23:38:00,50.5,39.2,30.06,NNE,24,5.0,10.0,65,0.00,,---,0.00,VWS V14.01,2013-01-14 05:38:00,
2013-01-13 23:39:00,50.5,39.2,30.06,NNE,26,14.0,14.0,65,0.00,,---,0.00,VWS V14.01,2013-01-14 05:39:00,
2013-01-13 23:40:00,50.5,39.2,30.06,North,355,7.0,14.0,65,0.00,,---,0.00,VWS V14.01,2013-01-14 05:40:00,
2013-01-13 23:41:00,50.5,39.2,30.06,NNE,30,9.0,15.0,65,0.00,,---,0.00,VWS V14.01,2013-01-14 05:41:00,
2013-01-13 23:42:00,50.5,39.2,30.06,North,350,6.0,21.0,65,0.00,,---,0.00,VWS V14.01,2013-01-14 05:42:00,
2013-01-13 23:43:00,50.5,39.2,30.06,North,10,10.0,12.0,65,0.00,,---,0.00,VWS V14.01,2013-01-14 05:43:00,
2013-01-13 23:44:00,50.5,39.2,30.06,NNE,20,13.0,13.0,65,0.00,,---,0.00,VWS V14.01,2013-01-14 05:44:00,
2013-01-13 23:45:00,50.5,39.2,30.06,NNE,24,7.0,13.0,65,0.00,,---,0.00,VWS V14.01,2013-01-14 05:45:00,
2013-01-13 23:46:00,50.5,39.2,30.06,NE,37,11.0,12.0,65,0.00,,---,0.00,VWS V14.01,2013-01-14 05:46:00,
2013-01-13 23:48:00,50.5,39.6,30.05,NNE,21,8.0,12.0,66,0.00,,---,0.00,VWS V14.01,2013-01-14 05:48:00,
2013-01-13 23:49:00,50.4,39.5,30.06,NNE,31,17.0,17.0,66,0.00,,---,0.00,VWS V14.01,2013-01-14 05:49:00,
2013-01-13 23:51:00,50.5,39.6,30.06,North,11,10.0,15.0,66,0.00,,---,0.00,VWS V14.01,2013-01-14 05:51:00,
2013-01-13 23:52:00,50.4,39.5,30.06,NNE,20,14.0,14.0,66,0.00,,---,0.00,VWS V14.01,2013-01-14 05:52:00,
2013-01-13 23:54:00,50.4,39.5,30.06,NE,48,3.0,14.0,66,0.00,,---,0.00,VWS V14.01,2013-01-14 05:54:00,
2013-01-13 23:55:00,50.4,39.5,30.06,North,360,12.0,13.0,66,0.00,,---,0.00,VWS V14.01,2013-01-14 05:55:00,
2013-01-13 23:56:00,50.4,39.5,30.06,NNE,12,7.0,12.0,66,0.00,,---,0.00,VWS V14.01,2013-01-14 05:56:00,
2013-01-13 23:57:00,50.4,39.5,30.06,NE,38,11.0,11.0,66,0.00,,---,0.00,VWS V14.01,2013-01-14 05:57:00,
2013-01-13 23:58:00,50.4,39.5,30.06,North,360,13.0,14.0,66,0.00,,---,0.00,VWS V14.01,2013-01-14 05:58:00,
2013-01-13 23:59:00,50.4,39.5,30.06,NE,36,10.0,16.0,66,0.00,,---,0.00,VWS V14.01,2013-01-14 05:59:00,